<?xml version='1.0' encoding='UTF-8'?>
<gpx version="1.1" creator="https://www.komoot.de" xmlns="http://www.topografix.com/GPX/1/1" xmlns:xsi="http://www.w3.org/2001/XMLSchema-instance" xsi:schemaLocation="http://www.topografix.com/GPX/1/1 http://www.topografix.com/GPX/1/1/gpx.xsd">
  <metadata>
    <name>68_970TegernauEndenburg</name>
    <author>
      <link href="https://www.komoot.de">
        <text>komoot</text>
        <type>text/html</type>
      </link>
    </author>
  </metadata>
  <trk>
    <name>68_970TegernauEndenburg</name>
    <trkseg>
      <trkpt lat="47.541521" lon="7.870517">
        <ele>339.022574</ele>
        <time>2021-11-19T21:31:52.020Z</time>
      </trkpt>
      <trkpt lat="47.541521" lon="7.870517">
        <ele>339.022574</ele>
        <time>2021-11-19T21:31:52.044Z</time>
      </trkpt>
      <trkpt lat="47.541606" lon="7.870424">
        <ele>339.022574</ele>
        <time>2021-11-19T21:31:53.783Z</time>
      </trkpt>
      <trkpt lat="47.541910" lon="7.870106">
        <ele>339.022574</ele>
        <time>2021-11-19T21:31:59.644Z</time>
      </trkpt>
      <trkpt lat="47.542014" lon="7.870126">
        <ele>339.022574</ele>
        <time>2021-11-19T21:32:01.240Z</time>
      </trkpt>
      <trkpt lat="47.542118" lon="7.870135">
        <ele>339.022574</ele>
        <time>2021-11-19T21:32:02.903Z</time>
      </trkpt>
      <trkpt lat="47.542181" lon="7.870131">
        <ele>339.022574</ele>
        <time>2021-11-19T21:32:03.790Z</time>
      </trkpt>
      <trkpt lat="47.542317" lon="7.870012">
        <ele>339.012286</ele>
        <time>2021-11-19T21:32:06.042Z</time>
      </trkpt>
      <trkpt lat="47.542348" lon="7.869983">
        <ele>338.968231</ele>
        <time>2021-11-19T21:32:06.501Z</time>
      </trkpt>
      <trkpt lat="47.542329" lon="7.869820">
        <ele>338.834061</ele>
        <time>2021-11-19T21:32:08.192Z</time>
      </trkpt>
      <trkpt lat="47.542372" lon="7.869746">
        <ele>338.754863</ele>
        <time>2021-11-19T21:32:09.024Z</time>
      </trkpt>
      <trkpt lat="47.542657" lon="7.869354">
        <ele>338.287562</ele>
        <time>2021-11-19T21:32:13.888Z</time>
      </trkpt>
      <trkpt lat="47.542696" lon="7.869257">
        <ele>338.195985</ele>
        <time>2021-11-19T21:32:14.823Z</time>
      </trkpt>
      <trkpt lat="47.542722" lon="7.869201">
        <ele>338.140856</ele>
        <time>2021-11-19T21:32:15.414Z</time>
      </trkpt>
      <trkpt lat="47.543049" lon="7.868759">
        <ele>337.608958</ele>
        <time>2021-11-19T21:32:20.327Z</time>
      </trkpt>
      <trkpt lat="47.543105" lon="7.868711">
        <ele>337.531217</ele>
        <time>2021-11-19T21:32:21.065Z</time>
      </trkpt>
      <trkpt lat="47.543201" lon="7.868657">
        <ele>337.407830</ele>
        <time>2021-11-19T21:32:22.144Z</time>
      </trkpt>
      <trkpt lat="47.543657" lon="7.868359">
        <ele>336.816356</ele>
        <time>2021-11-19T21:32:27.939Z</time>
      </trkpt>
      <trkpt lat="47.543801" lon="7.868269">
        <ele>336.655063</ele>
        <time>2021-11-19T21:32:30.419Z</time>
      </trkpt>
      <trkpt lat="47.544214" lon="7.867988">
        <ele>336.186042</ele>
        <time>2021-11-19T21:32:38.035Z</time>
      </trkpt>
      <trkpt lat="47.544246" lon="7.867967">
        <ele>336.149923</ele>
        <time>2021-11-19T21:32:38.632Z</time>
      </trkpt>
      <trkpt lat="47.544410" lon="7.867825">
        <ele>335.953886</ele>
        <time>2021-11-19T21:32:41.885Z</time>
      </trkpt>
      <trkpt lat="47.544469" lon="7.867776">
        <ele>335.884082</ele>
        <time>2021-11-19T21:32:42.907Z</time>
      </trkpt>
      <trkpt lat="47.544568" lon="7.867693">
        <ele>335.766687</ele>
        <time>2021-11-19T21:32:44.834Z</time>
      </trkpt>
      <trkpt lat="47.545003" lon="7.867278">
        <ele>335.232732</ele>
        <time>2021-11-19T21:32:53.682Z</time>
      </trkpt>
      <trkpt lat="47.545160" lon="7.866985">
        <ele>335.031796</ele>
        <time>2021-11-19T21:32:58.333Z</time>
      </trkpt>
      <trkpt lat="47.545240" lon="7.866887">
        <ele>335.118278</ele>
        <time>2021-11-19T21:33:00.606Z</time>
      </trkpt>
      <trkpt lat="47.546096" lon="7.866147">
        <ele>335.943953</ele>
        <time>2021-11-19T21:33:25.676Z</time>
      </trkpt>
      <trkpt lat="47.546327" lon="7.865959">
        <ele>336.163528</ele>
        <time>2021-11-19T21:33:32.097Z</time>
      </trkpt>
      <trkpt lat="47.546510" lon="7.865766">
        <ele>336.350672</ele>
        <time>2021-11-19T21:33:38.483Z</time>
      </trkpt>
      <trkpt lat="47.546819" lon="7.865489">
        <ele>336.458391</ele>
        <time>2021-11-19T21:33:46.636Z</time>
      </trkpt>
      <trkpt lat="47.546889" lon="7.865225">
        <ele>336.409644</ele>
        <time>2021-11-19T21:33:50.423Z</time>
      </trkpt>
      <trkpt lat="47.546894" lon="7.864837">
        <ele>336.342949</ele>
        <time>2021-11-19T21:33:55.600Z</time>
      </trkpt>
      <trkpt lat="47.546885" lon="7.864500">
        <ele>336.284986</ele>
        <time>2021-11-19T21:34:01.239Z</time>
      </trkpt>
      <trkpt lat="47.546974" lon="7.864423">
        <ele>336.258744</ele>
        <time>2021-11-19T21:34:02.826Z</time>
      </trkpt>
      <trkpt lat="47.547320" lon="7.863864">
        <ele>336.128395</ele>
        <time>2021-11-19T21:34:12.752Z</time>
      </trkpt>
      <trkpt lat="47.547568" lon="7.863151">
        <ele>335.680327</ele>
        <time>2021-11-19T21:34:21.765Z</time>
      </trkpt>
      <trkpt lat="47.547930" lon="7.861711">
        <ele>333.929368</ele>
        <time>2021-11-19T21:34:38.139Z</time>
      </trkpt>
      <trkpt lat="47.548049" lon="7.860929">
        <ele>333.015935</ele>
        <time>2021-11-19T21:34:46.838Z</time>
      </trkpt>
      <trkpt lat="47.548334" lon="7.859801">
        <ele>332.192439</ele>
        <time>2021-11-19T21:35:00.320Z</time>
      </trkpt>
      <trkpt lat="47.548611" lon="7.858381">
        <ele>331.192849</ele>
        <time>2021-11-19T21:35:18.276Z</time>
      </trkpt>
      <trkpt lat="47.548686" lon="7.857973">
        <ele>331.179071</ele>
        <time>2021-11-19T21:35:23.665Z</time>
      </trkpt>
      <trkpt lat="47.548701" lon="7.857893">
        <ele>331.176366</ele>
        <time>2021-11-19T21:35:24.786Z</time>
      </trkpt>
      <trkpt lat="47.548743" lon="7.857692">
        <ele>331.169510</ele>
        <time>2021-11-19T21:35:27.560Z</time>
      </trkpt>
      <trkpt lat="47.548887" lon="7.857308">
        <ele>331.155197</ele>
        <time>2021-11-19T21:35:33.593Z</time>
      </trkpt>
      <trkpt lat="47.549362" lon="7.855774">
        <ele>331.006769</ele>
        <time>2021-11-19T21:35:57.638Z</time>
      </trkpt>
      <trkpt lat="47.549566" lon="7.855225">
        <ele>330.678748</ele>
        <time>2021-11-19T21:36:06.256Z</time>
      </trkpt>
      <trkpt lat="47.549883" lon="7.854434">
        <ele>330.197252</ele>
        <time>2021-11-19T21:36:17.710Z</time>
      </trkpt>
      <trkpt lat="47.550221" lon="7.853833">
        <ele>329.787796</ele>
        <time>2021-11-19T21:36:24.103Z</time>
      </trkpt>
      <trkpt lat="47.551516" lon="7.851950">
        <ele>324.956419</ele>
        <time>2021-11-19T21:36:42.900Z</time>
      </trkpt>
      <trkpt lat="47.551660" lon="7.851725">
        <ele>324.326141</ele>
        <time>2021-11-19T21:36:44.937Z</time>
      </trkpt>
      <trkpt lat="47.551830" lon="7.851603">
        <ele>323.727679</ele>
        <time>2021-11-19T21:36:46.850Z</time>
      </trkpt>
      <trkpt lat="47.551901" lon="7.851782">
        <ele>323.283708</ele>
        <time>2021-11-19T21:36:48.224Z</time>
      </trkpt>
      <trkpt lat="47.551925" lon="7.851845">
        <ele>323.129013</ele>
        <time>2021-11-19T21:36:48.695Z</time>
      </trkpt>
      <trkpt lat="47.552042" lon="7.852007">
        <ele>322.621656</ele>
        <time>2021-11-19T21:36:50.340Z</time>
      </trkpt>
      <trkpt lat="47.552097" lon="7.852063">
        <ele>322.410221</ele>
        <time>2021-11-19T21:36:50.975Z</time>
      </trkpt>
      <trkpt lat="47.552272" lon="7.852167">
        <ele>321.812834</ele>
        <time>2021-11-19T21:36:52.873Z</time>
      </trkpt>
      <trkpt lat="47.552449" lon="7.852231">
        <ele>321.235590</ele>
        <time>2021-11-19T21:36:54.682Z</time>
      </trkpt>
      <trkpt lat="47.552678" lon="7.851709">
        <ele>319.904307</ele>
        <time>2021-11-19T21:36:58.965Z</time>
      </trkpt>
      <trkpt lat="47.552876" lon="7.851300">
        <ele>318.910091</ele>
        <time>2021-11-19T21:37:02.508Z</time>
      </trkpt>
      <trkpt lat="47.553283" lon="7.850634">
        <ele>317.772051</ele>
        <time>2021-11-19T21:37:09.151Z</time>
      </trkpt>
      <trkpt lat="47.553344" lon="7.850525">
        <ele>317.592694</ele>
        <time>2021-11-19T21:37:10.229Z</time>
      </trkpt>
      <trkpt lat="47.553380" lon="7.850453">
        <ele>317.479193</ele>
        <time>2021-11-19T21:37:10.916Z</time>
      </trkpt>
      <trkpt lat="47.553537" lon="7.849904">
        <ele>316.723948</ele>
        <time>2021-11-19T21:37:15.402Z</time>
      </trkpt>
      <trkpt lat="47.553605" lon="7.849629">
        <ele>316.352975</ele>
        <time>2021-11-19T21:37:17.692Z</time>
      </trkpt>
      <trkpt lat="47.553725" lon="7.849291">
        <ele>315.869224</ele>
        <time>2021-11-19T21:37:20.614Z</time>
      </trkpt>
      <trkpt lat="47.554055" lon="7.848586">
        <ele>315.007471</ele>
        <time>2021-11-19T21:37:27.512Z</time>
      </trkpt>
      <trkpt lat="47.554209" lon="7.848300">
        <ele>314.663724</ele>
        <time>2021-11-19T21:37:30.475Z</time>
      </trkpt>
      <trkpt lat="47.554269" lon="7.848188">
        <ele>314.529376</ele>
        <time>2021-11-19T21:37:31.554Z</time>
      </trkpt>
      <trkpt lat="47.554351" lon="7.848049">
        <ele>314.355925</ele>
        <time>2021-11-19T21:37:33.014Z</time>
      </trkpt>
      <trkpt lat="47.554465" lon="7.847858">
        <ele>314.116368</ele>
        <time>2021-11-19T21:37:35.095Z</time>
      </trkpt>
      <trkpt lat="47.554618" lon="7.847626">
        <ele>313.811613</ele>
        <time>2021-11-19T21:37:37.594Z</time>
      </trkpt>
      <trkpt lat="47.554759" lon="7.847388">
        <ele>313.514078</ele>
        <time>2021-11-19T21:37:40.011Z</time>
      </trkpt>
      <trkpt lat="47.554892" lon="7.847148">
        <ele>313.222319</ele>
        <time>2021-11-19T21:37:42.443Z</time>
      </trkpt>
      <trkpt lat="47.554995" lon="7.846915">
        <ele>312.991092</ele>
        <time>2021-11-19T21:37:44.600Z</time>
      </trkpt>
      <trkpt lat="47.555068" lon="7.846672">
        <ele>312.781438</ele>
        <time>2021-11-19T21:37:46.660Z</time>
      </trkpt>
      <trkpt lat="47.555199" lon="7.846687">
        <ele>312.627983</ele>
        <time>2021-11-19T21:37:48.141Z</time>
      </trkpt>
      <trkpt lat="47.555727" lon="7.846715">
        <ele>312.010924</ele>
        <time>2021-11-19T21:37:54.599Z</time>
      </trkpt>
      <trkpt lat="47.555855" lon="7.846815">
        <ele>311.841924</ele>
        <time>2021-11-19T21:37:56.261Z</time>
      </trkpt>
      <trkpt lat="47.555892" lon="7.846856">
        <ele>311.787963</ele>
        <time>2021-11-19T21:37:56.819Z</time>
      </trkpt>
      <trkpt lat="47.555966" lon="7.846932">
        <ele>311.682807</ele>
        <time>2021-11-19T21:37:57.968Z</time>
      </trkpt>
      <trkpt lat="47.555990" lon="7.846965">
        <ele>311.644568</ele>
        <time>2021-11-19T21:37:58.400Z</time>
      </trkpt>
      <trkpt lat="47.556060" lon="7.846859">
        <ele>311.527673</ele>
        <time>2021-11-19T21:37:59.594Z</time>
      </trkpt>
      <trkpt lat="47.556636" lon="7.845928">
        <ele>310.766499</ele>
        <time>2021-11-19T21:38:09.980Z</time>
      </trkpt>
      <trkpt lat="47.557134" lon="7.845095">
        <ele>310.286989</ele>
        <time>2021-11-19T21:38:19.799Z</time>
      </trkpt>
      <trkpt lat="47.557282" lon="7.844832">
        <ele>310.139439</ele>
        <time>2021-11-19T21:38:22.939Z</time>
      </trkpt>
      <trkpt lat="47.557560" lon="7.844433">
        <ele>309.900955</ele>
        <time>2021-11-19T21:38:28.119Z</time>
      </trkpt>
      <trkpt lat="47.557715" lon="7.843940">
        <ele>309.908416</ele>
        <time>2021-11-19T21:38:33.124Z</time>
      </trkpt>
      <trkpt lat="47.557759" lon="7.843839">
        <ele>309.910065</ele>
        <time>2021-11-19T21:38:34.302Z</time>
      </trkpt>
      <trkpt lat="47.557846" lon="7.843756">
        <ele>309.912168</ele>
        <time>2021-11-19T21:38:35.648Z</time>
      </trkpt>
      <trkpt lat="47.557967" lon="7.843683">
        <ele>309.914824</ele>
        <time>2021-11-19T21:38:37.688Z</time>
      </trkpt>
      <trkpt lat="47.558136" lon="7.843582">
        <ele>309.918528</ele>
        <time>2021-11-19T21:38:40.371Z</time>
      </trkpt>
      <trkpt lat="47.558405" lon="7.843371">
        <ele>309.924715</ele>
        <time>2021-11-19T21:38:45.237Z</time>
      </trkpt>
      <trkpt lat="47.558471" lon="7.843365">
        <ele>309.926059</ele>
        <time>2021-11-19T21:38:46.087Z</time>
      </trkpt>
      <trkpt lat="47.558555" lon="7.843392">
        <ele>309.927806</ele>
        <time>2021-11-19T21:38:47.367Z</time>
      </trkpt>
      <trkpt lat="47.558587" lon="7.843435">
        <ele>309.928684</ele>
        <time>2021-11-19T21:38:48.098Z</time>
      </trkpt>
      <trkpt lat="47.558884" lon="7.843836">
        <ele>309.936851</ele>
        <time>2021-11-19T21:38:54.653Z</time>
      </trkpt>
      <trkpt lat="47.559060" lon="7.844197">
        <ele>309.917933</ele>
        <time>2021-11-19T21:38:59.478Z</time>
      </trkpt>
      <trkpt lat="47.559109" lon="7.844229">
        <ele>309.914250</ele>
        <time>2021-11-19T21:39:00.526Z</time>
      </trkpt>
      <trkpt lat="47.559158" lon="7.844233">
        <ele>309.910876</ele>
        <time>2021-11-19T21:39:01.473Z</time>
      </trkpt>
      <trkpt lat="47.559583" lon="7.843813">
        <ele>309.875749</ele>
        <time>2021-11-19T21:39:09.449Z</time>
      </trkpt>
      <trkpt lat="47.559847" lon="7.843604">
        <ele>309.855167</ele>
        <time>2021-11-19T21:39:13.849Z</time>
      </trkpt>
      <trkpt lat="47.560139" lon="7.843433">
        <ele>309.833576</ele>
        <time>2021-11-19T21:39:18.076Z</time>
      </trkpt>
      <trkpt lat="47.560209" lon="7.843393">
        <ele>309.828417</ele>
        <time>2021-11-19T21:39:19.027Z</time>
      </trkpt>
      <trkpt lat="47.560338" lon="7.843341">
        <ele>309.819225</ele>
        <time>2021-11-19T21:39:20.693Z</time>
      </trkpt>
      <trkpt lat="47.560430" lon="7.843341">
        <ele>309.802470</ele>
        <time>2021-11-19T21:39:22.235Z</time>
      </trkpt>
      <trkpt lat="47.560515" lon="7.843379">
        <ele>309.701281</ele>
        <time>2021-11-19T21:39:23.269Z</time>
      </trkpt>
      <trkpt lat="47.560812" lon="7.843560">
        <ele>309.335278</ele>
        <time>2021-11-19T21:39:27.329Z</time>
      </trkpt>
      <trkpt lat="47.560934" lon="7.843550">
        <ele>309.196019</ele>
        <time>2021-11-19T21:39:28.851Z</time>
      </trkpt>
      <trkpt lat="47.561038" lon="7.843502">
        <ele>309.071872</ele>
        <time>2021-11-19T21:39:30.140Z</time>
      </trkpt>
      <trkpt lat="47.561434" lon="7.843181">
        <ele>308.557434</ele>
        <time>2021-11-19T21:39:35.580Z</time>
      </trkpt>
      <trkpt lat="47.561498" lon="7.843130">
        <ele>308.474615</ele>
        <time>2021-11-19T21:39:36.345Z</time>
      </trkpt>
      <trkpt lat="47.562179" lon="7.842500">
        <ele>307.557462</ele>
        <time>2021-11-19T21:39:45.603Z</time>
      </trkpt>
      <trkpt lat="47.562300" lon="7.842326">
        <ele>307.363244</ele>
        <time>2021-11-19T21:39:47.554Z</time>
      </trkpt>
      <trkpt lat="47.562385" lon="7.842183">
        <ele>307.215114</ele>
        <time>2021-11-19T21:39:48.966Z</time>
      </trkpt>
      <trkpt lat="47.562440" lon="7.842083">
        <ele>307.114835</ele>
        <time>2021-11-19T21:39:50.081Z</time>
      </trkpt>
      <trkpt lat="47.562574" lon="7.841873">
        <ele>306.890175</ele>
        <time>2021-11-19T21:39:52.479Z</time>
      </trkpt>
      <trkpt lat="47.562904" lon="7.841632">
        <ele>306.466388</ele>
        <time>2021-11-19T21:39:56.969Z</time>
      </trkpt>
      <trkpt lat="47.562965" lon="7.841597">
        <ele>306.391038</ele>
        <time>2021-11-19T21:39:57.756Z</time>
      </trkpt>
      <trkpt lat="47.563016" lon="7.841568">
        <ele>306.328113</ele>
        <time>2021-11-19T21:39:58.458Z</time>
      </trkpt>
      <trkpt lat="47.563300" lon="7.841391">
        <ele>305.973213</ele>
        <time>2021-11-19T21:40:02.195Z</time>
      </trkpt>
      <trkpt lat="47.563483" lon="7.841269">
        <ele>305.742063</ele>
        <time>2021-11-19T21:40:04.753Z</time>
      </trkpt>
      <trkpt lat="47.563659" lon="7.841150">
        <ele>305.526297</ele>
        <time>2021-11-19T21:40:07.081Z</time>
      </trkpt>
      <trkpt lat="47.563805" lon="7.841046">
        <ele>305.347353</ele>
        <time>2021-11-19T21:40:09.143Z</time>
      </trkpt>
      <trkpt lat="47.563941" lon="7.840948">
        <ele>305.180300</ele>
        <time>2021-11-19T21:40:10.995Z</time>
      </trkpt>
      <trkpt lat="47.563986" lon="7.840916">
        <ele>305.125164</ele>
        <time>2021-11-19T21:40:11.615Z</time>
      </trkpt>
      <trkpt lat="47.564094" lon="7.840838">
        <ele>304.992447</ele>
        <time>2021-11-19T21:40:13.084Z</time>
      </trkpt>
      <trkpt lat="47.564463" lon="7.840580">
        <ele>304.541738</ele>
        <time>2021-11-19T21:40:18.071Z</time>
      </trkpt>
      <trkpt lat="47.564534" lon="7.840532">
        <ele>304.455531</ele>
        <time>2021-11-19T21:40:18.978Z</time>
      </trkpt>
      <trkpt lat="47.564558" lon="7.840516">
        <ele>304.426460</ele>
        <time>2021-11-19T21:40:19.302Z</time>
      </trkpt>
      <trkpt lat="47.564936" lon="7.840261">
        <ele>303.967672</ele>
        <time>2021-11-19T21:40:24.203Z</time>
      </trkpt>
      <trkpt lat="47.565057" lon="7.840213">
        <ele>303.829302</ele>
        <time>2021-11-19T21:40:25.617Z</time>
      </trkpt>
      <trkpt lat="47.565168" lon="7.840179">
        <ele>303.704148</ele>
        <time>2021-11-19T21:40:26.958Z</time>
      </trkpt>
      <trkpt lat="47.565233" lon="7.840176">
        <ele>303.637887</ele>
        <time>2021-11-19T21:40:27.694Z</time>
      </trkpt>
      <trkpt lat="47.565343" lon="7.840185">
        <ele>303.525636</ele>
        <time>2021-11-19T21:40:28.953Z</time>
      </trkpt>
      <trkpt lat="47.565906" lon="7.840272">
        <ele>302.948882</ele>
        <time>2021-11-19T21:40:35.814Z</time>
      </trkpt>
      <trkpt lat="47.566081" lon="7.840309">
        <ele>302.768767</ele>
        <time>2021-11-19T21:40:37.957Z</time>
      </trkpt>
      <trkpt lat="47.566142" lon="7.840322">
        <ele>302.705975</ele>
        <time>2021-11-19T21:40:38.640Z</time>
      </trkpt>
      <trkpt lat="47.566221" lon="7.840340">
        <ele>302.624535</ele>
        <time>2021-11-19T21:40:39.837Z</time>
      </trkpt>
      <trkpt lat="47.566350" lon="7.840350">
        <ele>302.492917</ele>
        <time>2021-11-19T21:40:41.526Z</time>
      </trkpt>
      <trkpt lat="47.566450" lon="7.840326">
        <ele>302.389699</ele>
        <time>2021-11-19T21:40:42.750Z</time>
      </trkpt>
      <trkpt lat="47.566515" lon="7.840312">
        <ele>302.322774</ele>
        <time>2021-11-19T21:40:43.496Z</time>
      </trkpt>
      <trkpt lat="47.566592" lon="7.840279">
        <ele>302.241104</ele>
        <time>2021-11-19T21:40:44.686Z</time>
      </trkpt>
      <trkpt lat="47.566826" lon="7.840179">
        <ele>301.992965</ele>
        <time>2021-11-19T21:40:47.620Z</time>
      </trkpt>
      <trkpt lat="47.567111" lon="7.839998">
        <ele>301.727056</ele>
        <time>2021-11-19T21:40:51.638Z</time>
      </trkpt>
      <trkpt lat="47.567406" lon="7.839778">
        <ele>301.476825</ele>
        <time>2021-11-19T21:40:55.824Z</time>
      </trkpt>
      <trkpt lat="47.567481" lon="7.839664">
        <ele>301.395422</ele>
        <time>2021-11-19T21:40:57.029Z</time>
      </trkpt>
      <trkpt lat="47.567510" lon="7.839548">
        <ele>301.332177</ele>
        <time>2021-11-19T21:40:58.263Z</time>
      </trkpt>
      <trkpt lat="47.567530" lon="7.839459">
        <ele>301.284218</ele>
        <time>2021-11-19T21:40:59.109Z</time>
      </trkpt>
      <trkpt lat="47.567564" lon="7.839283">
        <ele>301.190623</ele>
        <time>2021-11-19T21:41:00.718Z</time>
      </trkpt>
      <trkpt lat="47.567626" lon="7.839064">
        <ele>301.069203</ele>
        <time>2021-11-19T21:41:02.742Z</time>
      </trkpt>
      <trkpt lat="47.567634" lon="7.839037">
        <ele>301.054127</ele>
        <time>2021-11-19T21:41:02.977Z</time>
      </trkpt>
      <trkpt lat="47.567823" lon="7.838648">
        <ele>300.809054</ele>
        <time>2021-11-19T21:41:07.260Z</time>
      </trkpt>
      <trkpt lat="47.567846" lon="7.838609">
        <ele>300.782573</ele>
        <time>2021-11-19T21:41:07.701Z</time>
      </trkpt>
      <trkpt lat="47.567936" lon="7.838380">
        <ele>300.647084</ele>
        <time>2021-11-19T21:41:10.156Z</time>
      </trkpt>
      <trkpt lat="47.568042" lon="7.838436">
        <ele>300.561815</ele>
        <time>2021-11-19T21:41:12.085Z</time>
      </trkpt>
      <trkpt lat="47.568160" lon="7.838415">
        <ele>300.443165</ele>
        <time>2021-11-19T21:41:14.223Z</time>
      </trkpt>
      <trkpt lat="47.568420" lon="7.838300">
        <ele>300.080898</ele>
        <time>2021-11-19T21:41:18.835Z</time>
      </trkpt>
      <trkpt lat="47.568988" lon="7.838054">
        <ele>299.290820</ele>
        <time>2021-11-19T21:41:28.658Z</time>
      </trkpt>
      <trkpt lat="47.569310" lon="7.837922">
        <ele>298.844761</ele>
        <time>2021-11-19T21:41:34.165Z</time>
      </trkpt>
      <trkpt lat="47.569522" lon="7.837844">
        <ele>298.553119</ele>
        <time>2021-11-19T21:41:37.757Z</time>
      </trkpt>
      <trkpt lat="47.569665" lon="7.837789">
        <ele>298.355869</ele>
        <time>2021-11-19T21:41:40.195Z</time>
      </trkpt>
      <trkpt lat="47.569814" lon="7.837733">
        <ele>298.150636</ele>
        <time>2021-11-19T21:41:42.731Z</time>
      </trkpt>
      <trkpt lat="47.569907" lon="7.837696">
        <ele>298.029824</ele>
        <time>2021-11-19T21:41:44.307Z</time>
      </trkpt>
      <trkpt lat="47.570038" lon="7.837643">
        <ele>297.864909</ele>
        <time>2021-11-19T21:41:46.559Z</time>
      </trkpt>
      <trkpt lat="47.570298" lon="7.837528">
        <ele>297.535388</ele>
        <time>2021-11-19T21:41:51.010Z</time>
      </trkpt>
      <trkpt lat="47.570872" lon="7.837307">
        <ele>296.815151</ele>
        <time>2021-11-19T21:42:00.872Z</time>
      </trkpt>
      <trkpt lat="47.570985" lon="7.837265">
        <ele>296.673668</ele>
        <time>2021-11-19T21:42:02.799Z</time>
      </trkpt>
      <trkpt lat="47.571254" lon="7.837161">
        <ele>296.336046</ele>
        <time>2021-11-19T21:42:07.512Z</time>
      </trkpt>
      <trkpt lat="47.571771" lon="7.836971">
        <ele>295.819295</ele>
        <time>2021-11-19T21:42:17.018Z</time>
      </trkpt>
      <trkpt lat="47.571871" lon="7.836932">
        <ele>295.763469</ele>
        <time>2021-11-19T21:42:18.955Z</time>
      </trkpt>
      <trkpt lat="47.572139" lon="7.836834">
        <ele>295.614443</ele>
        <time>2021-11-19T21:42:24.151Z</time>
      </trkpt>
      <trkpt lat="47.572296" lon="7.836777">
        <ele>295.527175</ele>
        <time>2021-11-19T21:42:27.229Z</time>
      </trkpt>
      <trkpt lat="47.572760" lon="7.836606">
        <ele>295.269043</ele>
        <time>2021-11-19T21:42:36.246Z</time>
      </trkpt>
      <trkpt lat="47.573348" lon="7.836386">
        <ele>294.947590</ele>
        <time>2021-11-19T21:42:47.401Z</time>
      </trkpt>
      <trkpt lat="47.573815" lon="7.836215">
        <ele>294.831670</ele>
        <time>2021-11-19T21:42:56.212Z</time>
      </trkpt>
      <trkpt lat="47.574158" lon="7.836106">
        <ele>294.747137</ele>
        <time>2021-11-19T21:43:02.784Z</time>
      </trkpt>
      <trkpt lat="47.574568" lon="7.836025">
        <ele>294.647462</ele>
        <time>2021-11-19T21:43:08.475Z</time>
      </trkpt>
      <trkpt lat="47.575033" lon="7.835907">
        <ele>294.533778</ele>
        <time>2021-11-19T21:43:15.480Z</time>
      </trkpt>
      <trkpt lat="47.575959" lon="7.835718">
        <ele>295.247565</ele>
        <time>2021-11-19T21:43:31.096Z</time>
      </trkpt>
      <trkpt lat="47.576219" lon="7.835650">
        <ele>295.467851</ele>
        <time>2021-11-19T21:43:36.254Z</time>
      </trkpt>
      <trkpt lat="47.579073" lon="7.834987">
        <ele>298.554540</ele>
        <time>2021-11-19T21:44:35.090Z</time>
      </trkpt>
      <trkpt lat="47.580667" lon="7.834627">
        <ele>298.679203</ele>
        <time>2021-11-19T21:44:58.940Z</time>
      </trkpt>
      <trkpt lat="47.580816" lon="7.834599">
        <ele>298.492329</ele>
        <time>2021-11-19T21:45:01.036Z</time>
      </trkpt>
      <trkpt lat="47.582828" lon="7.834117">
        <ele>294.991423</ele>
        <time>2021-11-19T21:45:24.084Z</time>
      </trkpt>
      <trkpt lat="47.583163" lon="7.833942">
        <ele>294.007301</ele>
        <time>2021-11-19T21:45:27.913Z</time>
      </trkpt>
      <trkpt lat="47.583327" lon="7.833750">
        <ele>293.428309</ele>
        <time>2021-11-19T21:45:30.071Z</time>
      </trkpt>
      <trkpt lat="47.583401" lon="7.833658">
        <ele>293.160726</ele>
        <time>2021-11-19T21:45:31.002Z</time>
      </trkpt>
      <trkpt lat="47.583523" lon="7.833509">
        <ele>292.722772</ele>
        <time>2021-11-19T21:45:32.678Z</time>
      </trkpt>
      <trkpt lat="47.583696" lon="7.833171">
        <ele>291.929816</ele>
        <time>2021-11-19T21:45:35.516Z</time>
      </trkpt>
      <trkpt lat="47.583849" lon="7.832883">
        <ele>290.979246</ele>
        <time>2021-11-19T21:45:37.836Z</time>
      </trkpt>
      <trkpt lat="47.584029" lon="7.832543">
        <ele>289.755044</ele>
        <time>2021-11-19T21:45:40.571Z</time>
      </trkpt>
      <trkpt lat="47.584156" lon="7.832334">
        <ele>288.958292</ele>
        <time>2021-11-19T21:45:42.350Z</time>
      </trkpt>
      <trkpt lat="47.584367" lon="7.832247">
        <ele>288.038647</ele>
        <time>2021-11-19T21:45:44.410Z</time>
      </trkpt>
      <trkpt lat="47.584717" lon="7.832264">
        <ele>286.568162</ele>
        <time>2021-11-19T21:45:47.799Z</time>
      </trkpt>
      <trkpt lat="47.585027" lon="7.832425">
        <ele>285.188873</ele>
        <time>2021-11-19T21:45:51.062Z</time>
      </trkpt>
      <trkpt lat="47.585195" lon="7.832588">
        <ele>284.345784</ele>
        <time>2021-11-19T21:45:53.118Z</time>
      </trkpt>
      <trkpt lat="47.585247" lon="7.832651">
        <ele>284.129271</ele>
        <time>2021-11-19T21:45:53.765Z</time>
      </trkpt>
      <trkpt lat="47.585278" lon="7.832688">
        <ele>284.038663</ele>
        <time>2021-11-19T21:45:54.148Z</time>
      </trkpt>
      <trkpt lat="47.586276" lon="7.833601">
        <ele>281.368742</ele>
        <time>2021-11-19T21:46:06.165Z</time>
      </trkpt>
      <trkpt lat="47.586496" lon="7.833050">
        <ele>280.385482</ele>
        <time>2021-11-19T21:46:11.401Z</time>
      </trkpt>
      <trkpt lat="47.587848" lon="7.834235">
        <ele>280.864515</ele>
        <time>2021-11-19T21:46:35.741Z</time>
      </trkpt>
      <trkpt lat="47.587628" lon="7.835942">
        <ele>283.417942</ele>
        <time>2021-11-19T21:47:03.728Z</time>
      </trkpt>
      <trkpt lat="47.587903" lon="7.836007">
        <ele>284.219937</ele>
        <time>2021-11-19T21:47:11.285Z</time>
      </trkpt>
      <trkpt lat="47.588032" lon="7.836036">
        <ele>284.595701</ele>
        <time>2021-11-19T21:47:15.455Z</time>
      </trkpt>
      <trkpt lat="47.588097" lon="7.836051">
        <ele>284.785154</ele>
        <time>2021-11-19T21:47:17.111Z</time>
      </trkpt>
      <trkpt lat="47.588272" lon="7.836090">
        <ele>285.294812</ele>
        <time>2021-11-19T21:47:22.304Z</time>
      </trkpt>
      <trkpt lat="47.589181" lon="7.835983">
        <ele>288.931434</ele>
        <time>2021-11-19T21:47:49.813Z</time>
      </trkpt>
      <trkpt lat="47.590263" lon="7.835856">
        <ele>293.920156</ele>
        <time>2021-11-19T21:48:25.107Z</time>
      </trkpt>
      <trkpt lat="47.590166" lon="7.836338">
        <ele>296.566377</ele>
        <time>2021-11-19T21:48:36.282Z</time>
      </trkpt>
      <trkpt lat="47.591704" lon="7.836354">
        <ele>311.421015</ele>
        <time>2021-11-19T21:50:07.576Z</time>
      </trkpt>
      <trkpt lat="47.591953" lon="7.836379">
        <ele>314.742597</ele>
        <time>2021-11-19T21:50:30.610Z</time>
      </trkpt>
      <trkpt lat="47.592110" lon="7.836372">
        <ele>316.962209</ele>
        <time>2021-11-19T21:50:40.249Z</time>
      </trkpt>
      <trkpt lat="47.592182" lon="7.836371">
        <ele>317.979705</ele>
        <time>2021-11-19T21:50:46.584Z</time>
      </trkpt>
      <trkpt lat="47.592250" lon="7.836371">
        <ele>318.940631</ele>
        <time>2021-11-19T21:50:54.351Z</time>
      </trkpt>
      <trkpt lat="47.592897" lon="7.836379">
        <ele>328.083882</ele>
        <time>2021-11-19T21:51:43.810Z</time>
      </trkpt>
      <trkpt lat="47.593173" lon="7.836468">
        <ele>332.075272</ele>
        <time>2021-11-19T21:52:06.477Z</time>
      </trkpt>
      <trkpt lat="47.593342" lon="7.836538">
        <ele>334.554878</ele>
        <time>2021-11-19T21:52:24.640Z</time>
      </trkpt>
      <trkpt lat="47.593826" lon="7.836849">
        <ele>340.052594</ele>
        <time>2021-11-19T21:52:59.877Z</time>
      </trkpt>
      <trkpt lat="47.594385" lon="7.837297">
        <ele>345.316286</ele>
        <time>2021-11-19T21:53:35.353Z</time>
      </trkpt>
      <trkpt lat="47.594966" lon="7.837645">
        <ele>350.506974</ele>
        <time>2021-11-19T21:54:04.185Z</time>
      </trkpt>
      <trkpt lat="47.595487" lon="7.838131">
        <ele>353.462477</ele>
        <time>2021-11-19T21:54:25.292Z</time>
      </trkpt>
      <trkpt lat="47.595964" lon="7.838747">
        <ele>355.423356</ele>
        <time>2021-11-19T21:54:44.881Z</time>
      </trkpt>
      <trkpt lat="47.596578" lon="7.839929">
        <ele>358.594620</ele>
        <time>2021-11-19T21:55:15.534Z</time>
      </trkpt>
      <trkpt lat="47.596993" lon="7.840544">
        <ele>360.534086</ele>
        <time>2021-11-19T21:55:34.980Z</time>
      </trkpt>
      <trkpt lat="47.597263" lon="7.840840">
        <ele>361.644046</ele>
        <time>2021-11-19T21:55:46.311Z</time>
      </trkpt>
      <trkpt lat="47.597727" lon="7.841333">
        <ele>363.530958</ele>
        <time>2021-11-19T21:56:05.952Z</time>
      </trkpt>
      <trkpt lat="47.597842" lon="7.841614">
        <ele>364.410902</ele>
        <time>2021-11-19T21:56:13.971Z</time>
      </trkpt>
      <trkpt lat="47.598058" lon="7.842175">
        <ele>366.228677</ele>
        <time>2021-11-19T21:56:29.837Z</time>
      </trkpt>
      <trkpt lat="47.598238" lon="7.842763">
        <ele>368.045731</ele>
        <time>2021-11-19T21:56:45.662Z</time>
      </trkpt>
      <trkpt lat="47.598536" lon="7.843376">
        <ele>370.172120</ele>
        <time>2021-11-19T21:57:04.478Z</time>
      </trkpt>
      <trkpt lat="47.598696" lon="7.843499">
        <ele>370.924149</ele>
        <time>2021-11-19T21:57:11.261Z</time>
      </trkpt>
      <trkpt lat="47.598937" lon="7.843561">
        <ele>372.238162</ele>
        <time>2021-11-19T21:57:20.860Z</time>
      </trkpt>
      <trkpt lat="47.599568" lon="7.843496">
        <ele>375.928171</ele>
        <time>2021-11-19T21:57:47.050Z</time>
      </trkpt>
      <trkpt lat="47.599763" lon="7.843535">
        <ele>377.076065</ele>
        <time>2021-11-19T21:57:55.584Z</time>
      </trkpt>
      <trkpt lat="47.600072" lon="7.843673">
        <ele>378.958681</ele>
        <time>2021-11-19T21:58:10.240Z</time>
      </trkpt>
      <trkpt lat="47.600807" lon="7.843916">
        <ele>383.815570</ele>
        <time>2021-11-19T21:58:46.015Z</time>
      </trkpt>
      <trkpt lat="47.602198" lon="7.844937">
        <ele>395.503356</ele>
        <time>2021-11-19T22:00:04.534Z</time>
      </trkpt>
      <trkpt lat="47.602253" lon="7.845252">
        <ele>397.685266</ele>
        <time>2021-11-19T22:00:15.677Z</time>
      </trkpt>
      <trkpt lat="47.602229" lon="7.845655">
        <ele>400.398111</ele>
        <time>2021-11-19T22:00:29.401Z</time>
      </trkpt>
      <trkpt lat="47.602243" lon="7.846717">
        <ele>407.520738</ele>
        <time>2021-11-19T22:01:14.979Z</time>
      </trkpt>
      <trkpt lat="47.602236" lon="7.847007">
        <ele>409.466586</ele>
        <time>2021-11-19T22:01:29.007Z</time>
      </trkpt>
      <trkpt lat="47.602282" lon="7.847374">
        <ele>411.969669</ele>
        <time>2021-11-19T22:01:44.788Z</time>
      </trkpt>
      <trkpt lat="47.602400" lon="7.847680">
        <ele>414.415159</ele>
        <time>2021-11-19T22:01:58.777Z</time>
      </trkpt>
      <trkpt lat="47.602486" lon="7.847821">
        <ele>415.769928</ele>
        <time>2021-11-19T22:02:07.971Z</time>
      </trkpt>
      <trkpt lat="47.602606" lon="7.848016">
        <ele>417.651104</ele>
        <time>2021-11-19T22:02:19.596Z</time>
      </trkpt>
      <trkpt lat="47.603736" lon="7.848907">
        <ele>431.175482</ele>
        <time>2021-11-19T22:03:42.580Z</time>
      </trkpt>
      <trkpt lat="47.604551" lon="7.849629">
        <ele>437.804624</ele>
        <time>2021-11-19T22:04:30.056Z</time>
      </trkpt>
      <trkpt lat="47.604823" lon="7.849877">
        <ele>439.926798</ele>
        <time>2021-11-19T22:04:44.217Z</time>
      </trkpt>
      <trkpt lat="47.605011" lon="7.850048">
        <ele>441.392628</ele>
        <time>2021-11-19T22:04:53.453Z</time>
      </trkpt>
      <trkpt lat="47.605181" lon="7.850167">
        <ele>442.642077</ele>
        <time>2021-11-19T22:05:01.122Z</time>
      </trkpt>
      <trkpt lat="47.605584" lon="7.850507">
        <ele>444.715096</ele>
        <time>2021-11-19T22:05:19.027Z</time>
      </trkpt>
      <trkpt lat="47.605922" lon="7.850724">
        <ele>445.738010</ele>
        <time>2021-11-19T22:05:32.060Z</time>
      </trkpt>
      <trkpt lat="47.606259" lon="7.850845">
        <ele>446.701009</ele>
        <time>2021-11-19T22:05:43.169Z</time>
      </trkpt>
      <trkpt lat="47.606432" lon="7.850826">
        <ele>447.182805</ele>
        <time>2021-11-19T22:05:48.151Z</time>
      </trkpt>
      <trkpt lat="47.606642" lon="7.850761">
        <ele>447.778612</ele>
        <time>2021-11-19T22:05:54.322Z</time>
      </trkpt>
      <trkpt lat="47.606841" lon="7.850541">
        <ele>448.467941</ele>
        <time>2021-11-19T22:06:01.317Z</time>
      </trkpt>
      <trkpt lat="47.607206" lon="7.849906">
        <ele>448.563808</ele>
        <time>2021-11-19T22:06:14.685Z</time>
      </trkpt>
      <trkpt lat="47.607512" lon="7.849734">
        <ele>448.195731</ele>
        <time>2021-11-19T22:06:20.684Z</time>
      </trkpt>
      <trkpt lat="47.607779" lon="7.849458">
        <ele>447.829667</ele>
        <time>2021-11-19T22:06:26.127Z</time>
      </trkpt>
      <trkpt lat="47.608193" lon="7.849027">
        <ele>447.260741</ele>
        <time>2021-11-19T22:06:34.111Z</time>
      </trkpt>
      <trkpt lat="47.608499" lon="7.848767">
        <ele>446.627924</ele>
        <time>2021-11-19T22:06:39.362Z</time>
      </trkpt>
      <trkpt lat="47.608647" lon="7.848750">
        <ele>446.064169</ele>
        <time>2021-11-19T22:06:41.478Z</time>
      </trkpt>
      <trkpt lat="47.608958" lon="7.849213">
        <ele>444.390734</ele>
        <time>2021-11-19T22:06:47.654Z</time>
      </trkpt>
      <trkpt lat="47.609180" lon="7.849407">
        <ele>443.412182</ele>
        <time>2021-11-19T22:06:51.222Z</time>
      </trkpt>
      <trkpt lat="47.609671" lon="7.849581">
        <ele>441.494987</ele>
        <time>2021-11-19T22:06:58.119Z</time>
      </trkpt>
      <trkpt lat="47.609900" lon="7.849721">
        <ele>440.554319</ele>
        <time>2021-11-19T22:07:01.579Z</time>
      </trkpt>
      <trkpt lat="47.610164" lon="7.850132">
        <ele>439.565199</ele>
        <time>2021-11-19T22:07:07.135Z</time>
      </trkpt>
      <trkpt lat="47.610866" lon="7.850970">
        <ele>437.683245</ele>
        <time>2021-11-19T22:07:21.142Z</time>
      </trkpt>
      <trkpt lat="47.611197" lon="7.851511">
        <ele>436.654596</ele>
        <time>2021-11-19T22:07:30.142Z</time>
      </trkpt>
      <trkpt lat="47.611373" lon="7.852022">
        <ele>435.343278</ele>
        <time>2021-11-19T22:07:36.826Z</time>
      </trkpt>
      <trkpt lat="47.611487" lon="7.852197">
        <ele>434.674871</ele>
        <time>2021-11-19T22:07:39.613Z</time>
      </trkpt>
      <trkpt lat="47.611909" lon="7.852604">
        <ele>432.624073</ele>
        <time>2021-11-19T22:07:46.959Z</time>
      </trkpt>
      <trkpt lat="47.612224" lon="7.852925">
        <ele>431.067017</ele>
        <time>2021-11-19T22:07:52.099Z</time>
      </trkpt>
      <trkpt lat="47.612366" lon="7.853056">
        <ele>430.385714</ele>
        <time>2021-11-19T22:07:54.320Z</time>
      </trkpt>
      <trkpt lat="47.612473" lon="7.853153">
        <ele>429.874806</ele>
        <time>2021-11-19T22:07:55.973Z</time>
      </trkpt>
      <trkpt lat="47.612894" lon="7.853499">
        <ele>426.687966</ele>
        <time>2021-11-19T22:08:02.152Z</time>
      </trkpt>
      <trkpt lat="47.613147" lon="7.853586">
        <ele>424.486066</ele>
        <time>2021-11-19T22:08:05.365Z</time>
      </trkpt>
      <trkpt lat="47.613350" lon="7.853629">
        <ele>422.747506</ele>
        <time>2021-11-19T22:08:07.908Z</time>
      </trkpt>
      <trkpt lat="47.613558" lon="7.853788">
        <ele>420.763631</ele>
        <time>2021-11-19T22:08:10.788Z</time>
      </trkpt>
      <trkpt lat="47.613564" lon="7.854464">
        <ele>416.899633</ele>
        <time>2021-11-19T22:08:16.358Z</time>
      </trkpt>
      <trkpt lat="47.613607" lon="7.854572">
        <ele>416.182741</ele>
        <time>2021-11-19T22:08:17.368Z</time>
      </trkpt>
      <trkpt lat="47.613659" lon="7.854700">
        <ele>415.328587</ele>
        <time>2021-11-19T22:08:18.662Z</time>
      </trkpt>
      <trkpt lat="47.613792" lon="7.854776">
        <ele>414.120198</ele>
        <time>2021-11-19T22:08:20.461Z</time>
      </trkpt>
      <trkpt lat="47.613988" lon="7.854392">
        <ele>411.978917</ele>
        <time>2021-11-19T22:08:24.507Z</time>
      </trkpt>
      <trkpt lat="47.614100" lon="7.854196">
        <ele>410.879810</ele>
        <time>2021-11-19T22:08:26.641Z</time>
      </trkpt>
      <trkpt lat="47.614238" lon="7.854173">
        <ele>409.998620</ele>
        <time>2021-11-19T22:08:28.582Z</time>
      </trkpt>
      <trkpt lat="47.614301" lon="7.854162">
        <ele>409.596093</ele>
        <time>2021-11-19T22:08:29.463Z</time>
      </trkpt>
      <trkpt lat="47.614629" lon="7.854431">
        <ele>407.217862</ele>
        <time>2021-11-19T22:08:34.312Z</time>
      </trkpt>
      <trkpt lat="47.614801" lon="7.854465">
        <ele>406.116786</ele>
        <time>2021-11-19T22:08:36.493Z</time>
      </trkpt>
      <trkpt lat="47.615213" lon="7.854374">
        <ele>403.473615</ele>
        <time>2021-11-19T22:08:42.156Z</time>
      </trkpt>
      <trkpt lat="47.615794" lon="7.854262">
        <ele>402.233731</ele>
        <time>2021-11-19T22:08:50.335Z</time>
      </trkpt>
      <trkpt lat="47.615857" lon="7.854262">
        <ele>402.210705</ele>
        <time>2021-11-19T22:08:51.344Z</time>
      </trkpt>
      <trkpt lat="47.615860" lon="7.854339">
        <ele>402.191702</ele>
        <time>2021-11-19T22:08:52.161Z</time>
      </trkpt>
      <trkpt lat="47.616057" lon="7.854419">
        <ele>402.117051</ele>
        <time>2021-11-19T22:08:55.462Z</time>
      </trkpt>
      <trkpt lat="47.616213" lon="7.854635">
        <ele>402.039058</ele>
        <time>2021-11-19T22:08:59.738Z</time>
      </trkpt>
      <trkpt lat="47.616246" lon="7.854637">
        <ele>402.026987</ele>
        <time>2021-11-19T22:09:00.310Z</time>
      </trkpt>
      <trkpt lat="47.616419" lon="7.854648">
        <ele>401.963699</ele>
        <time>2021-11-19T22:09:04.349Z</time>
      </trkpt>
      <trkpt lat="47.616561" lon="7.854545">
        <ele>401.905928</ele>
        <time>2021-11-19T22:09:08.013Z</time>
      </trkpt>
      <trkpt lat="47.616730" lon="7.854154">
        <ele>401.791494</ele>
        <time>2021-11-19T22:09:17.148Z</time>
      </trkpt>
      <trkpt lat="47.616902" lon="7.854158">
        <ele>401.728622</ele>
        <time>2021-11-19T22:09:22.066Z</time>
      </trkpt>
      <trkpt lat="47.617121" lon="7.853582">
        <ele>404.393384</ele>
        <time>2021-11-19T22:09:36.702Z</time>
      </trkpt>
      <trkpt lat="47.617174" lon="7.853374">
        <ele>405.294307</ele>
        <time>2021-11-19T22:09:42.515Z</time>
      </trkpt>
      <trkpt lat="47.617401" lon="7.852985">
        <ele>407.378888</ele>
        <time>2021-11-19T22:09:56.913Z</time>
      </trkpt>
      <trkpt lat="47.617505" lon="7.852663">
        <ele>408.825507</ele>
        <time>2021-11-19T22:10:07.526Z</time>
      </trkpt>
      <trkpt lat="47.617527" lon="7.851427">
        <ele>413.673815</ele>
        <time>2021-11-19T22:10:45.821Z</time>
      </trkpt>
      <trkpt lat="47.618006" lon="7.850183">
        <ele>418.756810</ele>
        <time>2021-11-19T22:11:21.781Z</time>
      </trkpt>
      <trkpt lat="47.618035" lon="7.849984">
        <ele>419.479162</ele>
        <time>2021-11-19T22:11:26.370Z</time>
      </trkpt>
      <trkpt lat="47.618004" lon="7.848291">
        <ele>423.677147</ele>
        <time>2021-11-19T22:11:58.540Z</time>
      </trkpt>
      <trkpt lat="47.617988" lon="7.848055">
        <ele>424.081079</ele>
        <time>2021-11-19T22:12:02.537Z</time>
      </trkpt>
      <trkpt lat="47.617998" lon="7.847811">
        <ele>424.497374</ele>
        <time>2021-11-19T22:12:06.098Z</time>
      </trkpt>
      <trkpt lat="47.618233" lon="7.846599">
        <ele>426.658361</ele>
        <time>2021-11-19T22:12:24.551Z</time>
      </trkpt>
      <trkpt lat="47.618223" lon="7.845325">
        <ele>429.130340</ele>
        <time>2021-11-19T22:12:45.281Z</time>
      </trkpt>
      <trkpt lat="47.618134" lon="7.844973">
        <ele>429.859754</ele>
        <time>2021-11-19T22:12:51.779Z</time>
      </trkpt>
      <trkpt lat="47.617988" lon="7.844483">
        <ele>430.899192</ele>
        <time>2021-11-19T22:13:01.911Z</time>
      </trkpt>
      <trkpt lat="47.617607" lon="7.843840">
        <ele>433.064423</ele>
        <time>2021-11-19T22:13:19.949Z</time>
      </trkpt>
      <trkpt lat="47.617368" lon="7.843216">
        <ele>435.299372</ele>
        <time>2021-11-19T22:13:36.593Z</time>
      </trkpt>
      <trkpt lat="47.617228" lon="7.842570">
        <ele>437.412473</ele>
        <time>2021-11-19T22:13:52.964Z</time>
      </trkpt>
      <trkpt lat="47.617103" lon="7.841209">
        <ele>441.403834</ele>
        <time>2021-11-19T22:14:23.823Z</time>
      </trkpt>
      <trkpt lat="47.616766" lon="7.839183">
        <ele>446.778191</ele>
        <time>2021-11-19T22:15:05.372Z</time>
      </trkpt>
      <trkpt lat="47.616796" lon="7.838812">
        <ele>447.616784</ele>
        <time>2021-11-19T22:15:12.153Z</time>
      </trkpt>
      <trkpt lat="47.617290" lon="7.837217">
        <ele>451.465421</ele>
        <time>2021-11-19T22:15:44.546Z</time>
      </trkpt>
      <trkpt lat="47.617841" lon="7.835706">
        <ele>455.548018</ele>
        <time>2021-11-19T22:16:17.326Z</time>
      </trkpt>
      <trkpt lat="47.618319" lon="7.834959">
        <ele>458.094733</ele>
        <time>2021-11-19T22:16:38.480Z</time>
      </trkpt>
      <trkpt lat="47.618582" lon="7.834417">
        <ele>459.739330</ele>
        <time>2021-11-19T22:16:52.176Z</time>
      </trkpt>
      <trkpt lat="47.618883" lon="7.833744">
        <ele>461.702256</ele>
        <time>2021-11-19T22:17:08.699Z</time>
      </trkpt>
      <trkpt lat="47.619543" lon="7.832548">
        <ele>465.458784</ele>
        <time>2021-11-19T22:17:39.343Z</time>
      </trkpt>
      <trkpt lat="47.621202" lon="7.830405">
        <ele>472.144994</ele>
        <time>2021-11-19T22:18:36.387Z</time>
      </trkpt>
      <trkpt lat="47.621427" lon="7.829933">
        <ele>473.632890</ele>
        <time>2021-11-19T22:18:46.990Z</time>
      </trkpt>
      <trkpt lat="47.621534" lon="7.829734">
        <ele>474.288056</ele>
        <time>2021-11-19T22:18:51.817Z</time>
      </trkpt>
      <trkpt lat="47.621800" lon="7.829109">
        <ele>476.190445</ele>
        <time>2021-11-19T22:19:06.766Z</time>
      </trkpt>
      <trkpt lat="47.621973" lon="7.828724">
        <ele>477.381321</ele>
        <time>2021-11-19T22:19:16.629Z</time>
      </trkpt>
      <trkpt lat="47.622611" lon="7.827681">
        <ele>482.980517</ele>
        <time>2021-11-19T22:19:53.157Z</time>
      </trkpt>
      <trkpt lat="47.622929" lon="7.827233">
        <ele>485.714578</ele>
        <time>2021-11-19T22:20:12.397Z</time>
      </trkpt>
      <trkpt lat="47.623357" lon="7.826769">
        <ele>489.019503</ele>
        <time>2021-11-19T22:20:34.870Z</time>
      </trkpt>
      <trkpt lat="47.623651" lon="7.826499">
        <ele>490.779215</ele>
        <time>2021-11-19T22:20:48.778Z</time>
      </trkpt>
      <trkpt lat="47.624085" lon="7.826125">
        <ele>493.311074</ele>
        <time>2021-11-19T22:21:07.600Z</time>
      </trkpt>
      <trkpt lat="47.624738" lon="7.825514">
        <ele>497.205546</ele>
        <time>2021-11-19T22:21:33.902Z</time>
      </trkpt>
      <trkpt lat="47.625432" lon="7.824606">
        <ele>500.278772</ele>
        <time>2021-11-19T22:21:57.385Z</time>
      </trkpt>
      <trkpt lat="47.626017" lon="7.823389">
        <ele>503.170465</ele>
        <time>2021-11-19T22:22:22.882Z</time>
      </trkpt>
      <trkpt lat="47.626214" lon="7.823154">
        <ele>503.933245</ele>
        <time>2021-11-19T22:22:29.784Z</time>
      </trkpt>
      <trkpt lat="47.626961" lon="7.822577">
        <ele>506.511447</ele>
        <time>2021-11-19T22:22:53.955Z</time>
      </trkpt>
      <trkpt lat="47.627230" lon="7.822262">
        <ele>507.560537</ele>
        <time>2021-11-19T22:23:03.231Z</time>
      </trkpt>
      <trkpt lat="47.627436" lon="7.821903">
        <ele>508.533350</ele>
        <time>2021-11-19T22:23:11.470Z</time>
      </trkpt>
      <trkpt lat="47.627644" lon="7.821437">
        <ele>509.222867</ele>
        <time>2021-11-19T22:23:20.947Z</time>
      </trkpt>
      <trkpt lat="47.627725" lon="7.821287">
        <ele>509.401457</ele>
        <time>2021-11-19T22:23:24.054Z</time>
      </trkpt>
      <trkpt lat="47.628068" lon="7.820705">
        <ele>510.119810</ele>
        <time>2021-11-19T22:23:36.206Z</time>
      </trkpt>
      <trkpt lat="47.628223" lon="7.820316">
        <ele>510.539686</ele>
        <time>2021-11-19T22:23:42.947Z</time>
      </trkpt>
      <trkpt lat="47.628382" lon="7.819690">
        <ele>511.161255</ele>
        <time>2021-11-19T22:23:50.344Z</time>
      </trkpt>
      <trkpt lat="47.628652" lon="7.819012">
        <ele>510.076898</ele>
        <time>2021-11-19T22:23:56.795Z</time>
      </trkpt>
      <trkpt lat="47.628903" lon="7.818442">
        <ele>508.694934</ele>
        <time>2021-11-19T22:24:01.901Z</time>
      </trkpt>
      <trkpt lat="47.629046" lon="7.818276">
        <ele>508.148137</ele>
        <time>2021-11-19T22:24:03.746Z</time>
      </trkpt>
      <trkpt lat="47.629850" lon="7.816905">
        <ele>502.311672</ele>
        <time>2021-11-19T22:24:15.305Z</time>
      </trkpt>
      <trkpt lat="47.630743" lon="7.815987">
        <ele>494.181137</ele>
        <time>2021-11-19T22:24:24.811Z</time>
      </trkpt>
      <trkpt lat="47.631021" lon="7.815514">
        <ele>490.897632</ele>
        <time>2021-11-19T22:24:28.530Z</time>
      </trkpt>
      <trkpt lat="47.631083" lon="7.815420">
        <ele>490.179436</ele>
        <time>2021-11-19T22:24:29.313Z</time>
      </trkpt>
      <trkpt lat="47.631227" lon="7.815205">
        <ele>488.524287</ele>
        <time>2021-11-19T22:24:31.098Z</time>
      </trkpt>
      <trkpt lat="47.631677" lon="7.814692">
        <ele>483.926409</ele>
        <time>2021-11-19T22:24:36.082Z</time>
      </trkpt>
      <trkpt lat="47.631707" lon="7.814641">
        <ele>483.556772</ele>
        <time>2021-11-19T22:24:36.468Z</time>
      </trkpt>
      <trkpt lat="47.632099" lon="7.813963">
        <ele>478.678954</ele>
        <time>2021-11-19T22:24:41.829Z</time>
      </trkpt>
      <trkpt lat="47.632179" lon="7.813790">
        <ele>477.578165</ele>
        <time>2021-11-19T22:24:43.050Z</time>
      </trkpt>
      <trkpt lat="47.632515" lon="7.813155">
        <ele>473.755409</ele>
        <time>2021-11-19T22:24:48.052Z</time>
      </trkpt>
      <trkpt lat="47.632573" lon="7.813067">
        <ele>473.172581</ele>
        <time>2021-11-19T22:24:48.767Z</time>
      </trkpt>
      <trkpt lat="47.632601" lon="7.813004">
        <ele>472.815250</ele>
        <time>2021-11-19T22:24:49.205Z</time>
      </trkpt>
      <trkpt lat="47.632790" lon="7.812277">
        <ele>469.125734</ele>
        <time>2021-11-19T22:24:54.021Z</time>
      </trkpt>
      <trkpt lat="47.632845" lon="7.812246">
        <ele>468.712353</ele>
        <time>2021-11-19T22:24:54.556Z</time>
      </trkpt>
      <trkpt lat="47.632938" lon="7.812283">
        <ele>468.035835</ele>
        <time>2021-11-19T22:24:55.375Z</time>
      </trkpt>
      <trkpt lat="47.633151" lon="7.812590">
        <ele>465.949517</ele>
        <time>2021-11-19T22:24:58.100Z</time>
      </trkpt>
      <trkpt lat="47.633391" lon="7.813533">
        <ele>460.660914</ele>
        <time>2021-11-19T22:25:04.173Z</time>
      </trkpt>
      <trkpt lat="47.633759" lon="7.814194">
        <ele>456.085018</ele>
        <time>2021-11-19T22:25:09.181Z</time>
      </trkpt>
      <trkpt lat="47.633899" lon="7.814255">
        <ele>454.929443</ele>
        <time>2021-11-19T22:25:10.519Z</time>
      </trkpt>
      <trkpt lat="47.634025" lon="7.814248">
        <ele>453.930851</ele>
        <time>2021-11-19T22:25:11.611Z</time>
      </trkpt>
      <trkpt lat="47.634267" lon="7.814103">
        <ele>451.863934</ele>
        <time>2021-11-19T22:25:13.974Z</time>
      </trkpt>
      <trkpt lat="47.634603" lon="7.813838">
        <ele>448.904065</ele>
        <time>2021-11-19T22:25:17.351Z</time>
      </trkpt>
      <trkpt lat="47.634638" lon="7.813802">
        <ele>448.575264</ele>
        <time>2021-11-19T22:25:17.709Z</time>
      </trkpt>
      <trkpt lat="47.634810" lon="7.813677">
        <ele>447.096549</ele>
        <time>2021-11-19T22:25:19.423Z</time>
      </trkpt>
      <trkpt lat="47.635241" lon="7.813237">
        <ele>443.057407</ele>
        <time>2021-11-19T22:25:24.023Z</time>
      </trkpt>
      <trkpt lat="47.635461" lon="7.813093">
        <ele>441.200893</ele>
        <time>2021-11-19T22:25:26.164Z</time>
      </trkpt>
      <trkpt lat="47.635537" lon="7.813043">
        <ele>440.559017</ele>
        <time>2021-11-19T22:25:26.903Z</time>
      </trkpt>
      <trkpt lat="47.635617" lon="7.812948">
        <ele>439.767924</ele>
        <time>2021-11-19T22:25:27.804Z</time>
      </trkpt>
      <trkpt lat="47.635678" lon="7.812872">
        <ele>439.152965</ele>
        <time>2021-11-19T22:25:28.525Z</time>
      </trkpt>
      <trkpt lat="47.635984" lon="7.812598">
        <ele>436.405164</ele>
        <time>2021-11-19T22:25:31.729Z</time>
      </trkpt>
      <trkpt lat="47.636234" lon="7.812469">
        <ele>434.395051</ele>
        <time>2021-11-19T22:25:34.122Z</time>
      </trkpt>
      <trkpt lat="47.636362" lon="7.812419">
        <ele>433.389846</ele>
        <time>2021-11-19T22:25:35.326Z</time>
      </trkpt>
      <trkpt lat="47.636514" lon="7.812384">
        <ele>432.221673</ele>
        <time>2021-11-19T22:25:36.685Z</time>
      </trkpt>
      <trkpt lat="47.637056" lon="7.812257">
        <ele>428.054474</ele>
        <time>2021-11-19T22:25:41.603Z</time>
      </trkpt>
      <trkpt lat="47.637370" lon="7.812117">
        <ele>425.564513</ele>
        <time>2021-11-19T22:25:44.508Z</time>
      </trkpt>
      <trkpt lat="47.637893" lon="7.811811">
        <ele>421.359911</ele>
        <time>2021-11-19T22:25:49.389Z</time>
      </trkpt>
      <trkpt lat="47.638511" lon="7.811552">
        <ele>416.630321</ele>
        <time>2021-11-19T22:25:55.104Z</time>
      </trkpt>
      <trkpt lat="47.638925" lon="7.811482">
        <ele>413.561473</ele>
        <time>2021-11-19T22:25:58.809Z</time>
      </trkpt>
      <trkpt lat="47.638925" lon="7.811482">
        <ele>413.561473</ele>
        <time>2021-11-19T22:25:58.819Z</time>
      </trkpt>
      <trkpt lat="47.639195" lon="7.811442">
        <ele>411.563031</ele>
        <time>2021-11-19T22:26:01.276Z</time>
      </trkpt>
      <trkpt lat="47.639796" lon="7.811469">
        <ele>408.602432</ele>
        <time>2021-11-19T22:26:06.858Z</time>
      </trkpt>
      <trkpt lat="47.639913" lon="7.811500">
        <ele>408.147054</ele>
        <time>2021-11-19T22:26:07.961Z</time>
      </trkpt>
      <trkpt lat="47.640114" lon="7.811584">
        <ele>407.346965</ele>
        <time>2021-11-19T22:26:09.994Z</time>
      </trkpt>
      <trkpt lat="47.640311" lon="7.811772">
        <ele>406.449577</ele>
        <time>2021-11-19T22:26:12.309Z</time>
      </trkpt>
      <trkpt lat="47.640406" lon="7.811979">
        <ele>405.802992</ele>
        <time>2021-11-19T22:26:14.067Z</time>
      </trkpt>
      <trkpt lat="47.640965" lon="7.814694">
        <ele>399.259149</ele>
        <time>2021-11-19T22:26:34.600Z</time>
      </trkpt>
      <trkpt lat="47.641246" lon="7.815390">
        <ele>397.470172</ele>
        <time>2021-11-19T22:26:39.892Z</time>
      </trkpt>
      <trkpt lat="47.641404" lon="7.815775">
        <ele>395.209186</ele>
        <time>2021-11-19T22:26:42.681Z</time>
      </trkpt>
      <trkpt lat="47.641514" lon="7.816229">
        <ele>392.789375</ele>
        <time>2021-11-19T22:26:45.585Z</time>
      </trkpt>
      <trkpt lat="47.641687" lon="7.816751">
        <ele>389.871680</ele>
        <time>2021-11-19T22:26:49.046Z</time>
      </trkpt>
      <trkpt lat="47.641819" lon="7.816919">
        <ele>388.577265</ele>
        <time>2021-11-19T22:26:50.558Z</time>
      </trkpt>
      <trkpt lat="47.641916" lon="7.816921">
        <ele>387.855125</ele>
        <time>2021-11-19T22:26:51.405Z</time>
      </trkpt>
      <trkpt lat="47.642138" lon="7.816906">
        <ele>386.200841</ele>
        <time>2021-11-19T22:26:53.345Z</time>
      </trkpt>
      <trkpt lat="47.642758" lon="7.816795">
        <ele>381.992465</ele>
        <time>2021-11-19T22:26:58.822Z</time>
      </trkpt>
      <trkpt lat="47.642952" lon="7.816765">
        <ele>380.787351</ele>
        <time>2021-11-19T22:27:00.541Z</time>
      </trkpt>
      <trkpt lat="47.643638" lon="7.816626">
        <ele>376.509596</ele>
        <time>2021-11-19T22:27:06.773Z</time>
      </trkpt>
      <trkpt lat="47.643909" lon="7.816574">
        <ele>374.821292</ele>
        <time>2021-11-19T22:27:09.384Z</time>
      </trkpt>
      <trkpt lat="47.644357" lon="7.816478">
        <ele>372.831529</ele>
        <time>2021-11-19T22:27:13.970Z</time>
      </trkpt>
      <trkpt lat="47.644797" lon="7.816399">
        <ele>372.291994</ele>
        <time>2021-11-19T22:27:19.109Z</time>
      </trkpt>
      <trkpt lat="47.644927" lon="7.816376">
        <ele>372.132620</ele>
        <time>2021-11-19T22:27:20.707Z</time>
      </trkpt>
      <trkpt lat="47.645154" lon="7.816347">
        <ele>371.855261</ele>
        <time>2021-11-19T22:27:23.576Z</time>
      </trkpt>
      <trkpt lat="47.645328" lon="7.816364">
        <ele>371.642986</ele>
        <time>2021-11-19T22:27:25.876Z</time>
      </trkpt>
      <trkpt lat="47.645421" lon="7.816394">
        <ele>371.527130</ele>
        <time>2021-11-19T22:27:27.161Z</time>
      </trkpt>
      <trkpt lat="47.645433" lon="7.816418">
        <ele>371.502618</ele>
        <time>2021-11-19T22:27:27.442Z</time>
      </trkpt>
      <trkpt lat="47.645449" lon="7.816438">
        <ele>371.477154</ele>
        <time>2021-11-19T22:27:27.728Z</time>
      </trkpt>
      <trkpt lat="47.645479" lon="7.816460">
        <ele>371.436420</ele>
        <time>2021-11-19T22:27:28.191Z</time>
      </trkpt>
      <trkpt lat="47.645574" lon="7.816439">
        <ele>371.319497</ele>
        <time>2021-11-19T22:27:29.514Z</time>
      </trkpt>
      <trkpt lat="47.645598" lon="7.816405">
        <ele>371.279109</ele>
        <time>2021-11-19T22:27:29.985Z</time>
      </trkpt>
      <trkpt lat="47.645612" lon="7.816369">
        <ele>371.245018</ele>
        <time>2021-11-19T22:27:30.373Z</time>
      </trkpt>
      <trkpt lat="47.645701" lon="7.816302">
        <ele>371.123537</ele>
        <time>2021-11-19T22:27:31.739Z</time>
      </trkpt>
      <trkpt lat="47.645797" lon="7.816274">
        <ele>371.004437</ele>
        <time>2021-11-19T22:27:33.103Z</time>
      </trkpt>
      <trkpt lat="47.645844" lon="7.816242">
        <ele>370.941490</ele>
        <time>2021-11-19T22:27:33.814Z</time>
      </trkpt>
      <trkpt lat="47.645949" lon="7.816228">
        <ele>370.837773</ele>
        <time>2021-11-19T22:27:35.321Z</time>
      </trkpt>
      <trkpt lat="47.646346" lon="7.816173">
        <ele>370.798199</ele>
        <time>2021-11-19T22:27:41.129Z</time>
      </trkpt>
      <trkpt lat="47.646609" lon="7.816150">
        <ele>370.772051</ele>
        <time>2021-11-19T22:27:44.919Z</time>
      </trkpt>
      <trkpt lat="47.646940" lon="7.816087">
        <ele>370.738930</ele>
        <time>2021-11-19T22:27:49.609Z</time>
      </trkpt>
      <trkpt lat="47.647306" lon="7.815996">
        <ele>370.702098</ele>
        <time>2021-11-19T22:27:54.860Z</time>
      </trkpt>
      <trkpt lat="47.647662" lon="7.815885">
        <ele>370.665993</ele>
        <time>2021-11-19T22:28:00.318Z</time>
      </trkpt>
      <trkpt lat="47.647716" lon="7.815862">
        <ele>370.664241</ele>
        <time>2021-11-19T22:28:01.208Z</time>
      </trkpt>
      <trkpt lat="47.647785" lon="7.815818">
        <ele>370.684628</ele>
        <time>2021-11-19T22:28:02.372Z</time>
      </trkpt>
      <trkpt lat="47.647894" lon="7.815775">
        <ele>370.715247</ele>
        <time>2021-11-19T22:28:04.078Z</time>
      </trkpt>
      <trkpt lat="47.647965" lon="7.815741">
        <ele>370.735500</ele>
        <time>2021-11-19T22:28:05.253Z</time>
      </trkpt>
      <trkpt lat="47.648042" lon="7.815683">
        <ele>370.758942</ele>
        <time>2021-11-19T22:28:06.644Z</time>
      </trkpt>
      <trkpt lat="47.648065" lon="7.815705">
        <ele>370.766370</ele>
        <time>2021-11-19T22:28:07.040Z</time>
      </trkpt>
      <trkpt lat="47.648144" lon="7.815719">
        <ele>370.787969</ele>
        <time>2021-11-19T22:28:08.309Z</time>
      </trkpt>
      <trkpt lat="47.648170" lon="7.815706">
        <ele>370.795417</ele>
        <time>2021-11-19T22:28:08.689Z</time>
      </trkpt>
      <trkpt lat="47.648257" lon="7.815774">
        <ele>370.822110</ele>
        <time>2021-11-19T22:28:10.232Z</time>
      </trkpt>
      <trkpt lat="47.648299" lon="7.815806">
        <ele>370.834927</ele>
        <time>2021-11-19T22:28:10.993Z</time>
      </trkpt>
      <trkpt lat="47.648460" lon="7.816084">
        <ele>370.901975</ele>
        <time>2021-11-19T22:28:14.758Z</time>
      </trkpt>
      <trkpt lat="47.648601" lon="7.816406">
        <ele>370.972213</ele>
        <time>2021-11-19T22:28:19.028Z</time>
      </trkpt>
      <trkpt lat="47.648715" lon="7.816710">
        <ele>371.035845</ele>
        <time>2021-11-19T22:28:22.834Z</time>
      </trkpt>
      <trkpt lat="47.648734" lon="7.816774">
        <ele>371.048636</ele>
        <time>2021-11-19T22:28:23.645Z</time>
      </trkpt>
      <trkpt lat="47.648907" lon="7.817325">
        <ele>371.175362</ele>
        <time>2021-11-19T22:28:30.391Z</time>
      </trkpt>
      <trkpt lat="47.649039" lon="7.817840">
        <ele>371.431602</ele>
        <time>2021-11-19T22:28:36.700Z</time>
      </trkpt>
      <trkpt lat="47.649051" lon="7.817919">
        <ele>371.469261</ele>
        <time>2021-11-19T22:28:37.523Z</time>
      </trkpt>
      <trkpt lat="47.649066" lon="7.818016">
        <ele>371.515543</ele>
        <time>2021-11-19T22:28:38.646Z</time>
      </trkpt>
      <trkpt lat="47.649107" lon="7.818248">
        <ele>371.627080</ele>
        <time>2021-11-19T22:28:41.496Z</time>
      </trkpt>
      <trkpt lat="47.649130" lon="7.818388">
        <ele>371.694093</ele>
        <time>2021-11-19T22:28:43.167Z</time>
      </trkpt>
      <trkpt lat="47.649183" lon="7.818814">
        <ele>371.895546</ele>
        <time>2021-11-19T22:28:48.287Z</time>
      </trkpt>
      <trkpt lat="47.649190" lon="7.818874">
        <ele>371.923863</ele>
        <time>2021-11-19T22:28:49.021Z</time>
      </trkpt>
      <trkpt lat="47.649291" lon="7.819778">
        <ele>372.349992</ele>
        <time>2021-11-19T22:29:00.086Z</time>
      </trkpt>
      <trkpt lat="47.649334" lon="7.820073">
        <ele>372.481909</ele>
        <time>2021-11-19T22:29:03.798Z</time>
      </trkpt>
      <trkpt lat="47.649362" lon="7.820171">
        <ele>372.527191</ele>
        <time>2021-11-19T22:29:05.615Z</time>
      </trkpt>
      <trkpt lat="47.649395" lon="7.820289">
        <ele>372.581540</ele>
        <time>2021-11-19T22:29:07.800Z</time>
      </trkpt>
      <trkpt lat="47.649426" lon="7.820396">
        <ele>372.631087</ele>
        <time>2021-11-19T22:29:09.701Z</time>
      </trkpt>
      <trkpt lat="47.649484" lon="7.820580">
        <ele>372.717502</ele>
        <time>2021-11-19T22:29:13.184Z</time>
      </trkpt>
      <trkpt lat="47.649728" lon="7.821232">
        <ele>373.034775</ele>
        <time>2021-11-19T22:29:25.302Z</time>
      </trkpt>
      <trkpt lat="47.649921" lon="7.821701">
        <ele>373.268557</ele>
        <time>2021-11-19T22:29:33.286Z</time>
      </trkpt>
      <trkpt lat="47.650014" lon="7.821990">
        <ele>373.404798</ele>
        <time>2021-11-19T22:29:37.686Z</time>
      </trkpt>
      <trkpt lat="47.650051" lon="7.822186">
        <ele>373.491385</ele>
        <time>2021-11-19T22:29:40.572Z</time>
      </trkpt>
      <trkpt lat="47.650127" lon="7.822807">
        <ele>373.495191</ele>
        <time>2021-11-19T22:29:49.492Z</time>
      </trkpt>
      <trkpt lat="47.650206" lon="7.823190">
        <ele>373.471847</ele>
        <time>2021-11-19T22:29:54.879Z</time>
      </trkpt>
      <trkpt lat="47.650224" lon="7.823253">
        <ele>373.467859</ele>
        <time>2021-11-19T22:29:55.904Z</time>
      </trkpt>
      <trkpt lat="47.650269" lon="7.823413">
        <ele>373.457755</ele>
        <time>2021-11-19T22:29:58.532Z</time>
      </trkpt>
      <trkpt lat="47.650368" lon="7.823542">
        <ele>373.446358</ele>
        <time>2021-11-19T22:30:00.944Z</time>
      </trkpt>
      <trkpt lat="47.650610" lon="7.823497">
        <ele>373.425259</ele>
        <time>2021-11-19T22:30:06.233Z</time>
      </trkpt>
      <trkpt lat="47.650952" lon="7.823452">
        <ele>373.395556</ele>
        <time>2021-11-19T22:30:12.859Z</time>
      </trkpt>
      <trkpt lat="47.651083" lon="7.823437">
        <ele>373.384189</ele>
        <time>2021-11-19T22:30:15.008Z</time>
      </trkpt>
      <trkpt lat="47.651188" lon="7.823521">
        <ele>373.373870</ele>
        <time>2021-11-19T22:30:17.263Z</time>
      </trkpt>
      <trkpt lat="47.651424" lon="7.824011">
        <ele>373.398804</ele>
        <time>2021-11-19T22:30:22.413Z</time>
      </trkpt>
      <trkpt lat="47.651700" lon="7.824581">
        <ele>373.432974</ele>
        <time>2021-11-19T22:30:29.345Z</time>
      </trkpt>
      <trkpt lat="47.651748" lon="7.824704">
        <ele>373.439893</ele>
        <time>2021-11-19T22:30:30.610Z</time>
      </trkpt>
      <trkpt lat="47.651735" lon="7.824721">
        <ele>373.441145</ele>
        <time>2021-11-19T22:30:30.909Z</time>
      </trkpt>
      <trkpt lat="47.651725" lon="7.824741">
        <ele>373.442358</ele>
        <time>2021-11-19T22:30:31.192Z</time>
      </trkpt>
      <trkpt lat="47.651712" lon="7.824812">
        <ele>373.445939</ele>
        <time>2021-11-19T22:30:32.045Z</time>
      </trkpt>
      <trkpt lat="47.651715" lon="7.824847">
        <ele>373.447656</ele>
        <time>2021-11-19T22:30:32.447Z</time>
      </trkpt>
      <trkpt lat="47.651720" lon="7.824865">
        <ele>373.448604</ele>
        <time>2021-11-19T22:30:32.609Z</time>
      </trkpt>
      <trkpt lat="47.651777" lon="7.824939">
        <ele>373.454076</ele>
        <time>2021-11-19T22:30:34.025Z</time>
      </trkpt>
      <trkpt lat="47.651852" lon="7.824922">
        <ele>373.459558</ele>
        <time>2021-11-19T22:30:35.406Z</time>
      </trkpt>
      <trkpt lat="47.651867" lon="7.824904">
        <ele>373.460952</ele>
        <time>2021-11-19T22:30:35.650Z</time>
      </trkpt>
      <trkpt lat="47.651910" lon="7.824975">
        <ele>373.465599</ele>
        <time>2021-11-19T22:30:36.552Z</time>
      </trkpt>
      <trkpt lat="47.652129" lon="7.825338">
        <ele>373.489319</ele>
        <time>2021-11-19T22:30:42.372Z</time>
      </trkpt>
      <trkpt lat="47.652752" lon="7.826545">
        <ele>374.276121</ele>
        <time>2021-11-19T22:31:00.007Z</time>
      </trkpt>
      <trkpt lat="47.652860" lon="7.826738">
        <ele>374.428999</ele>
        <time>2021-11-19T22:31:02.834Z</time>
      </trkpt>
      <trkpt lat="47.652994" lon="7.826927">
        <ele>374.596188</ele>
        <time>2021-11-19T22:31:06.446Z</time>
      </trkpt>
      <trkpt lat="47.653183" lon="7.827196">
        <ele>374.833020</ele>
        <time>2021-11-19T22:31:11.695Z</time>
      </trkpt>
      <trkpt lat="47.653415" lon="7.827515">
        <ele>375.119052</ele>
        <time>2021-11-19T22:31:18.023Z</time>
      </trkpt>
      <trkpt lat="47.653907" lon="7.828156">
        <ele>376.021539</ele>
        <time>2021-11-19T22:31:31.422Z</time>
      </trkpt>
      <trkpt lat="47.654070" lon="7.828370">
        <ele>376.323184</ele>
        <time>2021-11-19T22:31:35.942Z</time>
      </trkpt>
      <trkpt lat="47.654075" lon="7.828375">
        <ele>376.331541</ele>
        <time>2021-11-19T22:31:36.061Z</time>
      </trkpt>
      <trkpt lat="47.654190" lon="7.828544">
        <ele>376.555859</ele>
        <time>2021-11-19T22:31:39.242Z</time>
      </trkpt>
      <trkpt lat="47.654262" lon="7.828656">
        <ele>376.700427</ele>
        <time>2021-11-19T22:31:41.368Z</time>
      </trkpt>
      <trkpt lat="47.654358" lon="7.828807">
        <ele>376.894313</ele>
        <time>2021-11-19T22:31:44.206Z</time>
      </trkpt>
      <trkpt lat="47.654444" lon="7.828940">
        <ele>377.066466</ele>
        <time>2021-11-19T22:31:46.651Z</time>
      </trkpt>
      <trkpt lat="47.654588" lon="7.829170">
        <ele>377.359680</ele>
        <time>2021-11-19T22:31:51.054Z</time>
      </trkpt>
      <trkpt lat="47.654726" lon="7.829362">
        <ele>377.621873</ele>
        <time>2021-11-19T22:31:54.932Z</time>
      </trkpt>
      <trkpt lat="47.654782" lon="7.829439">
        <ele>377.736019</ele>
        <time>2021-11-19T22:31:56.585Z</time>
      </trkpt>
      <trkpt lat="47.654883" lon="7.829540">
        <ele>377.918129</ele>
        <time>2021-11-19T22:31:59.143Z</time>
      </trkpt>
      <trkpt lat="47.654985" lon="7.829643">
        <ele>378.102606</ele>
        <time>2021-11-19T22:32:01.692Z</time>
      </trkpt>
      <trkpt lat="47.655209" lon="7.829806">
        <ele>378.475660</ele>
        <time>2021-11-19T22:32:07.015Z</time>
      </trkpt>
      <trkpt lat="47.655222" lon="7.829815">
        <ele>378.497111</ele>
        <time>2021-11-19T22:32:07.319Z</time>
      </trkpt>
      <trkpt lat="47.655374" lon="7.829968">
        <ele>378.771740</ele>
        <time>2021-11-19T22:32:11.172Z</time>
      </trkpt>
      <trkpt lat="47.655408" lon="7.830008">
        <ele>378.836614</ele>
        <time>2021-11-19T22:32:12.124Z</time>
      </trkpt>
      <trkpt lat="47.655408" lon="7.830008">
        <ele>378.836614</ele>
        <time>2021-11-19T22:32:12.143Z</time>
      </trkpt>
      <trkpt lat="47.655442" lon="7.830047">
        <ele>378.900868</ele>
        <time>2021-11-19T22:32:13.052Z</time>
      </trkpt>
      <trkpt lat="47.655515" lon="7.830187">
        <ele>379.079207</ele>
        <time>2021-11-19T22:32:15.599Z</time>
      </trkpt>
      <trkpt lat="47.655554" lon="7.830341">
        <ele>379.244934</ele>
        <time>2021-11-19T22:32:17.926Z</time>
      </trkpt>
      <trkpt lat="47.655653" lon="7.830727">
        <ele>379.660986</ele>
        <time>2021-11-19T22:32:23.955Z</time>
      </trkpt>
      <trkpt lat="47.655840" lon="7.831150">
        <ele>380.170647</ele>
        <time>2021-11-19T22:32:30.996Z</time>
      </trkpt>
      <trkpt lat="47.656104" lon="7.831597">
        <ele>380.680528</ele>
        <time>2021-11-19T22:32:38.719Z</time>
      </trkpt>
      <trkpt lat="47.656204" lon="7.831766">
        <ele>380.863109</ele>
        <time>2021-11-19T22:32:41.677Z</time>
      </trkpt>
      <trkpt lat="47.656353" lon="7.831972">
        <ele>381.108450</ele>
        <time>2021-11-19T22:32:45.549Z</time>
      </trkpt>
      <trkpt lat="47.656381" lon="7.832009">
        <ele>381.153619</ele>
        <time>2021-11-19T22:32:46.270Z</time>
      </trkpt>
      <trkpt lat="47.656646" lon="7.832178">
        <ele>381.501156</ele>
        <time>2021-11-19T22:32:51.823Z</time>
      </trkpt>
      <trkpt lat="47.656858" lon="7.832309">
        <ele>381.777858</ele>
        <time>2021-11-19T22:32:56.527Z</time>
      </trkpt>
      <trkpt lat="47.656918" lon="7.832343">
        <ele>381.855246</ele>
        <time>2021-11-19T22:32:57.776Z</time>
      </trkpt>
      <trkpt lat="47.657265" lon="7.832541">
        <ele>382.303197</ele>
        <time>2021-11-19T22:33:05.161Z</time>
      </trkpt>
      <trkpt lat="47.657510" lon="7.832688">
        <ele>382.587689</ele>
        <time>2021-11-19T22:33:10.345Z</time>
      </trkpt>
      <trkpt lat="47.657731" lon="7.832916">
        <ele>382.834914</ele>
        <time>2021-11-19T22:33:15.378Z</time>
      </trkpt>
      <trkpt lat="47.657918" lon="7.833307">
        <ele>383.131634</ele>
        <time>2021-11-19T22:33:21.250Z</time>
      </trkpt>
      <trkpt lat="47.657971" lon="7.833428">
        <ele>383.220943</ele>
        <time>2021-11-19T22:33:23.099Z</time>
      </trkpt>
      <trkpt lat="47.658041" lon="7.833588">
        <ele>383.338995</ele>
        <time>2021-11-19T22:33:25.368Z</time>
      </trkpt>
      <trkpt lat="47.658080" lon="7.833668">
        <ele>383.400101</ele>
        <time>2021-11-19T22:33:26.645Z</time>
      </trkpt>
      <trkpt lat="47.658206" lon="7.833785">
        <ele>383.536625</ele>
        <time>2021-11-19T22:33:29.275Z</time>
      </trkpt>
      <trkpt lat="47.658404" lon="7.833911">
        <ele>383.734520</ele>
        <time>2021-11-19T22:33:33.211Z</time>
      </trkpt>
      <trkpt lat="47.658531" lon="7.833970">
        <ele>383.856766</ele>
        <time>2021-11-19T22:33:35.598Z</time>
      </trkpt>
      <trkpt lat="47.658687" lon="7.834028">
        <ele>384.004500</ele>
        <time>2021-11-19T22:33:38.517Z</time>
      </trkpt>
      <trkpt lat="47.658899" lon="7.834108">
        <ele>384.200463</ele>
        <time>2021-11-19T22:33:42.531Z</time>
      </trkpt>
      <trkpt lat="47.658993" lon="7.834108">
        <ele>384.281025</ele>
        <time>2021-11-19T22:33:44.199Z</time>
      </trkpt>
      <trkpt lat="47.659242" lon="7.834106">
        <ele>384.494432</ele>
        <time>2021-11-19T22:33:48.712Z</time>
      </trkpt>
      <trkpt lat="47.659432" lon="7.834106">
        <ele>384.657270</ele>
        <time>2021-11-19T22:33:52.164Z</time>
      </trkpt>
      <trkpt lat="47.659461" lon="7.834102">
        <ele>384.682231</ele>
        <time>2021-11-19T22:33:52.721Z</time>
      </trkpt>
      <trkpt lat="47.659633" lon="7.834077">
        <ele>384.830347</ele>
        <time>2021-11-19T22:33:55.685Z</time>
      </trkpt>
      <trkpt lat="47.659714" lon="7.834064">
        <ele>384.900172</ele>
        <time>2021-11-19T22:33:57.072Z</time>
      </trkpt>
      <trkpt lat="47.659735" lon="7.834061">
        <ele>384.918253</ele>
        <time>2021-11-19T22:33:57.458Z</time>
      </trkpt>
      <trkpt lat="47.659852" lon="7.834084">
        <ele>385.019403</ele>
        <time>2021-11-19T22:33:59.488Z</time>
      </trkpt>
      <trkpt lat="47.659990" lon="7.834167">
        <ele>385.147010</ele>
        <time>2021-11-19T22:34:02.174Z</time>
      </trkpt>
      <trkpt lat="47.660216" lon="7.834301">
        <ele>385.355576</ele>
        <time>2021-11-19T22:34:06.502Z</time>
      </trkpt>
      <trkpt lat="47.660300" lon="7.834365">
        <ele>385.436493</ele>
        <time>2021-11-19T22:34:08.404Z</time>
      </trkpt>
      <trkpt lat="47.660855" lon="7.834724">
        <ele>386.127436</ele>
        <time>2021-11-19T22:34:20.019Z</time>
      </trkpt>
      <trkpt lat="47.660968" lon="7.834797">
        <ele>386.297358</ele>
        <time>2021-11-19T22:34:22.758Z</time>
      </trkpt>
      <trkpt lat="47.661464" lon="7.835156">
        <ele>387.058211</ele>
        <time>2021-11-19T22:34:33.789Z</time>
      </trkpt>
      <trkpt lat="47.661488" lon="7.835209">
        <ele>387.117522</ele>
        <time>2021-11-19T22:34:34.647Z</time>
      </trkpt>
      <trkpt lat="47.661534" lon="7.835353">
        <ele>387.265531</ele>
        <time>2021-11-19T22:34:37.112Z</time>
      </trkpt>
      <trkpt lat="47.661603" lon="7.835641">
        <ele>387.549408</ele>
        <time>2021-11-19T22:34:41.192Z</time>
      </trkpt>
      <trkpt lat="47.661745" lon="7.835965">
        <ele>387.908397</ele>
        <time>2021-11-19T22:34:46.696Z</time>
      </trkpt>
      <trkpt lat="47.661816" lon="7.836129">
        <ele>388.089450</ele>
        <time>2021-11-19T22:34:49.435Z</time>
      </trkpt>
      <trkpt lat="47.661824" lon="7.836169">
        <ele>388.128200</ele>
        <time>2021-11-19T22:34:50.098Z</time>
      </trkpt>
      <trkpt lat="47.661824" lon="7.836203">
        <ele>388.159481</ele>
        <time>2021-11-19T22:34:50.632Z</time>
      </trkpt>
      <trkpt lat="47.661824" lon="7.836259">
        <ele>388.209303</ele>
        <time>2021-11-19T22:34:51.612Z</time>
      </trkpt>
      <trkpt lat="47.661497" lon="7.837504">
        <ele>389.398220</ele>
        <time>2021-11-19T22:35:10.231Z</time>
      </trkpt>
      <trkpt lat="47.661452" lon="7.837714">
        <ele>389.594285</ele>
        <time>2021-11-19T22:35:13.329Z</time>
      </trkpt>
      <trkpt lat="47.661437" lon="7.837781">
        <ele>389.657102</ele>
        <time>2021-11-19T22:35:14.465Z</time>
      </trkpt>
      <trkpt lat="47.661405" lon="7.837779">
        <ele>389.699411</ele>
        <time>2021-11-19T22:35:15.123Z</time>
      </trkpt>
      <trkpt lat="47.661347" lon="7.837817">
        <ele>389.783155</ele>
        <time>2021-11-19T22:35:16.241Z</time>
      </trkpt>
      <trkpt lat="47.661326" lon="7.837853">
        <ele>389.825528</ele>
        <time>2021-11-19T22:35:16.797Z</time>
      </trkpt>
      <trkpt lat="47.661313" lon="7.837897">
        <ele>389.868276</ele>
        <time>2021-11-19T22:35:17.437Z</time>
      </trkpt>
      <trkpt lat="47.661328" lon="7.838007">
        <ele>389.968128</ele>
        <time>2021-11-19T22:35:18.912Z</time>
      </trkpt>
      <trkpt lat="47.661332" lon="7.838033">
        <ele>389.991856</ele>
        <time>2021-11-19T22:35:19.265Z</time>
      </trkpt>
      <trkpt lat="47.661355" lon="7.838066">
        <ele>390.034107</ele>
        <time>2021-11-19T22:35:19.944Z</time>
      </trkpt>
      <trkpt lat="47.661387" lon="7.838089">
        <ele>390.081071</ele>
        <time>2021-11-19T22:35:20.713Z</time>
      </trkpt>
      <trkpt lat="47.661422" lon="7.838095">
        <ele>390.127613</ele>
        <time>2021-11-19T22:35:21.534Z</time>
      </trkpt>
      <trkpt lat="47.661457" lon="7.838084">
        <ele>390.174872</ele>
        <time>2021-11-19T22:35:22.238Z</time>
      </trkpt>
      <trkpt lat="47.661487" lon="7.838057">
        <ele>390.221213</ele>
        <time>2021-11-19T22:35:22.825Z</time>
      </trkpt>
      <trkpt lat="47.661509" lon="7.838016">
        <ele>390.267852</ele>
        <time>2021-11-19T22:35:23.429Z</time>
      </trkpt>
      <trkpt lat="47.661522" lon="7.837967">
        <ele>390.314708</ele>
        <time>2021-11-19T22:35:24.037Z</time>
      </trkpt>
      <trkpt lat="47.661603" lon="7.837979">
        <ele>390.422239</ele>
        <time>2021-11-19T22:35:25.591Z</time>
      </trkpt>
      <trkpt lat="47.661684" lon="7.837994">
        <ele>390.528949</ele>
        <time>2021-11-19T22:35:27.190Z</time>
      </trkpt>
      <trkpt lat="47.661749" lon="7.838001">
        <ele>390.542515</ele>
        <time>2021-11-19T22:35:28.496Z</time>
      </trkpt>
      <trkpt lat="47.662429" lon="7.838073">
        <ele>390.684424</ele>
        <time>2021-11-19T22:35:40.258Z</time>
      </trkpt>
      <trkpt lat="47.662483" lon="7.838090">
        <ele>390.695914</ele>
        <time>2021-11-19T22:35:41.268Z</time>
      </trkpt>
      <trkpt lat="47.662658" lon="7.838144">
        <ele>390.733121</ele>
        <time>2021-11-19T22:35:43.860Z</time>
      </trkpt>
      <trkpt lat="47.663000" lon="7.838251">
        <ele>390.805875</ele>
        <time>2021-11-19T22:35:48.838Z</time>
      </trkpt>
      <trkpt lat="47.663261" lon="7.838349">
        <ele>390.861915</ele>
        <time>2021-11-19T22:35:52.509Z</time>
      </trkpt>
      <trkpt lat="47.664640" lon="7.838771">
        <ele>390.517254</ele>
        <time>2021-11-19T22:36:11.386Z</time>
      </trkpt>
      <trkpt lat="47.665225" lon="7.838833">
        <ele>390.330197</ele>
        <time>2021-11-19T22:36:19.245Z</time>
      </trkpt>
      <trkpt lat="47.666547" lon="7.839224">
        <ele>390.760102</ele>
        <time>2021-11-19T22:36:41.823Z</time>
      </trkpt>
      <trkpt lat="47.666858" lon="7.839350">
        <ele>390.863258</ele>
        <time>2021-11-19T22:36:47.091Z</time>
      </trkpt>
      <trkpt lat="47.667237" lon="7.839925">
        <ele>390.965887</ele>
        <time>2021-11-19T22:36:55.549Z</time>
      </trkpt>
      <trkpt lat="47.667349" lon="7.840185">
        <ele>390.996640</ele>
        <time>2021-11-19T22:36:59.029Z</time>
      </trkpt>
      <trkpt lat="47.667418" lon="7.840394">
        <ele>391.019832</ele>
        <time>2021-11-19T22:37:01.362Z</time>
      </trkpt>
      <trkpt lat="47.667481" lon="7.840513">
        <ele>391.034915</ele>
        <time>2021-11-19T22:37:03.078Z</time>
      </trkpt>
      <trkpt lat="47.667557" lon="7.840605">
        <ele>391.049423</ele>
        <time>2021-11-19T22:37:04.667Z</time>
      </trkpt>
      <trkpt lat="47.667775" lon="7.840353">
        <ele>391.090299</ele>
        <time>2021-11-19T22:37:08.790Z</time>
      </trkpt>
      <trkpt lat="47.667849" lon="7.840278">
        <ele>391.103555</ele>
        <time>2021-11-19T22:37:10.191Z</time>
      </trkpt>
      <trkpt lat="47.668017" lon="7.840123">
        <ele>391.132819</ele>
        <time>2021-11-19T22:37:12.979Z</time>
      </trkpt>
      <trkpt lat="47.668277" lon="7.839973">
        <ele>391.174584</ele>
        <time>2021-11-19T22:37:17.056Z</time>
      </trkpt>
      <trkpt lat="47.668503" lon="7.839859">
        <ele>391.215855</ele>
        <time>2021-11-19T22:37:20.644Z</time>
      </trkpt>
      <trkpt lat="47.668742" lon="7.839785">
        <ele>391.258070</ele>
        <time>2021-11-19T22:37:24.049Z</time>
      </trkpt>
      <trkpt lat="47.668951" lon="7.839749">
        <ele>391.294451</ele>
        <time>2021-11-19T22:37:27.092Z</time>
      </trkpt>
      <trkpt lat="47.669145" lon="7.839725">
        <ele>391.328112</ele>
        <time>2021-11-19T22:37:29.852Z</time>
      </trkpt>
      <trkpt lat="47.669342" lon="7.839732">
        <ele>391.362186</ele>
        <time>2021-11-19T22:37:32.990Z</time>
      </trkpt>
      <trkpt lat="47.669504" lon="7.839746">
        <ele>391.390245</ele>
        <time>2021-11-19T22:37:35.575Z</time>
      </trkpt>
      <trkpt lat="47.670095" lon="7.839887">
        <ele>391.536809</ele>
        <time>2021-11-19T22:37:45.712Z</time>
      </trkpt>
      <trkpt lat="47.670198" lon="7.839918">
        <ele>391.622555</ele>
        <time>2021-11-19T22:37:47.459Z</time>
      </trkpt>
      <trkpt lat="47.670329" lon="7.839958">
        <ele>391.731673</ele>
        <time>2021-11-19T22:37:49.840Z</time>
      </trkpt>
      <trkpt lat="47.671099" lon="7.840326">
        <ele>392.391643</ele>
        <time>2021-11-19T22:38:04.106Z</time>
      </trkpt>
      <trkpt lat="47.673448" lon="7.841874">
        <ele>395.157854</ele>
        <time>2021-11-19T22:38:53.259Z</time>
      </trkpt>
      <trkpt lat="47.673479" lon="7.841894">
        <ele>395.206054</ele>
        <time>2021-11-19T22:38:54.597Z</time>
      </trkpt>
      <trkpt lat="47.675580" lon="7.843077">
        <ele>398.568561</ele>
        <time>2021-11-19T22:39:40.757Z</time>
      </trkpt>
      <trkpt lat="47.676217" lon="7.843482">
        <ele>399.749185</ele>
        <time>2021-11-19T22:39:55.728Z</time>
      </trkpt>
      <trkpt lat="47.676707" lon="7.843807">
        <ele>400.663481</ele>
        <time>2021-11-19T22:40:07.923Z</time>
      </trkpt>
      <trkpt lat="47.676955" lon="7.843987">
        <ele>401.079805</ele>
        <time>2021-11-19T22:40:14.399Z</time>
      </trkpt>
      <trkpt lat="47.677265" lon="7.844281">
        <ele>401.634559</ele>
        <time>2021-11-19T22:40:22.838Z</time>
      </trkpt>
      <trkpt lat="47.677760" lon="7.845024">
        <ele>402.696020</ele>
        <time>2021-11-19T22:40:37.776Z</time>
      </trkpt>
      <trkpt lat="47.677882" lon="7.845190">
        <ele>402.945572</ele>
        <time>2021-11-19T22:40:41.538Z</time>
      </trkpt>
      <trkpt lat="47.678030" lon="7.845350">
        <ele>403.221666</ele>
        <time>2021-11-19T22:40:44.910Z</time>
      </trkpt>
      <trkpt lat="47.678288" lon="7.845521">
        <ele>403.299884</ele>
        <time>2021-11-19T22:40:49.767Z</time>
      </trkpt>
      <trkpt lat="47.678498" lon="7.845590">
        <ele>403.209305</ele>
        <time>2021-11-19T22:40:52.999Z</time>
      </trkpt>
      <trkpt lat="47.679308" lon="7.845804">
        <ele>402.862821</ele>
        <time>2021-11-19T22:41:03.589Z</time>
      </trkpt>
      <trkpt lat="47.679502" lon="7.845853">
        <ele>402.779945</ele>
        <time>2021-11-19T22:41:05.936Z</time>
      </trkpt>
      <trkpt lat="47.679620" lon="7.845305">
        <ele>402.617239</ele>
        <time>2021-11-19T22:41:10.629Z</time>
      </trkpt>
      <trkpt lat="47.679662" lon="7.845129">
        <ele>402.579302</ele>
        <time>2021-11-19T22:41:12.147Z</time>
      </trkpt>
      <trkpt lat="47.679678" lon="7.845046">
        <ele>402.561761</ele>
        <time>2021-11-19T22:41:12.857Z</time>
      </trkpt>
      <trkpt lat="47.679758" lon="7.844433">
        <ele>402.434901</ele>
        <time>2021-11-19T22:41:18.182Z</time>
      </trkpt>
      <trkpt lat="47.679763" lon="7.844400">
        <ele>402.428028</ele>
        <time>2021-11-19T22:41:18.495Z</time>
      </trkpt>
      <trkpt lat="47.679766" lon="7.844373">
        <ele>402.422469</ele>
        <time>2021-11-19T22:41:18.770Z</time>
      </trkpt>
      <trkpt lat="47.679804" lon="7.844243">
        <ele>402.393675</ele>
        <time>2021-11-19T22:41:20.049Z</time>
      </trkpt>
      <trkpt lat="47.679816" lon="7.844207">
        <ele>402.385513</ele>
        <time>2021-11-19T22:41:20.421Z</time>
      </trkpt>
      <trkpt lat="47.679923" lon="7.843948">
        <ele>402.323776</ele>
        <time>2021-11-19T22:41:23.066Z</time>
      </trkpt>
      <trkpt lat="47.679996" lon="7.843847">
        <ele>402.293671</ele>
        <time>2021-11-19T22:41:24.537Z</time>
      </trkpt>
      <trkpt lat="47.680182" lon="7.843369">
        <ele>402.181504</ele>
        <time>2021-11-19T22:41:29.549Z</time>
      </trkpt>
      <trkpt lat="47.680373" lon="7.842875">
        <ele>402.107559</ele>
        <time>2021-11-19T22:41:36.031Z</time>
      </trkpt>
      <trkpt lat="47.680461" lon="7.842649">
        <ele>402.280710</ele>
        <time>2021-11-19T22:41:39.293Z</time>
      </trkpt>
      <trkpt lat="47.680579" lon="7.842331">
        <ele>402.521526</ele>
        <time>2021-11-19T22:41:43.941Z</time>
      </trkpt>
      <trkpt lat="47.680621" lon="7.842206">
        <ele>402.614179</ele>
        <time>2021-11-19T22:41:45.810Z</time>
      </trkpt>
      <trkpt lat="47.680661" lon="7.842117">
        <ele>402.685149</ele>
        <time>2021-11-19T22:41:47.210Z</time>
      </trkpt>
      <trkpt lat="47.680719" lon="7.842030">
        <ele>402.766350</ele>
        <time>2021-11-19T22:41:48.807Z</time>
      </trkpt>
      <trkpt lat="47.680749" lon="7.841945">
        <ele>402.830000</ele>
        <time>2021-11-19T22:41:50.046Z</time>
      </trkpt>
      <trkpt lat="47.680808" lon="7.841634">
        <ele>403.044293</ele>
        <time>2021-11-19T22:41:54.226Z</time>
      </trkpt>
      <trkpt lat="47.680845" lon="7.841405">
        <ele>403.200482</ele>
        <time>2021-11-19T22:41:57.121Z</time>
      </trkpt>
      <trkpt lat="47.680868" lon="7.841268">
        <ele>403.294125</ele>
        <time>2021-11-19T22:41:58.841Z</time>
      </trkpt>
      <trkpt lat="47.680912" lon="7.841226">
        <ele>403.345648</ele>
        <time>2021-11-19T22:42:00.009Z</time>
      </trkpt>
      <trkpt lat="47.681025" lon="7.841248">
        <ele>403.457914</ele>
        <time>2021-11-19T22:42:02.153Z</time>
      </trkpt>
      <trkpt lat="47.681200" lon="7.841340">
        <ele>403.640783</ele>
        <time>2021-11-19T22:42:05.518Z</time>
      </trkpt>
      <trkpt lat="47.681466" lon="7.840319">
        <ele>404.874258</ele>
        <time>2021-11-19T22:42:20.569Z</time>
      </trkpt>
      <trkpt lat="47.681588" lon="7.839751">
        <ele>405.655890</ele>
        <time>2021-11-19T22:42:29.171Z</time>
      </trkpt>
      <trkpt lat="47.681625" lon="7.839729">
        <ele>405.733498</ele>
        <time>2021-11-19T22:42:30.131Z</time>
      </trkpt>
      <trkpt lat="47.682010" lon="7.839763">
        <ele>406.484526</ele>
        <time>2021-11-19T22:42:39.001Z</time>
      </trkpt>
      <trkpt lat="47.682121" lon="7.839775">
        <ele>406.701246</ele>
        <time>2021-11-19T22:42:41.192Z</time>
      </trkpt>
      <trkpt lat="47.682152" lon="7.839703">
        <ele>406.813290</ele>
        <time>2021-11-19T22:42:42.787Z</time>
      </trkpt>
      <trkpt lat="47.682536" lon="7.838851">
        <ele>409.263241</ele>
        <time>2021-11-19T22:43:00.783Z</time>
      </trkpt>
      <trkpt lat="47.682678" lon="7.838656">
        <ele>410.155453</ele>
        <time>2021-11-19T22:43:07.601Z</time>
      </trkpt>
      <trkpt lat="47.682812" lon="7.838508">
        <ele>410.925854</ele>
        <time>2021-11-19T22:43:11.734Z</time>
      </trkpt>
      <trkpt lat="47.682841" lon="7.838433">
        <ele>411.194494</ele>
        <time>2021-11-19T22:43:13.729Z</time>
      </trkpt>
      <trkpt lat="47.682847" lon="7.838364">
        <ele>411.410591</ele>
        <time>2021-11-19T22:43:15.953Z</time>
      </trkpt>
      <trkpt lat="47.682785" lon="7.837857">
        <ele>413.011117</ele>
        <time>2021-11-19T22:43:27.303Z</time>
      </trkpt>
      <trkpt lat="47.682694" lon="7.837415">
        <ele>414.446746</ele>
        <time>2021-11-19T22:43:37.728Z</time>
      </trkpt>
      <trkpt lat="47.682664" lon="7.837273">
        <ele>414.909011</ele>
        <time>2021-11-19T22:43:42.941Z</time>
      </trkpt>
      <trkpt lat="47.682614" lon="7.836961">
        <ele>416.152477</ele>
        <time>2021-11-19T22:43:50.586Z</time>
      </trkpt>
      <trkpt lat="47.682672" lon="7.836018">
        <ele>421.922711</ele>
        <time>2021-11-19T22:44:20.705Z</time>
      </trkpt>
      <trkpt lat="47.682654" lon="7.835513">
        <ele>425.004309</ele>
        <time>2021-11-19T22:44:38.095Z</time>
      </trkpt>
      <trkpt lat="47.682434" lon="7.834532">
        <ele>431.305115</ele>
        <time>2021-11-19T22:45:18.795Z</time>
      </trkpt>
      <trkpt lat="47.682434" lon="7.834307">
        <ele>432.640454</ele>
        <time>2021-11-19T22:45:27.692Z</time>
      </trkpt>
      <trkpt lat="47.682434" lon="7.834262">
        <ele>432.901571</ele>
        <time>2021-11-19T22:45:29.630Z</time>
      </trkpt>
      <trkpt lat="47.682516" lon="7.834067">
        <ele>434.235661</ele>
        <time>2021-11-19T22:45:39.864Z</time>
      </trkpt>
      <trkpt lat="47.683294" lon="7.833102">
        <ele>442.971662</ele>
        <time>2021-11-19T22:46:29.612Z</time>
      </trkpt>
      <trkpt lat="47.683348" lon="7.832943">
        <ele>444.005007</ele>
        <time>2021-11-19T22:46:37.605Z</time>
      </trkpt>
      <trkpt lat="47.683345" lon="7.832813">
        <ele>444.759773</ele>
        <time>2021-11-19T22:46:40.429Z</time>
      </trkpt>
      <trkpt lat="47.683234" lon="7.832564">
        <ele>446.492626</ele>
        <time>2021-11-19T22:46:47.355Z</time>
      </trkpt>
      <trkpt lat="47.683133" lon="7.832512">
        <ele>447.413946</ele>
        <time>2021-11-19T22:46:53.767Z</time>
      </trkpt>
      <trkpt lat="47.682941" lon="7.832511">
        <ele>448.627250</ele>
        <time>2021-11-19T22:46:59.123Z</time>
      </trkpt>
      <trkpt lat="47.682916" lon="7.832511">
        <ele>448.784654</ele>
        <time>2021-11-19T22:46:59.361Z</time>
      </trkpt>
      <trkpt lat="47.682399" lon="7.832581">
        <ele>452.053259</ele>
        <time>2021-11-19T22:47:21.900Z</time>
      </trkpt>
      <trkpt lat="47.682223" lon="7.832462">
        <ele>453.270788</ele>
        <time>2021-11-19T22:47:26.079Z</time>
      </trkpt>
      <trkpt lat="47.682050" lon="7.832161">
        <ele>454.948384</ele>
        <time>2021-11-19T22:47:38.104Z</time>
      </trkpt>
      <trkpt lat="47.681811" lon="7.830472">
        <ele>464.187948</ele>
        <time>2021-11-19T22:48:26.087Z</time>
      </trkpt>
      <trkpt lat="47.681445" lon="7.829227">
        <ele>473.103223</ele>
        <time>2021-11-19T22:49:23.082Z</time>
      </trkpt>
      <trkpt lat="47.681460" lon="7.827706">
        <ele>480.120259</ele>
        <time>2021-11-19T22:50:20.032Z</time>
      </trkpt>
      <trkpt lat="47.681448" lon="7.827447">
        <ele>481.080794</ele>
        <time>2021-11-19T22:50:28.894Z</time>
      </trkpt>
      <trkpt lat="47.681412" lon="7.827153">
        <ele>482.186403</ele>
        <time>2021-11-19T22:50:34.637Z</time>
      </trkpt>
      <trkpt lat="47.681374" lon="7.826845">
        <ele>483.344944</ele>
        <time>2021-11-19T22:50:41.603Z</time>
      </trkpt>
      <trkpt lat="47.681357" lon="7.826420">
        <ele>484.920168</ele>
        <time>2021-11-19T22:50:48.912Z</time>
      </trkpt>
      <trkpt lat="47.681396" lon="7.826266">
        <ele>485.528927</ele>
        <time>2021-11-19T22:50:50.149Z</time>
      </trkpt>
      <trkpt lat="47.681571" lon="7.825612">
        <ele>483.895996</ele>
        <time>2021-11-19T22:50:55.709Z</time>
      </trkpt>
      <trkpt lat="47.681600" lon="7.824099">
        <ele>477.396903</ele>
        <time>2021-11-19T22:51:04.832Z</time>
      </trkpt>
      <trkpt lat="47.681517" lon="7.823246">
        <ele>472.947749</ele>
        <time>2021-11-19T22:51:09.811Z</time>
      </trkpt>
      <trkpt lat="47.681574" lon="7.822940">
        <ele>470.568501</ele>
        <time>2021-11-19T22:51:11.635Z</time>
      </trkpt>
      <trkpt lat="47.681665" lon="7.822699">
        <ele>468.497852</ele>
        <time>2021-11-19T22:51:13.220Z</time>
      </trkpt>
      <trkpt lat="47.681817" lon="7.822473">
        <ele>466.103970</ele>
        <time>2021-11-19T22:51:15.044Z</time>
      </trkpt>
      <trkpt lat="47.681887" lon="7.822212">
        <ele>463.998624</ele>
        <time>2021-11-19T22:51:16.651Z</time>
      </trkpt>
      <trkpt lat="47.681766" lon="7.821422">
        <ele>457.927303</ele>
        <time>2021-11-19T22:51:21.271Z</time>
      </trkpt>
      <trkpt lat="47.681877" lon="7.819910">
        <ele>447.100066</ele>
        <time>2021-11-19T22:51:29.986Z</time>
      </trkpt>
      <trkpt lat="47.682010" lon="7.819020">
        <ele>440.746470</ele>
        <time>2021-11-19T22:51:35.245Z</time>
      </trkpt>
      <trkpt lat="47.681897" lon="7.817699">
        <ele>432.560698</ele>
        <time>2021-11-19T22:51:43.081Z</time>
      </trkpt>
      <trkpt lat="47.681888" lon="7.817577">
        <ele>431.909107</ele>
        <time>2021-11-19T22:51:43.784Z</time>
      </trkpt>
      <trkpt lat="47.681841" lon="7.816950">
        <ele>428.559706</ele>
        <time>2021-11-19T22:51:47.551Z</time>
      </trkpt>
      <trkpt lat="47.681635" lon="7.816064">
        <ele>423.583188</ele>
        <time>2021-11-19T22:51:53.190Z</time>
      </trkpt>
      <trkpt lat="47.681633" lon="7.815463">
        <ele>420.634980</ele>
        <time>2021-11-19T22:51:56.808Z</time>
      </trkpt>
      <trkpt lat="47.681582" lon="7.815018">
        <ele>418.629962</ele>
        <time>2021-11-19T22:51:59.588Z</time>
      </trkpt>
      <trkpt lat="47.681333" lon="7.813912">
        <ele>413.449965</ele>
        <time>2021-11-19T22:52:06.701Z</time>
      </trkpt>
      <trkpt lat="47.681213" lon="7.813581">
        <ele>411.780123</ele>
        <time>2021-11-19T22:52:08.992Z</time>
      </trkpt>
      <trkpt lat="47.680853" lon="7.813173">
        <ele>408.925841</ele>
        <time>2021-11-19T22:52:13.134Z</time>
      </trkpt>
      <trkpt lat="47.680720" lon="7.813097">
        <ele>408.088505</ele>
        <time>2021-11-19T22:52:14.411Z</time>
      </trkpt>
      <trkpt lat="47.680673" lon="7.813069">
        <ele>407.790951</ele>
        <time>2021-11-19T22:52:14.889Z</time>
      </trkpt>
      <trkpt lat="47.680556" lon="7.813008">
        <ele>407.062346</ele>
        <time>2021-11-19T22:52:16.029Z</time>
      </trkpt>
      <trkpt lat="47.680106" lon="7.812771">
        <ele>404.256879</ele>
        <time>2021-11-19T22:52:20.418Z</time>
      </trkpt>
      <trkpt lat="47.679997" lon="7.812644">
        <ele>403.442856</ele>
        <time>2021-11-19T22:52:21.693Z</time>
      </trkpt>
      <trkpt lat="47.679881" lon="7.812508">
        <ele>402.574490</ele>
        <time>2021-11-19T22:52:23.075Z</time>
      </trkpt>
      <trkpt lat="47.679652" lon="7.811961">
        <ele>400.026270</ele>
        <time>2021-11-19T22:52:27.066Z</time>
      </trkpt>
      <trkpt lat="47.679497" lon="7.811387">
        <ele>397.703886</ele>
        <time>2021-11-19T22:52:30.958Z</time>
      </trkpt>
      <trkpt lat="47.679500" lon="7.810889">
        <ele>395.865097</ele>
        <time>2021-11-19T22:52:34.085Z</time>
      </trkpt>
      <trkpt lat="47.679610" lon="7.810461">
        <ele>394.173616</ele>
        <time>2021-11-19T22:52:36.973Z</time>
      </trkpt>
      <trkpt lat="47.679764" lon="7.810248">
        <ele>393.019622</ele>
        <time>2021-11-19T22:52:38.861Z</time>
      </trkpt>
      <trkpt lat="47.680117" lon="7.810231">
        <ele>391.082780</ele>
        <time>2021-11-19T22:52:42.117Z</time>
      </trkpt>
      <trkpt lat="47.680344" lon="7.810270">
        <ele>389.829630</ele>
        <time>2021-11-19T22:52:44.277Z</time>
      </trkpt>
      <trkpt lat="47.680478" lon="7.810261">
        <ele>389.300026</ele>
        <time>2021-11-19T22:52:45.526Z</time>
      </trkpt>
      <trkpt lat="47.680747" lon="7.810201">
        <ele>388.442388</ele>
        <time>2021-11-19T22:52:48.140Z</time>
      </trkpt>
      <trkpt lat="47.680942" lon="7.809996">
        <ele>387.689156</ele>
        <time>2021-11-19T22:52:50.539Z</time>
      </trkpt>
      <trkpt lat="47.680998" lon="7.809904">
        <ele>387.425884</ele>
        <time>2021-11-19T22:52:51.314Z</time>
      </trkpt>
      <trkpt lat="47.681079" lon="7.809770">
        <ele>387.043616</ele>
        <time>2021-11-19T22:52:52.501Z</time>
      </trkpt>
      <trkpt lat="47.681122" lon="7.809701">
        <ele>386.844034</ele>
        <time>2021-11-19T22:52:53.222Z</time>
      </trkpt>
      <trkpt lat="47.681184" lon="7.809580">
        <ele>386.521261</ele>
        <time>2021-11-19T22:52:54.286Z</time>
      </trkpt>
      <trkpt lat="47.681323" lon="7.809226">
        <ele>385.651364</ele>
        <time>2021-11-19T22:52:57.107Z</time>
      </trkpt>
      <trkpt lat="47.681416" lon="7.808985">
        <ele>385.061719</ele>
        <time>2021-11-19T22:52:59.008Z</time>
      </trkpt>
      <trkpt lat="47.681479" lon="7.808934">
        <ele>384.835501</ele>
        <time>2021-11-19T22:52:59.764Z</time>
      </trkpt>
      <trkpt lat="47.681525" lon="7.808831">
        <ele>384.573134</ele>
        <time>2021-11-19T22:53:00.790Z</time>
      </trkpt>
      <trkpt lat="47.681566" lon="7.808766">
        <ele>384.384064</ele>
        <time>2021-11-19T22:53:01.544Z</time>
      </trkpt>
      <trkpt lat="47.681743" lon="7.808468">
        <ele>384.008121</ele>
        <time>2021-11-19T22:53:04.651Z</time>
      </trkpt>
      <trkpt lat="47.681980" lon="7.808264">
        <ele>384.244269</ele>
        <time>2021-11-19T22:53:07.930Z</time>
      </trkpt>
      <trkpt lat="47.682788" lon="7.807894">
        <ele>384.973206</ele>
        <time>2021-11-19T22:53:24.334Z</time>
      </trkpt>
      <trkpt lat="47.683018" lon="7.807663">
        <ele>385.212564</ele>
        <time>2021-11-19T22:53:30.694Z</time>
      </trkpt>
      <trkpt lat="47.683100" lon="7.807543">
        <ele>385.311803</ele>
        <time>2021-11-19T22:53:33.572Z</time>
      </trkpt>
      <trkpt lat="47.683227" lon="7.807391">
        <ele>385.452411</ele>
        <time>2021-11-19T22:53:36.966Z</time>
      </trkpt>
      <trkpt lat="47.683298" lon="7.807196">
        <ele>385.927723</ele>
        <time>2021-11-19T22:53:41.397Z</time>
      </trkpt>
      <trkpt lat="47.683414" lon="7.806933">
        <ele>386.625608</ele>
        <time>2021-11-19T22:53:46.381Z</time>
      </trkpt>
      <trkpt lat="47.683440" lon="7.806883">
        <ele>386.765840</ele>
        <time>2021-11-19T22:53:48.089Z</time>
      </trkpt>
      <trkpt lat="47.683762" lon="7.806139">
        <ele>388.729037</ele>
        <time>2021-11-19T22:54:04.993Z</time>
      </trkpt>
      <trkpt lat="47.684002" lon="7.805825">
        <ele>389.783485</ele>
        <time>2021-11-19T22:54:15.140Z</time>
      </trkpt>
      <trkpt lat="47.685433" lon="7.804734">
        <ele>394.025796</ele>
        <time>2021-11-19T22:55:00.460Z</time>
      </trkpt>
      <trkpt lat="47.685474" lon="7.804690">
        <ele>394.144723</ele>
        <time>2021-11-19T22:55:02.152Z</time>
      </trkpt>
      <trkpt lat="47.685544" lon="7.804620">
        <ele>394.343131</ele>
        <time>2021-11-19T22:55:03.329Z</time>
      </trkpt>
      <trkpt lat="47.686085" lon="7.803707">
        <ele>395.369054</ele>
        <time>2021-11-19T22:55:17.789Z</time>
      </trkpt>
      <trkpt lat="47.686282" lon="7.803470">
        <ele>395.141541</ele>
        <time>2021-11-19T22:55:21.301Z</time>
      </trkpt>
      <trkpt lat="47.686515" lon="7.803165">
        <ele>394.862823</ele>
        <time>2021-11-19T22:55:25.386Z</time>
      </trkpt>
      <trkpt lat="47.686861" lon="7.802763">
        <ele>394.468596</ele>
        <time>2021-11-19T22:55:30.306Z</time>
      </trkpt>
      <trkpt lat="47.686988" lon="7.802664">
        <ele>394.339877</ele>
        <time>2021-11-19T22:55:31.957Z</time>
      </trkpt>
      <trkpt lat="47.687345" lon="7.802442">
        <ele>393.984743</ele>
        <time>2021-11-19T22:55:36.287Z</time>
      </trkpt>
      <trkpt lat="47.687529" lon="7.802242">
        <ele>393.631267</ele>
        <time>2021-11-19T22:55:38.801Z</time>
      </trkpt>
      <trkpt lat="47.688168" lon="7.801084">
        <ele>392.068564</ele>
        <time>2021-11-19T22:55:49.978Z</time>
      </trkpt>
      <trkpt lat="47.688515" lon="7.800635">
        <ele>391.355123</ele>
        <time>2021-11-19T22:55:55.356Z</time>
      </trkpt>
      <trkpt lat="47.688706" lon="7.800220">
        <ele>391.878852</ele>
        <time>2021-11-19T22:55:59.329Z</time>
      </trkpt>
      <trkpt lat="47.688835" lon="7.799732">
        <ele>392.824559</ele>
        <time>2021-11-19T22:56:05.456Z</time>
      </trkpt>
      <trkpt lat="47.688987" lon="7.799109">
        <ele>394.019876</ele>
        <time>2021-11-19T22:56:14.463Z</time>
      </trkpt>
      <trkpt lat="47.689229" lon="7.798474">
        <ele>395.336125</ele>
        <time>2021-11-19T22:56:26.991Z</time>
      </trkpt>
      <trkpt lat="47.689312" lon="7.798158">
        <ele>395.947983</ele>
        <time>2021-11-19T22:56:34.581Z</time>
      </trkpt>
      <trkpt lat="47.689375" lon="7.798016">
        <ele>397.113866</ele>
        <time>2021-11-19T22:56:38.073Z</time>
      </trkpt>
      <trkpt lat="47.689453" lon="7.798011">
        <ele>398.138898</ele>
        <time>2021-11-19T22:56:45.558Z</time>
      </trkpt>
      <trkpt lat="47.689913" lon="7.798189">
        <ele>404.379861</ele>
        <time>2021-11-19T22:57:19.039Z</time>
      </trkpt>
      <trkpt lat="47.690453" lon="7.798048">
        <ele>411.578318</ele>
        <time>2021-11-19T22:57:56.639Z</time>
      </trkpt>
      <trkpt lat="47.690750" lon="7.798123">
        <ele>415.533630</ele>
        <time>2021-11-19T22:58:21.668Z</time>
      </trkpt>
      <trkpt lat="47.690843" lon="7.798193">
        <ele>416.902424</ele>
        <time>2021-11-19T22:58:31.276Z</time>
      </trkpt>
      <trkpt lat="47.690896" lon="7.798268">
        <ele>417.863435</ele>
        <time>2021-11-19T22:58:39.158Z</time>
      </trkpt>
      <trkpt lat="47.691401" lon="7.799241">
        <ele>425.273836</ele>
        <time>2021-11-19T22:59:30.951Z</time>
      </trkpt>
      <trkpt lat="47.691651" lon="7.799515">
        <ele>427.802569</ele>
        <time>2021-11-19T22:59:50.683Z</time>
      </trkpt>
      <trkpt lat="47.691803" lon="7.799609">
        <ele>429.142700</ele>
        <time>2021-11-19T22:59:55.582Z</time>
      </trkpt>
      <trkpt lat="47.691891" lon="7.799651">
        <ele>429.895040</ele>
        <time>2021-11-19T23:00:01.925Z</time>
      </trkpt>
      <trkpt lat="47.691989" lon="7.799711">
        <ele>430.757802</ele>
        <time>2021-11-19T23:00:08.737Z</time>
      </trkpt>
      <trkpt lat="47.692114" lon="7.799774">
        <ele>431.832206</ele>
        <time>2021-11-19T23:00:10.772Z</time>
      </trkpt>
      <trkpt lat="47.692919" lon="7.800150">
        <ele>430.789854</ele>
        <time>2021-11-19T23:00:19.746Z</time>
      </trkpt>
      <trkpt lat="47.693323" lon="7.800215">
        <ele>428.165863</ele>
        <time>2021-11-19T23:00:23.288Z</time>
      </trkpt>
      <trkpt lat="47.693842" lon="7.800057">
        <ele>424.744903</ele>
        <time>2021-11-19T23:00:27.886Z</time>
      </trkpt>
      <trkpt lat="47.694177" lon="7.799825">
        <ele>422.414485</ele>
        <time>2021-11-19T23:00:31.099Z</time>
      </trkpt>
      <trkpt lat="47.694533" lon="7.799393">
        <ele>419.973159</ele>
        <time>2021-11-19T23:00:35.119Z</time>
      </trkpt>
      <trkpt lat="47.694748" lon="7.798935">
        <ele>417.976999</ele>
        <time>2021-11-19T23:00:38.427Z</time>
      </trkpt>
      <trkpt lat="47.694841" lon="7.798629">
        <ele>416.776747</ele>
        <time>2021-11-19T23:00:40.439Z</time>
      </trkpt>
      <trkpt lat="47.695210" lon="7.796547">
        <ele>416.582160</ele>
        <time>2021-11-19T23:00:59.926Z</time>
      </trkpt>
      <trkpt lat="47.695281" lon="7.796388">
        <ele>417.166058</ele>
        <time>2021-11-19T23:01:03.361Z</time>
      </trkpt>
      <trkpt lat="47.695384" lon="7.796279">
        <ele>417.740990</ele>
        <time>2021-11-19T23:01:09.613Z</time>
      </trkpt>
      <trkpt lat="47.695609" lon="7.796131">
        <ele>418.859716</ele>
        <time>2021-11-19T23:01:19.083Z</time>
      </trkpt>
      <trkpt lat="47.695641" lon="7.796119">
        <ele>419.009766</ele>
        <time>2021-11-19T23:01:20.918Z</time>
      </trkpt>
      <trkpt lat="47.695783" lon="7.796062">
        <ele>419.678511</ele>
        <time>2021-11-19T23:01:29.798Z</time>
      </trkpt>
      <trkpt lat="47.696810" lon="7.795970">
        <ele>426.153179</ele>
        <time>2021-11-19T23:02:26.776Z</time>
      </trkpt>
      <trkpt lat="47.697375" lon="7.796067">
        <ele>430.259257</ele>
        <time>2021-11-19T23:02:56.262Z</time>
      </trkpt>
      <trkpt lat="47.697776" lon="7.796266">
        <ele>433.311431</ele>
        <time>2021-11-19T23:03:10.891Z</time>
      </trkpt>
      <trkpt lat="47.698501" lon="7.797094">
        <ele>432.367859</ele>
        <time>2021-11-19T23:03:22.851Z</time>
      </trkpt>
      <trkpt lat="47.698783" lon="7.797250">
        <ele>431.628009</ele>
        <time>2021-11-19T23:03:26.266Z</time>
      </trkpt>
      <trkpt lat="47.699039" lon="7.797223">
        <ele>430.996998</ele>
        <time>2021-11-19T23:03:28.592Z</time>
      </trkpt>
      <trkpt lat="47.699769" lon="7.796637">
        <ele>427.847953</ele>
        <time>2021-11-19T23:03:36.230Z</time>
      </trkpt>
      <trkpt lat="47.699809" lon="7.796599">
        <ele>427.588243</ele>
        <time>2021-11-19T23:03:36.622Z</time>
      </trkpt>
      <trkpt lat="47.699950" lon="7.796524">
        <ele>426.769008</ele>
        <time>2021-11-19T23:03:38.349Z</time>
      </trkpt>
      <trkpt lat="47.700424" lon="7.796461">
        <ele>424.165767</ele>
        <time>2021-11-19T23:03:42.848Z</time>
      </trkpt>
      <trkpt lat="47.700757" lon="7.796605">
        <ele>422.268607</ele>
        <time>2021-11-19T23:03:46.037Z</time>
      </trkpt>
      <trkpt lat="47.701016" lon="7.796895">
        <ele>420.494596</ele>
        <time>2021-11-19T23:03:49.036Z</time>
      </trkpt>
      <trkpt lat="47.701286" lon="7.797436">
        <ele>418.773345</ele>
        <time>2021-11-19T23:03:53.402Z</time>
      </trkpt>
      <trkpt lat="47.701387" lon="7.797717">
        <ele>418.043378</ele>
        <time>2021-11-19T23:03:55.753Z</time>
      </trkpt>
      <trkpt lat="47.701603" lon="7.798419">
        <ele>416.274653</ele>
        <time>2021-11-19T23:04:01.077Z</time>
      </trkpt>
      <trkpt lat="47.701806" lon="7.798838">
        <ele>415.091640</ele>
        <time>2021-11-19T23:04:04.599Z</time>
      </trkpt>
      <trkpt lat="47.701995" lon="7.799018">
        <ele>414.327296</ele>
        <time>2021-11-19T23:04:06.903Z</time>
      </trkpt>
      <trkpt lat="47.702253" lon="7.799139">
        <ele>413.737277</ele>
        <time>2021-11-19T23:04:09.657Z</time>
      </trkpt>
      <trkpt lat="47.702720" lon="7.799231">
        <ele>413.210231</ele>
        <time>2021-11-19T23:04:14.485Z</time>
      </trkpt>
      <trkpt lat="47.703086" lon="7.799224">
        <ele>412.800720</ele>
        <time>2021-11-19T23:04:18.709Z</time>
      </trkpt>
      <trkpt lat="47.703295" lon="7.799223">
        <ele>412.566892</ele>
        <time>2021-11-19T23:04:21.612Z</time>
      </trkpt>
      <trkpt lat="47.703581" lon="7.799274">
        <ele>412.244623</ele>
        <time>2021-11-19T23:04:25.656Z</time>
      </trkpt>
      <trkpt lat="47.704415" lon="7.799599">
        <ele>413.158073</ele>
        <time>2021-11-19T23:04:42.613Z</time>
      </trkpt>
      <trkpt lat="47.704607" lon="7.799633">
        <ele>413.611029</ele>
        <time>2021-11-19T23:04:47.233Z</time>
      </trkpt>
      <trkpt lat="47.704720" lon="7.799644">
        <ele>413.876307</ele>
        <time>2021-11-19T23:04:50.001Z</time>
      </trkpt>
      <trkpt lat="47.705001" lon="7.799646">
        <ele>414.534577</ele>
        <time>2021-11-19T23:04:57.739Z</time>
      </trkpt>
      <trkpt lat="47.705257" lon="7.799632">
        <ele>415.134681</ele>
        <time>2021-11-19T23:05:04.657Z</time>
      </trkpt>
      <trkpt lat="47.706285" lon="7.799516">
        <ele>418.483299</ele>
        <time>2021-11-19T23:05:32.943Z</time>
      </trkpt>
      <trkpt lat="47.706361" lon="7.799500">
        <ele>418.778934</ele>
        <time>2021-11-19T23:05:35.709Z</time>
      </trkpt>
      <trkpt lat="47.706428" lon="7.799486">
        <ele>419.039521</ele>
        <time>2021-11-19T23:05:37.431Z</time>
      </trkpt>
      <trkpt lat="47.706866" lon="7.799207">
        <ele>420.874913</ele>
        <time>2021-11-19T23:05:51.189Z</time>
      </trkpt>
      <trkpt lat="47.707554" lon="7.798371">
        <ele>424.255468</ele>
        <time>2021-11-19T23:06:21.940Z</time>
      </trkpt>
      <trkpt lat="47.707833" lon="7.798146">
        <ele>425.437316</ele>
        <time>2021-11-19T23:06:32.045Z</time>
      </trkpt>
      <trkpt lat="47.708081" lon="7.797985">
        <ele>426.444909</ele>
        <time>2021-11-19T23:06:40.162Z</time>
      </trkpt>
      <trkpt lat="47.708492" lon="7.797738">
        <ele>428.095501</ele>
        <time>2021-11-19T23:06:52.967Z</time>
      </trkpt>
      <trkpt lat="47.708802" lon="7.797533">
        <ele>429.358781</ele>
        <time>2021-11-19T23:07:02.457Z</time>
      </trkpt>
      <trkpt lat="47.709006" lon="7.797377">
        <ele>430.025105</ele>
        <time>2021-11-19T23:07:08.277Z</time>
      </trkpt>
      <trkpt lat="47.710221" lon="7.795853">
        <ele>433.668123</ele>
        <time>2021-11-19T23:07:44.491Z</time>
      </trkpt>
      <trkpt lat="47.710566" lon="7.795581">
        <ele>434.692785</ele>
        <time>2021-11-19T23:07:54.395Z</time>
      </trkpt>
      <trkpt lat="47.710884" lon="7.795563">
        <ele>435.553924</ele>
        <time>2021-11-19T23:08:02.667Z</time>
      </trkpt>
      <trkpt lat="47.711006" lon="7.795566">
        <ele>435.884104</ele>
        <time>2021-11-19T23:08:06.632Z</time>
      </trkpt>
      <trkpt lat="47.711772" lon="7.795647">
        <ele>437.962156</ele>
        <time>2021-11-19T23:08:27.082Z</time>
      </trkpt>
      <trkpt lat="47.712384" lon="7.795687">
        <ele>438.858920</ele>
        <time>2021-11-19T23:08:42.648Z</time>
      </trkpt>
      <trkpt lat="47.713112" lon="7.795601">
        <ele>439.177033</ele>
        <time>2021-11-19T23:08:55.403Z</time>
      </trkpt>
      <trkpt lat="47.713674" lon="7.795304">
        <ele>439.436852</ele>
        <time>2021-11-19T23:09:02.604Z</time>
      </trkpt>
      <trkpt lat="47.714002" lon="7.794949">
        <ele>439.738976</ele>
        <time>2021-11-19T23:09:07.341Z</time>
      </trkpt>
      <trkpt lat="47.714257" lon="7.794564">
        <ele>440.066718</ele>
        <time>2021-11-19T23:09:12.051Z</time>
      </trkpt>
      <trkpt lat="47.714438" lon="7.794381">
        <ele>440.264098</ele>
        <time>2021-11-19T23:09:16.276Z</time>
      </trkpt>
      <trkpt lat="47.715017" lon="7.794043">
        <ele>440.824978</ele>
        <time>2021-11-19T23:09:30.015Z</time>
      </trkpt>
      <trkpt lat="47.715268" lon="7.793948">
        <ele>441.058515</ele>
        <time>2021-11-19T23:09:35.698Z</time>
      </trkpt>
      <trkpt lat="47.715366" lon="7.793911">
        <ele>441.221949</ele>
        <time>2021-11-19T23:09:38.484Z</time>
      </trkpt>
      <trkpt lat="47.715611" lon="7.793868">
        <ele>441.954301</ele>
        <time>2021-11-19T23:09:44.151Z</time>
      </trkpt>
      <trkpt lat="47.715801" lon="7.793881">
        <ele>442.518926</ele>
        <time>2021-11-19T23:09:50.330Z</time>
      </trkpt>
      <trkpt lat="47.715977" lon="7.793929">
        <ele>443.050117</ele>
        <time>2021-11-19T23:09:55.144Z</time>
      </trkpt>
      <trkpt lat="47.716155" lon="7.794018">
        <ele>443.607619</ele>
        <time>2021-11-19T23:10:01.051Z</time>
      </trkpt>
      <trkpt lat="47.716557" lon="7.794089">
        <ele>444.809379</ele>
        <time>2021-11-19T23:10:12.376Z</time>
      </trkpt>
      <trkpt lat="47.717221" lon="7.793652">
        <ele>446.476400</ele>
        <time>2021-11-19T23:10:32.179Z</time>
      </trkpt>
      <trkpt lat="47.717545" lon="7.793687">
        <ele>446.512216</ele>
        <time>2021-11-19T23:10:39.567Z</time>
      </trkpt>
      <trkpt lat="47.717592" lon="7.793730">
        <ele>446.518300</ele>
        <time>2021-11-19T23:10:40.115Z</time>
      </trkpt>
      <trkpt lat="47.717830" lon="7.793953">
        <ele>446.549318</ele>
        <time>2021-11-19T23:10:44.931Z</time>
      </trkpt>
      <trkpt lat="47.718606" lon="7.794776">
        <ele>446.654418</ele>
        <time>2021-11-19T23:10:55.435Z</time>
      </trkpt>
      <trkpt lat="47.718887" lon="7.795000">
        <ele>446.997229</ele>
        <time>2021-11-19T23:11:00.757Z</time>
      </trkpt>
      <trkpt lat="47.719001" lon="7.795097">
        <ele>447.143839</ele>
        <time>2021-11-19T23:11:03.681Z</time>
      </trkpt>
      <trkpt lat="47.719186" lon="7.795217">
        <ele>447.369125</ele>
        <time>2021-11-19T23:11:07.963Z</time>
      </trkpt>
      <trkpt lat="47.719349" lon="7.794722">
        <ele>447.782947</ele>
        <time>2021-11-19T23:11:15.804Z</time>
      </trkpt>
      <trkpt lat="47.719384" lon="7.794611">
        <ele>447.874995</ele>
        <time>2021-11-19T23:11:17.017Z</time>
      </trkpt>
      <trkpt lat="47.719403" lon="7.794476">
        <ele>447.978558</ele>
        <time>2021-11-19T23:11:19.875Z</time>
      </trkpt>
      <trkpt lat="47.719441" lon="7.794330">
        <ele>448.096105</ele>
        <time>2021-11-19T23:11:22.441Z</time>
      </trkpt>
      <trkpt lat="47.719485" lon="7.794058">
        <ele>448.306165</ele>
        <time>2021-11-19T23:11:25.547Z</time>
      </trkpt>
      <trkpt lat="47.719498" lon="7.793936">
        <ele>448.398914</ele>
        <time>2021-11-19T23:11:28.464Z</time>
      </trkpt>
      <trkpt lat="47.719505" lon="7.793705">
        <ele>448.572543</ele>
        <time>2021-11-19T23:11:31.499Z</time>
      </trkpt>
      <trkpt lat="47.719506" lon="7.793669">
        <ele>448.599598</ele>
        <time>2021-11-19T23:11:32.235Z</time>
      </trkpt>
      <trkpt lat="47.719513" lon="7.793427">
        <ele>448.833554</ele>
        <time>2021-11-19T23:11:35.636Z</time>
      </trkpt>
      <trkpt lat="47.719577" lon="7.792901">
        <ele>449.411855</ele>
        <time>2021-11-19T23:11:42.573Z</time>
      </trkpt>
      <trkpt lat="47.719746" lon="7.792264">
        <ele>450.152663</ele>
        <time>2021-11-19T23:11:53.718Z</time>
      </trkpt>
      <trkpt lat="47.719956" lon="7.791631">
        <ele>450.916228</ele>
        <time>2021-11-19T23:12:05.708Z</time>
      </trkpt>
      <trkpt lat="47.720080" lon="7.791306">
        <ele>451.320445</ele>
        <time>2021-11-19T23:12:10.389Z</time>
      </trkpt>
      <trkpt lat="47.720260" lon="7.790760">
        <ele>452.120989</ele>
        <time>2021-11-19T23:12:16.058Z</time>
      </trkpt>
      <trkpt lat="47.720444" lon="7.790286">
        <ele>452.913063</ele>
        <time>2021-11-19T23:12:21.138Z</time>
      </trkpt>
      <trkpt lat="47.720689" lon="7.789741">
        <ele>453.861782</ele>
        <time>2021-11-19T23:12:28.608Z</time>
      </trkpt>
      <trkpt lat="47.721462" lon="7.788062">
        <ele>460.774344</ele>
        <time>2021-11-19T23:13:14.440Z</time>
      </trkpt>
      <trkpt lat="47.721316" lon="7.787965">
        <ele>462.106918</ele>
        <time>2021-11-19T23:13:23.152Z</time>
      </trkpt>
      <trkpt lat="47.720927" lon="7.787920">
        <ele>465.358170</ele>
        <time>2021-11-19T23:13:41.160Z</time>
      </trkpt>
      <trkpt lat="47.720572" lon="7.788002">
        <ele>468.351809</ele>
        <time>2021-11-19T23:14:02.979Z</time>
      </trkpt>
      <trkpt lat="47.719941" lon="7.788596">
        <ele>477.495023</ele>
        <time>2021-11-19T23:14:52.349Z</time>
      </trkpt>
      <trkpt lat="47.719713" lon="7.788899">
        <ele>481.831011</ele>
        <time>2021-11-19T23:15:12.291Z</time>
      </trkpt>
      <trkpt lat="47.719622" lon="7.788913">
        <ele>483.128047</ele>
        <time>2021-11-19T23:15:17.201Z</time>
      </trkpt>
      <trkpt lat="47.719591" lon="7.788897">
        <ele>483.593287</ele>
        <time>2021-11-19T23:15:20.703Z</time>
      </trkpt>
      <trkpt lat="47.719556" lon="7.788860">
        <ele>484.202193</ele>
        <time>2021-11-19T23:15:24.763Z</time>
      </trkpt>
      <trkpt lat="47.719549" lon="7.788619">
        <ele>486.502990</ele>
        <time>2021-11-19T23:15:33.430Z</time>
      </trkpt>
      <trkpt lat="47.720170" lon="7.787318">
        <ele>502.663494</ele>
        <time>2021-11-19T23:17:02.158Z</time>
      </trkpt>
      <trkpt lat="47.720192" lon="7.786345">
        <ele>513.461762</ele>
        <time>2021-11-19T23:17:57.103Z</time>
      </trkpt>
      <trkpt lat="47.720180" lon="7.786161">
        <ele>515.512192</ele>
        <time>2021-11-19T23:18:09.942Z</time>
      </trkpt>
      <trkpt lat="47.720103" lon="7.785586">
        <ele>522.015016</ele>
        <time>2021-11-19T23:18:41.187Z</time>
      </trkpt>
      <trkpt lat="47.719725" lon="7.784277">
        <ele>532.196809</ele>
        <time>2021-11-19T23:19:47.537Z</time>
      </trkpt>
      <trkpt lat="47.719636" lon="7.783526">
        <ele>536.775030</ele>
        <time>2021-11-19T23:20:14.170Z</time>
      </trkpt>
      <trkpt lat="47.719521" lon="7.782997">
        <ele>540.112704</ele>
        <time>2021-11-19T23:20:24.584Z</time>
      </trkpt>
      <trkpt lat="47.719142" lon="7.782140">
        <ele>541.950849</ele>
        <time>2021-11-19T23:20:37.781Z</time>
      </trkpt>
      <trkpt lat="47.719145" lon="7.781869">
        <ele>542.067078</ele>
        <time>2021-11-19T23:20:40.031Z</time>
      </trkpt>
      <trkpt lat="47.719235" lon="7.781829">
        <ele>542.126956</ele>
        <time>2021-11-19T23:20:41.123Z</time>
      </trkpt>
      <trkpt lat="47.719644" lon="7.782051">
        <ele>542.404499</ele>
        <time>2021-11-19T23:20:45.929Z</time>
      </trkpt>
      <trkpt lat="47.720165" lon="7.782608">
        <ele>543.515204</ele>
        <time>2021-11-19T23:20:55.508Z</time>
      </trkpt>
      <trkpt lat="47.720242" lon="7.782580">
        <ele>544.297162</ele>
        <time>2021-11-19T23:20:58.078Z</time>
      </trkpt>
      <trkpt lat="47.720459" lon="7.782281">
        <ele>547.215949</ele>
        <time>2021-11-19T23:21:08.625Z</time>
      </trkpt>
      <trkpt lat="47.720753" lon="7.782158">
        <ele>550.228767</ele>
        <time>2021-11-19T23:21:21.531Z</time>
      </trkpt>
      <trkpt lat="47.720894" lon="7.782168">
        <ele>551.621232</ele>
        <time>2021-11-19T23:21:28.308Z</time>
      </trkpt>
      <trkpt lat="47.721120" lon="7.782321">
        <ele>554.070915</ele>
        <time>2021-11-19T23:21:46.926Z</time>
      </trkpt>
      <trkpt lat="47.721202" lon="7.782307">
        <ele>554.885114</ele>
        <time>2021-11-19T23:21:51.767Z</time>
      </trkpt>
      <trkpt lat="47.721295" lon="7.782262">
        <ele>555.849886</ele>
        <time>2021-11-19T23:21:57.123Z</time>
      </trkpt>
      <trkpt lat="47.721519" lon="7.781969">
        <ele>558.793203</ele>
        <time>2021-11-19T23:22:21.464Z</time>
      </trkpt>
      <trkpt lat="47.721582" lon="7.781487">
        <ele>562.798936</ele>
        <time>2021-11-19T23:22:48.277Z</time>
      </trkpt>
      <trkpt lat="47.721571" lon="7.780784">
        <ele>569.724038</ele>
        <time>2021-11-19T23:23:25.614Z</time>
      </trkpt>
      <trkpt lat="47.721589" lon="7.780626">
        <ele>571.302195</ele>
        <time>2021-11-19T23:23:37.119Z</time>
      </trkpt>
      <trkpt lat="47.721645" lon="7.780511">
        <ele>572.700291</ele>
        <time>2021-11-19T23:23:44.448Z</time>
      </trkpt>
      <trkpt lat="47.721966" lon="7.780079">
        <ele>579.039160</ele>
        <time>2021-11-19T23:24:19.434Z</time>
      </trkpt>
      <trkpt lat="47.722022" lon="7.779773">
        <ele>582.162176</ele>
        <time>2021-11-19T23:24:34.858Z</time>
      </trkpt>
      <trkpt lat="47.721917" lon="7.779478">
        <ele>585.448920</ele>
        <time>2021-11-19T23:24:44.943Z</time>
      </trkpt>
      <trkpt lat="47.721340" lon="7.778464">
        <ele>590.897032</ele>
        <time>2021-11-19T23:25:28.826Z</time>
      </trkpt>
      <trkpt lat="47.721261" lon="7.778061">
        <ele>592.332408</ele>
        <time>2021-11-19T23:25:35.830Z</time>
      </trkpt>
      <trkpt lat="47.721293" lon="7.777903">
        <ele>592.896643</ele>
        <time>2021-11-19T23:25:38.279Z</time>
      </trkpt>
      <trkpt lat="47.721397" lon="7.777779">
        <ele>593.574317</ele>
        <time>2021-11-19T23:25:41.034Z</time>
      </trkpt>
      <trkpt lat="47.721684" lon="7.777681">
        <ele>595.071126</ele>
        <time>2021-11-19T23:25:46.478Z</time>
      </trkpt>
      <trkpt lat="47.721955" lon="7.777421">
        <ele>596.393159</ele>
        <time>2021-11-19T23:25:52.605Z</time>
      </trkpt>
      <trkpt lat="47.722227" lon="7.777306">
        <ele>597.205686</ele>
        <time>2021-11-19T23:25:59.265Z</time>
      </trkpt>
      <trkpt lat="47.722319" lon="7.777194">
        <ele>597.547362</ele>
        <time>2021-11-19T23:26:02.681Z</time>
      </trkpt>
      <trkpt lat="47.722356" lon="7.776953">
        <ele>598.025172</ele>
        <time>2021-11-19T23:26:06.852Z</time>
      </trkpt>
      <trkpt lat="47.722337" lon="7.776682">
        <ele>598.551829</ele>
        <time>2021-11-19T23:26:12.231Z</time>
      </trkpt>
      <trkpt lat="47.722197" lon="7.776152">
        <ele>599.652422</ele>
        <time>2021-11-19T23:26:22.885Z</time>
      </trkpt>
      <trkpt lat="47.722265" lon="7.775737">
        <ele>600.478036</ele>
        <time>2021-11-19T23:26:30.747Z</time>
      </trkpt>
      <trkpt lat="47.722227" lon="7.775448">
        <ele>601.047220</ele>
        <time>2021-11-19T23:26:36.104Z</time>
      </trkpt>
      <trkpt lat="47.722103" lon="7.775053">
        <ele>602.608448</ele>
        <time>2021-11-19T23:26:45.188Z</time>
      </trkpt>
      <trkpt lat="47.722072" lon="7.774929">
        <ele>603.112012</ele>
        <time>2021-11-19T23:26:47.258Z</time>
      </trkpt>
      <trkpt lat="47.722086" lon="7.774741">
        <ele>603.832031</ele>
        <time>2021-11-19T23:26:51.302Z</time>
      </trkpt>
      <trkpt lat="47.722149" lon="7.774652">
        <ele>604.323826</ele>
        <time>2021-11-19T23:26:54.148Z</time>
      </trkpt>
      <trkpt lat="47.722570" lon="7.774580">
        <ele>606.721777</ele>
        <time>2021-11-19T23:27:10.303Z</time>
      </trkpt>
      <trkpt lat="47.722687" lon="7.774454">
        <ele>607.539305</ele>
        <time>2021-11-19T23:27:15.162Z</time>
      </trkpt>
      <trkpt lat="47.722781" lon="7.774019">
        <ele>609.278505</ele>
        <time>2021-11-19T23:27:29.350Z</time>
      </trkpt>
      <trkpt lat="47.722790" lon="7.773534">
        <ele>611.125403</ele>
        <time>2021-11-19T23:27:45.002Z</time>
      </trkpt>
      <trkpt lat="47.722937" lon="7.772816">
        <ele>614.609688</ele>
        <time>2021-11-19T23:28:05.568Z</time>
      </trkpt>
      <trkpt lat="47.722964" lon="7.772694">
        <ele>615.214045</ele>
        <time>2021-11-19T23:28:10.744Z</time>
      </trkpt>
      <trkpt lat="47.722981" lon="7.772565">
        <ele>615.832612</ele>
        <time>2021-11-19T23:28:13.771Z</time>
      </trkpt>
      <trkpt lat="47.722988" lon="7.772465">
        <ele>616.305717</ele>
        <time>2021-11-19T23:28:16.492Z</time>
      </trkpt>
      <trkpt lat="47.722987" lon="7.772426">
        <ele>616.489370</ele>
        <time>2021-11-19T23:28:17.664Z</time>
      </trkpt>
      <trkpt lat="47.722985" lon="7.772400">
        <ele>616.612515</ele>
        <time>2021-11-19T23:28:18.217Z</time>
      </trkpt>
      <trkpt lat="47.722954" lon="7.772317">
        <ele>617.059242</ele>
        <time>2021-11-19T23:28:20.794Z</time>
      </trkpt>
      <trkpt lat="47.722878" lon="7.772219">
        <ele>617.763005</ele>
        <time>2021-11-19T23:28:26.533Z</time>
      </trkpt>
      <trkpt lat="47.722556" lon="7.771899">
        <ele>620.472385</ele>
        <time>2021-11-19T23:28:42.723Z</time>
      </trkpt>
      <trkpt lat="47.722364" lon="7.771897">
        <ele>621.815457</ele>
        <time>2021-11-19T23:28:49.545Z</time>
      </trkpt>
      <trkpt lat="47.722282" lon="7.771884">
        <ele>622.392300</ele>
        <time>2021-11-19T23:28:53.610Z</time>
      </trkpt>
      <trkpt lat="47.721733" lon="7.771783">
        <ele>625.600939</ele>
        <time>2021-11-19T23:29:16.599Z</time>
      </trkpt>
      <trkpt lat="47.721698" lon="7.771772">
        <ele>625.780928</ele>
        <time>2021-11-19T23:29:18.393Z</time>
      </trkpt>
      <trkpt lat="47.721390" lon="7.771673">
        <ele>627.366395</ele>
        <time>2021-11-19T23:29:30.096Z</time>
      </trkpt>
      <trkpt lat="47.721123" lon="7.771461">
        <ele>628.889399</ele>
        <time>2021-11-19T23:29:40.711Z</time>
      </trkpt>
      <trkpt lat="47.720944" lon="7.771054">
        <ele>630.535272</ele>
        <time>2021-11-19T23:29:50.642Z</time>
      </trkpt>
      <trkpt lat="47.720938" lon="7.771036">
        <ele>630.603267</ele>
        <time>2021-11-19T23:29:51.283Z</time>
      </trkpt>
      <trkpt lat="47.720895" lon="7.770905">
        <ele>631.096640</ele>
        <time>2021-11-19T23:29:54.436Z</time>
      </trkpt>
      <trkpt lat="47.720827" lon="7.770667">
        <ele>631.971863</ele>
        <time>2021-11-19T23:29:59.056Z</time>
      </trkpt>
      <trkpt lat="47.720792" lon="7.770546">
        <ele>632.417677</ele>
        <time>2021-11-19T23:30:01.673Z</time>
      </trkpt>
      <trkpt lat="47.720662" lon="7.770082">
        <ele>634.375991</ele>
        <time>2021-11-19T23:30:11.330Z</time>
      </trkpt>
      <trkpt lat="47.720633" lon="7.769975">
        <ele>634.852823</ele>
        <time>2021-11-19T23:30:14.214Z</time>
      </trkpt>
      <trkpt lat="47.720539" lon="7.769857">
        <ele>635.608789</ele>
        <time>2021-11-19T23:30:18.423Z</time>
      </trkpt>
      <trkpt lat="47.720380" lon="7.769838">
        <ele>636.588881</ele>
        <time>2021-11-19T23:30:23.432Z</time>
      </trkpt>
      <trkpt lat="47.720036" lon="7.770012">
        <ele>638.821535</ele>
        <time>2021-11-19T23:30:37.487Z</time>
      </trkpt>
      <trkpt lat="47.719583" lon="7.770100">
        <ele>641.628561</ele>
        <time>2021-11-19T23:30:56.799Z</time>
      </trkpt>
      <trkpt lat="47.719268" lon="7.770319">
        <ele>643.765255</ele>
        <time>2021-11-19T23:31:13.225Z</time>
      </trkpt>
      <trkpt lat="47.719160" lon="7.770415">
        <ele>644.753239</ele>
        <time>2021-11-19T23:31:20.088Z</time>
      </trkpt>
      <trkpt lat="47.718812" lon="7.770740">
        <ele>648.301944</ele>
        <time>2021-11-19T23:31:40.302Z</time>
      </trkpt>
      <trkpt lat="47.718440" lon="7.771099">
        <ele>652.131626</ele>
        <time>2021-11-19T23:32:02.165Z</time>
      </trkpt>
      <trkpt lat="47.718117" lon="7.771397">
        <ele>655.414170</ele>
        <time>2021-11-19T23:32:21.700Z</time>
      </trkpt>
      <trkpt lat="47.717866" lon="7.771646">
        <ele>658.019815</ele>
        <time>2021-11-19T23:32:37.916Z</time>
      </trkpt>
      <trkpt lat="47.717588" lon="7.771853">
        <ele>660.461182</ele>
        <time>2021-11-19T23:32:53.190Z</time>
      </trkpt>
      <trkpt lat="47.716924" lon="7.772105">
        <ele>665.142857</ele>
        <time>2021-11-19T23:33:23.709Z</time>
      </trkpt>
      <trkpt lat="47.716188" lon="7.772153">
        <ele>670.175704</ele>
        <time>2021-11-19T23:33:52.336Z</time>
      </trkpt>
      <trkpt lat="47.715647" lon="7.772065">
        <ele>673.659709</ele>
        <time>2021-11-19T23:34:12.353Z</time>
      </trkpt>
      <trkpt lat="47.714966" lon="7.771742">
        <ele>677.990519</ele>
        <time>2021-11-19T23:34:39.883Z</time>
      </trkpt>
      <trkpt lat="47.713842" lon="7.770584">
        <ele>684.796418</ele>
        <time>2021-11-19T23:35:35.368Z</time>
      </trkpt>
      <trkpt lat="47.713579" lon="7.770443">
        <ele>685.784728</ele>
        <time>2021-11-19T23:35:44.452Z</time>
      </trkpt>
      <trkpt lat="47.712661" lon="7.770141">
        <ele>689.072086</ele>
        <time>2021-11-19T23:36:05.803Z</time>
      </trkpt>
      <trkpt lat="47.712561" lon="7.770086">
        <ele>688.939897</ele>
        <time>2021-11-19T23:36:08.576Z</time>
      </trkpt>
      <trkpt lat="47.712490" lon="7.770038">
        <ele>688.843198</ele>
        <time>2021-11-19T23:36:09.706Z</time>
      </trkpt>
      <trkpt lat="47.712406" lon="7.769971">
        <ele>688.725012</ele>
        <time>2021-11-19T23:36:11.097Z</time>
      </trkpt>
      <trkpt lat="47.712317" lon="7.769895">
        <ele>688.597761</ele>
        <time>2021-11-19T23:36:12.121Z</time>
      </trkpt>
      <trkpt lat="47.711976" lon="7.769448">
        <ele>688.034075</ele>
        <time>2021-11-19T23:36:17.391Z</time>
      </trkpt>
      <trkpt lat="47.711641" lon="7.768676">
        <ele>687.267800</ele>
        <time>2021-11-19T23:36:23.968Z</time>
      </trkpt>
      <trkpt lat="47.711558" lon="7.768253">
        <ele>686.900253</ele>
        <time>2021-11-19T23:36:27.295Z</time>
      </trkpt>
      <trkpt lat="47.711522" lon="7.767707">
        <ele>686.962738</ele>
        <time>2021-11-19T23:36:31.247Z</time>
      </trkpt>
      <trkpt lat="47.711535" lon="7.767521">
        <ele>687.005091</ele>
        <time>2021-11-19T23:36:32.600Z</time>
      </trkpt>
      <trkpt lat="47.711594" lon="7.766979">
        <ele>687.129444</ele>
        <time>2021-11-19T23:36:37.800Z</time>
      </trkpt>
      <trkpt lat="47.711544" lon="7.766597">
        <ele>687.217584</ele>
        <time>2021-11-19T23:36:42.577Z</time>
      </trkpt>
      <trkpt lat="47.711280" lon="7.766040">
        <ele>687.371895</ele>
        <time>2021-11-19T23:36:50.958Z</time>
      </trkpt>
      <trkpt lat="47.710793" lon="7.765513">
        <ele>688.847974</ele>
        <time>2021-11-19T23:37:07.219Z</time>
      </trkpt>
      <trkpt lat="47.709779" lon="7.764609">
        <ele>693.556652</ele>
        <time>2021-11-19T23:37:47.566Z</time>
      </trkpt>
      <trkpt lat="47.709606" lon="7.764460">
        <ele>694.352887</ele>
        <time>2021-11-19T23:37:54.179Z</time>
      </trkpt>
      <trkpt lat="47.709431" lon="7.764294">
        <ele>694.915435</ele>
        <time>2021-11-19T23:37:59.898Z</time>
      </trkpt>
      <trkpt lat="47.709325" lon="7.764019">
        <ele>695.364110</ele>
        <time>2021-11-19T23:38:06.237Z</time>
      </trkpt>
      <trkpt lat="47.709385" lon="7.763694">
        <ele>695.841222</ele>
        <time>2021-11-19T23:38:11.202Z</time>
      </trkpt>
      <trkpt lat="47.709432" lon="7.763572">
        <ele>696.040244</ele>
        <time>2021-11-19T23:38:14.933Z</time>
      </trkpt>
      <trkpt lat="47.709462" lon="7.763486">
        <ele>696.177384</ele>
        <time>2021-11-19T23:38:16.005Z</time>
      </trkpt>
      <trkpt lat="47.709753" lon="7.762866">
        <ele>697.247559</ele>
        <time>2021-11-19T23:38:26.298Z</time>
      </trkpt>
      <trkpt lat="47.710158" lon="7.762372">
        <ele>698.349904</ele>
        <time>2021-11-19T23:38:38.509Z</time>
      </trkpt>
      <trkpt lat="47.710244" lon="7.762179">
        <ele>698.507266</ele>
        <time>2021-11-19T23:38:40.114Z</time>
      </trkpt>
      <trkpt lat="47.710263" lon="7.762018">
        <ele>698.594743</ele>
        <time>2021-11-19T23:38:42.397Z</time>
      </trkpt>
      <trkpt lat="47.710195" lon="7.761616">
        <ele>698.816575</ele>
        <time>2021-11-19T23:38:46.297Z</time>
      </trkpt>
      <trkpt lat="47.710335" lon="7.761409">
        <ele>698.973644</ele>
        <time>2021-11-19T23:38:49.653Z</time>
      </trkpt>
      <trkpt lat="47.710427" lon="7.761335">
        <ele>699.056845</ele>
        <time>2021-11-19T23:38:50.852Z</time>
      </trkpt>
      <trkpt lat="47.710553" lon="7.761250">
        <ele>699.166899</ele>
        <time>2021-11-19T23:38:53.524Z</time>
      </trkpt>
      <trkpt lat="47.710690" lon="7.761172">
        <ele>699.283583</ele>
        <time>2021-11-19T23:38:56.270Z</time>
      </trkpt>
      <trkpt lat="47.711202" lon="7.760857">
        <ele>699.724312</ele>
        <time>2021-11-19T23:39:07.122Z</time>
      </trkpt>
      <trkpt lat="47.711645" lon="7.760532">
        <ele>699.548136</ele>
        <time>2021-11-19T23:39:17.870Z</time>
      </trkpt>
      <trkpt lat="47.711708" lon="7.760492">
        <ele>699.493040</ele>
        <time>2021-11-19T23:39:19.463Z</time>
      </trkpt>
      <trkpt lat="47.712488" lon="7.760312">
        <ele>698.858229</ele>
        <time>2021-11-19T23:39:35.377Z</time>
      </trkpt>
      <trkpt lat="47.712549" lon="7.760281">
        <ele>698.806382</ele>
        <time>2021-11-19T23:39:36.670Z</time>
      </trkpt>
      <trkpt lat="47.712622" lon="7.760244">
        <ele>698.744354</ele>
        <time>2021-11-19T23:39:37.436Z</time>
      </trkpt>
      <trkpt lat="47.712905" lon="7.760024">
        <ele>698.487504</ele>
        <time>2021-11-19T23:39:40.654Z</time>
      </trkpt>
      <trkpt lat="47.712940" lon="7.760005">
        <ele>698.457538</ele>
        <time>2021-11-19T23:39:40.967Z</time>
      </trkpt>
      <trkpt lat="47.713023" lon="7.759961">
        <ele>698.372647</ele>
        <time>2021-11-19T23:39:41.739Z</time>
      </trkpt>
      <trkpt lat="47.713181" lon="7.759935">
        <ele>696.597042</ele>
        <time>2021-11-19T23:39:43.365Z</time>
      </trkpt>
      <trkpt lat="47.713245" lon="7.759866">
        <ele>695.713899</ele>
        <time>2021-11-19T23:39:44.334Z</time>
      </trkpt>
      <trkpt lat="47.713375" lon="7.759775">
        <ele>694.108836</ele>
        <time>2021-11-19T23:39:46.070Z</time>
      </trkpt>
      <trkpt lat="47.713534" lon="7.759516">
        <ele>691.473880</ele>
        <time>2021-11-19T23:39:49.046Z</time>
      </trkpt>
      <trkpt lat="47.713603" lon="7.759357">
        <ele>690.051942</ele>
        <time>2021-11-19T23:39:50.566Z</time>
      </trkpt>
      <trkpt lat="47.713613" lon="7.759332">
        <ele>689.833362</ele>
        <time>2021-11-19T23:39:50.793Z</time>
      </trkpt>
      <trkpt lat="47.713803" lon="7.758954">
        <ele>686.287348</ele>
        <time>2021-11-19T23:39:54.670Z</time>
      </trkpt>
      <trkpt lat="47.713819" lon="7.758921">
        <ele>685.981656</ele>
        <time>2021-11-19T23:39:54.986Z</time>
      </trkpt>
      <trkpt lat="47.713925" lon="7.758755">
        <ele>684.261707</ele>
        <time>2021-11-19T23:39:56.912Z</time>
      </trkpt>
      <trkpt lat="47.714030" lon="7.758583">
        <ele>682.516302</ele>
        <time>2021-11-19T23:39:58.694Z</time>
      </trkpt>
      <trkpt lat="47.714195" lon="7.758215">
        <ele>679.192828</ele>
        <time>2021-11-19T23:40:02.150Z</time>
      </trkpt>
      <trkpt lat="47.714270" lon="7.758049">
        <ele>677.601637</ele>
        <time>2021-11-19T23:40:03.703Z</time>
      </trkpt>
      <trkpt lat="47.714377" lon="7.757266">
        <ele>670.722163</ele>
        <time>2021-11-19T23:40:09.970Z</time>
      </trkpt>
      <trkpt lat="47.714544" lon="7.756859">
        <ele>666.617552</ele>
        <time>2021-11-19T23:40:13.838Z</time>
      </trkpt>
      <trkpt lat="47.714578" lon="7.756703">
        <ele>665.205646</ele>
        <time>2021-11-19T23:40:15.104Z</time>
      </trkpt>
      <trkpt lat="47.714610" lon="7.756604">
        <ele>664.259971</ele>
        <time>2021-11-19T23:40:16.022Z</time>
      </trkpt>
      <trkpt lat="47.714651" lon="7.756431">
        <ele>662.680702</ele>
        <time>2021-11-19T23:40:18.100Z</time>
      </trkpt>
      <trkpt lat="47.714653" lon="7.756384">
        <ele>662.275214</ele>
        <time>2021-11-19T23:40:18.470Z</time>
      </trkpt>
      <trkpt lat="47.714525" lon="7.756285">
        <ele>660.428664</ele>
        <time>2021-11-19T23:40:20.135Z</time>
      </trkpt>
      <trkpt lat="47.714352" lon="7.756152">
        <ele>657.936126</ele>
        <time>2021-11-19T23:40:23.054Z</time>
      </trkpt>
      <trkpt lat="47.714158" lon="7.756030">
        <ele>655.251244</ele>
        <time>2021-11-19T23:40:25.525Z</time>
      </trkpt>
      <trkpt lat="47.714103" lon="7.756097">
        <ele>654.590843</ele>
        <time>2021-11-19T23:40:27.774Z</time>
      </trkpt>
      <trkpt lat="47.713944" lon="7.756392">
        <ele>652.229116</ele>
        <time>2021-11-19T23:40:29.898Z</time>
      </trkpt>
      <trkpt lat="47.713857" lon="7.756496">
        <ele>651.192286</ele>
        <time>2021-11-19T23:40:31.228Z</time>
      </trkpt>
      <trkpt lat="47.713811" lon="7.756520">
        <ele>650.739549</ele>
        <time>2021-11-19T23:40:31.691Z</time>
      </trkpt>
      <trkpt lat="47.713737" lon="7.756527">
        <ele>650.050955</ele>
        <time>2021-11-19T23:40:32.324Z</time>
      </trkpt>
      <trkpt lat="47.713689" lon="7.756505">
        <ele>649.584487</ele>
        <time>2021-11-19T23:40:32.734Z</time>
      </trkpt>
      <trkpt lat="47.713510" lon="7.756211">
        <ele>647.107029</ele>
        <time>2021-11-19T23:40:35.079Z</time>
      </trkpt>
      <trkpt lat="47.713197" lon="7.755119">
        <ele>639.690503</ele>
        <time>2021-11-19T23:40:42.100Z</time>
      </trkpt>
      <trkpt lat="47.713144" lon="7.754922">
        <ele>638.370684</ele>
        <time>2021-11-19T23:40:43.330Z</time>
      </trkpt>
      <trkpt lat="47.713125" lon="7.754853">
        <ele>637.917725</ele>
        <time>2021-11-19T23:40:43.806Z</time>
      </trkpt>
      <trkpt lat="47.713049" lon="7.754578">
        <ele>636.111509</ele>
        <time>2021-11-19T23:40:45.495Z</time>
      </trkpt>
      <trkpt lat="47.713010" lon="7.754423">
        <ele>635.106110</ele>
        <time>2021-11-19T23:40:46.454Z</time>
      </trkpt>
      <trkpt lat="47.712975" lon="7.754237">
        <ele>633.932699</ele>
        <time>2021-11-19T23:40:47.590Z</time>
      </trkpt>
      <trkpt lat="47.713035" lon="7.754227">
        <ele>633.387525</ele>
        <time>2021-11-19T23:40:48.094Z</time>
      </trkpt>
      <trkpt lat="47.713174" lon="7.754145">
        <ele>632.037148</ele>
        <time>2021-11-19T23:40:49.378Z</time>
      </trkpt>
      <trkpt lat="47.713273" lon="7.753976">
        <ele>630.675768</ele>
        <time>2021-11-19T23:40:50.694Z</time>
      </trkpt>
      <trkpt lat="47.713332" lon="7.753684">
        <ele>628.823455</ele>
        <time>2021-11-19T23:40:52.441Z</time>
      </trkpt>
      <trkpt lat="47.713300" lon="7.753437">
        <ele>627.295241</ele>
        <time>2021-11-19T23:40:53.921Z</time>
      </trkpt>
      <trkpt lat="47.713252" lon="7.753276">
        <ele>626.225360</ele>
        <time>2021-11-19T23:40:54.925Z</time>
      </trkpt>
      <trkpt lat="47.713133" lon="7.753109">
        <ele>624.747510</ele>
        <time>2021-11-19T23:40:56.354Z</time>
      </trkpt>
      <trkpt lat="47.712243" lon="7.751902">
        <ele>618.450020</ele>
        <time>2021-11-19T23:41:07.513Z</time>
      </trkpt>
      <trkpt lat="47.711957" lon="7.751267">
        <ele>616.319570</ele>
        <time>2021-11-19T23:41:12.743Z</time>
      </trkpt>
      <trkpt lat="47.711877" lon="7.750823">
        <ele>615.038046</ele>
        <time>2021-11-19T23:41:16.299Z</time>
      </trkpt>
      <trkpt lat="47.711861" lon="7.750347">
        <ele>615.379619</ele>
        <time>2021-11-19T23:41:20.341Z</time>
      </trkpt>
      <trkpt lat="47.712019" lon="7.749747">
        <ele>616.140185</ele>
        <time>2021-11-19T23:41:27.363Z</time>
      </trkpt>
      <trkpt lat="47.712024" lon="7.749516">
        <ele>616.413004</ele>
        <time>2021-11-19T23:41:30.302Z</time>
      </trkpt>
      <trkpt lat="47.711962" lon="7.749312">
        <ele>616.677237</ele>
        <time>2021-11-19T23:41:33.305Z</time>
      </trkpt>
      <trkpt lat="47.711469" lon="7.748703">
        <ele>617.801886</ele>
        <time>2021-11-19T23:41:48.472Z</time>
      </trkpt>
      <trkpt lat="47.711347" lon="7.748400">
        <ele>618.749813</ele>
        <time>2021-11-19T23:41:59.881Z</time>
      </trkpt>
      <trkpt lat="47.711275" lon="7.747957">
        <ele>620.870864</ele>
        <time>2021-11-19T23:42:13.016Z</time>
      </trkpt>
      <trkpt lat="47.711325" lon="7.747143">
        <ele>624.675039</ele>
        <time>2021-11-19T23:42:36.574Z</time>
      </trkpt>
      <trkpt lat="47.711442" lon="7.746911">
        <ele>626.024394</ele>
        <time>2021-11-19T23:42:47.248Z</time>
      </trkpt>
      <trkpt lat="47.711581" lon="7.746785">
        <ele>627.150554</ele>
        <time>2021-11-19T23:42:52.565Z</time>
      </trkpt>
      <trkpt lat="47.711701" lon="7.746731">
        <ele>628.017783</ele>
        <time>2021-11-19T23:42:59.575Z</time>
      </trkpt>
      <trkpt lat="47.711798" lon="7.746687">
        <ele>628.719267</ele>
        <time>2021-11-19T23:43:04.784Z</time>
      </trkpt>
      <trkpt lat="47.712033" lon="7.746420">
        <ele>630.647517</ele>
        <time>2021-11-19T23:43:16.424Z</time>
      </trkpt>
      <trkpt lat="47.712066" lon="7.746300">
        <ele>631.002595</ele>
        <time>2021-11-19T23:43:20.827Z</time>
      </trkpt>
      <trkpt lat="47.712081" lon="7.746187">
        <ele>631.318073</ele>
        <time>2021-11-19T23:43:22.236Z</time>
      </trkpt>
      <trkpt lat="47.712035" lon="7.745837">
        <ele>632.294856</ele>
        <time>2021-11-19T23:43:34.733Z</time>
      </trkpt>
      <trkpt lat="47.711852" lon="7.745238">
        <ele>634.096750</ele>
        <time>2021-11-19T23:43:51.732Z</time>
      </trkpt>
      <trkpt lat="47.711822" lon="7.744939">
        <ele>634.924784</ele>
        <time>2021-11-19T23:43:59.021Z</time>
      </trkpt>
      <trkpt lat="47.711873" lon="7.744436">
        <ele>636.318084</ele>
        <time>2021-11-19T23:44:07.041Z</time>
      </trkpt>
      <trkpt lat="47.711971" lon="7.744137">
        <ele>637.229057</ele>
        <time>2021-11-19T23:44:11.168Z</time>
      </trkpt>
      <trkpt lat="47.712028" lon="7.743968">
        <ele>637.746856</ele>
        <time>2021-11-19T23:44:12.802Z</time>
      </trkpt>
      <trkpt lat="47.712110" lon="7.743827">
        <ele>637.435757</ele>
        <time>2021-11-19T23:44:14.296Z</time>
      </trkpt>
      <trkpt lat="47.712169" lon="7.743670">
        <ele>637.041647</ele>
        <time>2021-11-19T23:44:15.866Z</time>
      </trkpt>
      <trkpt lat="47.712226" lon="7.743480">
        <ele>636.585729</ele>
        <time>2021-11-19T23:44:17.368Z</time>
      </trkpt>
      <trkpt lat="47.712234" lon="7.743054">
        <ele>635.651744</ele>
        <time>2021-11-19T23:44:20.507Z</time>
      </trkpt>
      <trkpt lat="47.712095" lon="7.741898">
        <ele>633.078117</ele>
        <time>2021-11-19T23:44:28.295Z</time>
      </trkpt>
      <trkpt lat="47.712099" lon="7.741769">
        <ele>632.795100</ele>
        <time>2021-11-19T23:44:29.122Z</time>
      </trkpt>
      <trkpt lat="47.712276" lon="7.741206">
        <ele>631.166367</ele>
        <time>2021-11-19T23:44:32.940Z</time>
      </trkpt>
      <trkpt lat="47.712263" lon="7.741077">
        <ele>630.730723</ele>
        <time>2021-11-19T23:44:33.739Z</time>
      </trkpt>
      <trkpt lat="47.712041" lon="7.740608">
        <ele>628.815567</ele>
        <time>2021-11-19T23:44:37.207Z</time>
      </trkpt>
      <trkpt lat="47.711793" lon="7.740467">
        <ele>627.497574</ele>
        <time>2021-11-19T23:44:39.687Z</time>
      </trkpt>
      <trkpt lat="47.711648" lon="7.740303">
        <ele>626.593122</ele>
        <time>2021-11-19T23:44:41.338Z</time>
      </trkpt>
      <trkpt lat="47.711525" lon="7.739752">
        <ele>624.654218</ele>
        <time>2021-11-19T23:44:45.076Z</time>
      </trkpt>
      <trkpt lat="47.711539" lon="7.739041">
        <ele>622.814223</ele>
        <time>2021-11-19T23:44:50.084Z</time>
      </trkpt>
      <trkpt lat="47.711566" lon="7.738770">
        <ele>622.565165</ele>
        <time>2021-11-19T23:44:51.911Z</time>
      </trkpt>
      <trkpt lat="47.711609" lon="7.738609">
        <ele>622.407687</ele>
        <time>2021-11-19T23:44:53.578Z</time>
      </trkpt>
      <trkpt lat="47.711805" lon="7.738262">
        <ele>621.995804</ele>
        <time>2021-11-19T23:44:56.896Z</time>
      </trkpt>
      <trkpt lat="47.712165" lon="7.738000">
        <ele>621.454210</ele>
        <time>2021-11-19T23:45:01.497Z</time>
      </trkpt>
      <trkpt lat="47.712359" lon="7.737862">
        <ele>621.163615</ele>
        <time>2021-11-19T23:45:04.004Z</time>
      </trkpt>
      <trkpt lat="47.712601" lon="7.737679">
        <ele>620.796752</ele>
        <time>2021-11-19T23:45:07.527Z</time>
      </trkpt>
      <trkpt lat="47.713052" lon="7.737270">
        <ele>621.712110</ele>
        <time>2021-11-19T23:45:18.596Z</time>
      </trkpt>
      <trkpt lat="47.713108" lon="7.737149">
        <ele>622.012358</ele>
        <time>2021-11-19T23:45:19.813Z</time>
      </trkpt>
      <trkpt lat="47.713133" lon="7.737073">
        <ele>622.185310</ele>
        <time>2021-11-19T23:45:21.089Z</time>
      </trkpt>
      <trkpt lat="47.713172" lon="7.736933">
        <ele>622.495092</ele>
        <time>2021-11-19T23:45:23.959Z</time>
      </trkpt>
      <trkpt lat="47.713202" lon="7.736801">
        <ele>622.779937</ele>
        <time>2021-11-19T23:45:26.591Z</time>
      </trkpt>
      <trkpt lat="47.713224" lon="7.736631">
        <ele>623.133861</ele>
        <time>2021-11-19T23:45:29.283Z</time>
      </trkpt>
      <trkpt lat="47.713223" lon="7.736523">
        <ele>623.354680</ele>
        <time>2021-11-19T23:45:31.794Z</time>
      </trkpt>
      <trkpt lat="47.713208" lon="7.736384">
        <ele>623.642488</ele>
        <time>2021-11-19T23:45:35.173Z</time>
      </trkpt>
      <trkpt lat="47.713169" lon="7.736257">
        <ele>623.927895</ele>
        <time>2021-11-19T23:45:37.393Z</time>
      </trkpt>
      <trkpt lat="47.713114" lon="7.736149">
        <ele>624.204808</ele>
        <time>2021-11-19T23:45:39.433Z</time>
      </trkpt>
      <trkpt lat="47.713057" lon="7.736076">
        <ele>624.433435</ele>
        <time>2021-11-19T23:45:41.630Z</time>
      </trkpt>
      <trkpt lat="47.713013" lon="7.736030">
        <ele>624.596892</ele>
        <time>2021-11-19T23:45:43.323Z</time>
      </trkpt>
      <trkpt lat="47.712962" lon="7.735999">
        <ele>624.764316</ele>
        <time>2021-11-19T23:45:44.952Z</time>
      </trkpt>
      <trkpt lat="47.712947" lon="7.735993">
        <ele>624.811515</ele>
        <time>2021-11-19T23:45:45.412Z</time>
      </trkpt>
      <trkpt lat="47.712880" lon="7.735969">
        <ele>625.020924</ele>
        <time>2021-11-19T23:45:47.170Z</time>
      </trkpt>
      <trkpt lat="47.712772" lon="7.735948">
        <ele>625.351879</ele>
        <time>2021-11-19T23:45:50.093Z</time>
      </trkpt>
      <trkpt lat="47.712673" lon="7.735923">
        <ele>625.657003</ele>
        <time>2021-11-19T23:45:54.079Z</time>
      </trkpt>
      <trkpt lat="47.712551" lon="7.735910">
        <ele>626.028652</ele>
        <time>2021-11-19T23:45:59.152Z</time>
      </trkpt>
      <trkpt lat="47.712252" lon="7.735529">
        <ele>628.837986</ele>
        <time>2021-11-19T23:46:14.037Z</time>
      </trkpt>
      <trkpt lat="47.712203" lon="7.735383">
        <ele>629.629031</ele>
        <time>2021-11-19T23:46:18.651Z</time>
      </trkpt>
      <trkpt lat="47.712174" lon="7.735231">
        <ele>630.395049</ele>
        <time>2021-11-19T23:46:23.307Z</time>
      </trkpt>
      <trkpt lat="47.712174" lon="7.734296">
        <ele>634.928347</ele>
        <time>2021-11-19T23:46:55.095Z</time>
      </trkpt>
      <trkpt lat="47.712151" lon="7.734114">
        <ele>635.826194</ele>
        <time>2021-11-19T23:47:00.847Z</time>
      </trkpt>
      <trkpt lat="47.712102" lon="7.733873">
        <ele>637.046852</ele>
        <time>2021-11-19T23:47:09.535Z</time>
      </trkpt>
      <trkpt lat="47.711977" lon="7.733539">
        <ele>638.899880</ele>
        <time>2021-11-19T23:47:19.654Z</time>
      </trkpt>
      <trkpt lat="47.711711" lon="7.733127">
        <ele>640.409520</ele>
        <time>2021-11-19T23:47:35.963Z</time>
      </trkpt>
      <trkpt lat="47.711652" lon="7.733077">
        <ele>640.667160</ele>
        <time>2021-11-19T23:47:39.424Z</time>
      </trkpt>
      <trkpt lat="47.711611" lon="7.733042">
        <ele>640.846519</ele>
        <time>2021-11-19T23:47:41.401Z</time>
      </trkpt>
      <trkpt lat="47.711298" lon="7.732899">
        <ele>642.088686</ele>
        <time>2021-11-19T23:47:52.401Z</time>
      </trkpt>
      <trkpt lat="47.711044" lon="7.732866">
        <ele>643.055881</ele>
        <time>2021-11-19T23:47:59.689Z</time>
      </trkpt>
      <trkpt lat="47.710237" lon="7.733085">
        <ele>645.680055</ele>
        <time>2021-11-19T23:48:17.665Z</time>
      </trkpt>
      <trkpt lat="47.709935" lon="7.733084">
        <ele>645.155945</ele>
        <time>2021-11-19T23:48:21.513Z</time>
      </trkpt>
      <trkpt lat="47.709791" lon="7.733051">
        <ele>644.903086</ele>
        <time>2021-11-19T23:48:23.152Z</time>
      </trkpt>
      <trkpt lat="47.709626" lon="7.732996">
        <ele>644.609621</ele>
        <time>2021-11-19T23:48:25.096Z</time>
      </trkpt>
      <trkpt lat="47.709347" lon="7.732871">
        <ele>644.103904</ele>
        <time>2021-11-19T23:48:28.279Z</time>
      </trkpt>
      <trkpt lat="47.709246" lon="7.732791">
        <ele>643.905281</ele>
        <time>2021-11-19T23:48:29.451Z</time>
      </trkpt>
      <trkpt lat="47.708874" lon="7.732423">
        <ele>643.129738</ele>
        <time>2021-11-19T23:48:34.082Z</time>
      </trkpt>
      <trkpt lat="47.708509" lon="7.731781">
        <ele>641.518906</ele>
        <time>2021-11-19T23:48:39.764Z</time>
      </trkpt>
      <trkpt lat="47.708321" lon="7.731223">
        <ele>639.976166</ele>
        <time>2021-11-19T23:48:43.922Z</time>
      </trkpt>
      <trkpt lat="47.708114" lon="7.730237">
        <ele>637.422689</ele>
        <time>2021-11-19T23:48:50.861Z</time>
      </trkpt>
      <trkpt lat="47.707948" lon="7.729868">
        <ele>636.325356</ele>
        <time>2021-11-19T23:48:53.772Z</time>
      </trkpt>
      <trkpt lat="47.707660" lon="7.729541">
        <ele>634.607355</ele>
        <time>2021-11-19T23:48:57.256Z</time>
      </trkpt>
      <trkpt lat="47.707344" lon="7.729389">
        <ele>632.962211</ele>
        <time>2021-11-19T23:49:00.441Z</time>
      </trkpt>
      <trkpt lat="47.707220" lon="7.729364">
        <ele>632.342395</ele>
        <time>2021-11-19T23:49:01.613Z</time>
      </trkpt>
      <trkpt lat="47.706729" lon="7.729305">
        <ele>629.902463</ele>
        <time>2021-11-19T23:49:06.238Z</time>
      </trkpt>
      <trkpt lat="47.705737" lon="7.728863">
        <ele>625.225299</ele>
        <time>2021-11-19T23:49:15.844Z</time>
      </trkpt>
      <trkpt lat="47.705338" lon="7.728853">
        <ele>623.617998</ele>
        <time>2021-11-19T23:49:19.590Z</time>
      </trkpt>
      <trkpt lat="47.704886" lon="7.728972">
        <ele>621.769102</ele>
        <time>2021-11-19T23:49:24.078Z</time>
      </trkpt>
      <trkpt lat="47.704467" lon="7.728924">
        <ele>620.076466</ele>
        <time>2021-11-19T23:49:28.502Z</time>
      </trkpt>
      <trkpt lat="47.704085" lon="7.728564">
        <ele>620.255484</ele>
        <time>2021-11-19T23:49:33.903Z</time>
      </trkpt>
      <trkpt lat="47.703923" lon="7.728090">
        <ele>620.514949</ele>
        <time>2021-11-19T23:49:39.755Z</time>
      </trkpt>
      <trkpt lat="47.704080" lon="7.725145">
        <ele>621.167383</ele>
        <time>2021-11-19T23:50:26.121Z</time>
      </trkpt>
      <trkpt lat="47.704053" lon="7.724985">
        <ele>621.157382</ele>
        <time>2021-11-19T23:50:27.759Z</time>
      </trkpt>
      <trkpt lat="47.703993" lon="7.724909">
        <ele>621.150278</ele>
        <time>2021-11-19T23:50:28.798Z</time>
      </trkpt>
      <trkpt lat="47.703592" lon="7.725045">
        <ele>621.113219</ele>
        <time>2021-11-19T23:50:33.384Z</time>
      </trkpt>
      <trkpt lat="47.703418" lon="7.725274">
        <ele>621.073754</ele>
        <time>2021-11-19T23:50:35.709Z</time>
      </trkpt>
      <trkpt lat="47.703297" lon="7.725540">
        <ele>619.778486</ele>
        <time>2021-11-19T23:50:37.782Z</time>
      </trkpt>
      <trkpt lat="47.703096" lon="7.725772">
        <ele>618.252747</ele>
        <time>2021-11-19T23:50:40.164Z</time>
      </trkpt>
      <trkpt lat="47.702697" lon="7.726079">
        <ele>615.559219</ele>
        <time>2021-11-19T23:50:44.211Z</time>
      </trkpt>
      <trkpt lat="47.702553" lon="7.726116">
        <ele>614.683169</ele>
        <time>2021-11-19T23:50:45.524Z</time>
      </trkpt>
      <trkpt lat="47.702421" lon="7.726114">
        <ele>613.891826</ele>
        <time>2021-11-19T23:50:46.709Z</time>
      </trkpt>
      <trkpt lat="47.702266" lon="7.726004">
        <ele>612.862109</ele>
        <time>2021-11-19T23:50:48.241Z</time>
      </trkpt>
      <trkpt lat="47.702038" lon="7.725647">
        <ele>610.876540</ele>
        <time>2021-11-19T23:50:51.203Z</time>
      </trkpt>
      <trkpt lat="47.701948" lon="7.725368">
        <ele>609.722225</ele>
        <time>2021-11-19T23:50:53.086Z</time>
      </trkpt>
      <trkpt lat="47.701896" lon="7.725076">
        <ele>608.671447</ele>
        <time>2021-11-19T23:50:54.921Z</time>
      </trkpt>
      <trkpt lat="47.701916" lon="7.724727">
        <ele>607.452944</ele>
        <time>2021-11-19T23:50:57.073Z</time>
      </trkpt>
      <trkpt lat="47.702252" lon="7.722887">
        <ele>600.847949</ele>
        <time>2021-11-19T23:51:09.336Z</time>
      </trkpt>
      <trkpt lat="47.702347" lon="7.722672">
        <ele>600.081125</ele>
        <time>2021-11-19T23:51:11.058Z</time>
      </trkpt>
      <trkpt lat="47.702491" lon="7.722501">
        <ele>599.264488</ele>
        <time>2021-11-19T23:51:12.936Z</time>
      </trkpt>
      <trkpt lat="47.702999" lon="7.722133">
        <ele>596.760764</ele>
        <time>2021-11-19T23:51:18.537Z</time>
      </trkpt>
      <trkpt lat="47.703093" lon="7.721736">
        <ele>595.506030</ele>
        <time>2021-11-19T23:51:21.261Z</time>
      </trkpt>
      <trkpt lat="47.703055" lon="7.721519">
        <ele>594.837525</ele>
        <time>2021-11-19T23:51:22.690Z</time>
      </trkpt>
      <trkpt lat="47.702804" lon="7.720859">
        <ele>592.410088</ele>
        <time>2021-11-19T23:51:27.427Z</time>
      </trkpt>
      <trkpt lat="47.702739" lon="7.720438">
        <ele>590.661063</ele>
        <time>2021-11-19T23:51:30.102Z</time>
      </trkpt>
      <trkpt lat="47.702742" lon="7.719843">
        <ele>588.251686</ele>
        <time>2021-11-19T23:51:33.779Z</time>
      </trkpt>
      <trkpt lat="47.702939" lon="7.718746">
        <ele>583.654227</ele>
        <time>2021-11-19T23:51:40.772Z</time>
      </trkpt>
      <trkpt lat="47.702937" lon="7.718550">
        <ele>582.860484</ele>
        <time>2021-11-19T23:51:41.973Z</time>
      </trkpt>
      <trkpt lat="47.702652" lon="7.717592">
        <ele>578.869262</ele>
        <time>2021-11-19T23:51:48.374Z</time>
      </trkpt>
      <trkpt lat="47.702623" lon="7.717313">
        <ele>577.805472</ele>
        <time>2021-11-19T23:51:50.111Z</time>
      </trkpt>
      <trkpt lat="47.702621" lon="7.716562">
        <ele>574.975539</ele>
        <time>2021-11-19T23:51:54.790Z</time>
      </trkpt>
      <trkpt lat="47.702502" lon="7.715371">
        <ele>572.165260</ele>
        <time>2021-11-19T23:52:02.356Z</time>
      </trkpt>
      <trkpt lat="47.702556" lon="7.714087">
        <ele>572.205880</ele>
        <time>2021-11-19T23:52:12.992Z</time>
      </trkpt>
      <trkpt lat="47.702593" lon="7.713352">
        <ele>572.229151</ele>
        <time>2021-11-19T23:52:28.213Z</time>
      </trkpt>
      <trkpt lat="47.702645" lon="7.713006">
        <ele>572.459293</ele>
        <time>2021-11-19T23:52:33.625Z</time>
      </trkpt>
      <trkpt lat="47.702681" lon="7.712888">
        <ele>572.640806</ele>
        <time>2021-11-19T23:52:39.730Z</time>
      </trkpt>
      <trkpt lat="47.702748" lon="7.712754">
        <ele>572.874685</ele>
        <time>2021-11-19T23:52:42.910Z</time>
      </trkpt>
      <trkpt lat="47.702981" lon="7.712628">
        <ele>573.390869</ele>
        <time>2021-11-19T23:52:56.323Z</time>
      </trkpt>
      <trkpt lat="47.703315" lon="7.712751">
        <ele>574.107227</ele>
        <time>2021-11-19T23:53:05.589Z</time>
      </trkpt>
      <trkpt lat="47.704378" lon="7.712858">
        <ele>574.772597</ele>
        <time>2021-11-19T23:53:22.345Z</time>
      </trkpt>
      <trkpt lat="47.704389" lon="7.712845">
        <ele>574.670381</ele>
        <time>2021-11-19T23:53:23.891Z</time>
      </trkpt>
      <trkpt lat="47.704443" lon="7.712778">
        <ele>574.158753</ele>
        <time>2021-11-19T23:53:24.598Z</time>
      </trkpt>
      <trkpt lat="47.704459" lon="7.712681">
        <ele>573.669961</ele>
        <time>2021-11-19T23:53:25.239Z</time>
      </trkpt>
      <trkpt lat="47.704441" lon="7.712558">
        <ele>573.053901</ele>
        <time>2021-11-19T23:53:25.940Z</time>
      </trkpt>
      <trkpt lat="47.704093" lon="7.712308">
        <ele>570.242741</ele>
        <time>2021-11-19T23:53:29.434Z</time>
      </trkpt>
      <trkpt lat="47.703776" lon="7.711801">
        <ele>566.855637</ele>
        <time>2021-11-19T23:53:33.535Z</time>
      </trkpt>
      <trkpt lat="47.703244" lon="7.710273">
        <ele>558.584008</ele>
        <time>2021-11-19T23:53:43.369Z</time>
      </trkpt>
      <trkpt lat="47.702732" lon="7.709500">
        <ele>553.452190</ele>
        <time>2021-11-19T23:53:50.041Z</time>
      </trkpt>
      <trkpt lat="47.702612" lon="7.709241">
        <ele>551.964365</ele>
        <time>2021-11-19T23:53:52.086Z</time>
      </trkpt>
      <trkpt lat="47.702547" lon="7.709005">
        <ele>550.757813</ele>
        <time>2021-11-19T23:53:53.823Z</time>
      </trkpt>
      <trkpt lat="47.702532" lon="7.708871">
        <ele>550.224691</ele>
        <time>2021-11-19T23:53:54.880Z</time>
      </trkpt>
      <trkpt lat="47.702539" lon="7.708522">
        <ele>549.888008</ele>
        <time>2021-11-19T23:53:57.313Z</time>
      </trkpt>
      <trkpt lat="47.702612" lon="7.708147">
        <ele>549.511578</ele>
        <time>2021-11-19T23:54:00.439Z</time>
      </trkpt>
      <trkpt lat="47.702915" lon="7.707307">
        <ele>548.592570</ele>
        <time>2021-11-19T23:54:08.582Z</time>
      </trkpt>
      <trkpt lat="47.702915" lon="7.706959">
        <ele>548.257002</ele>
        <time>2021-11-19T23:54:12.110Z</time>
      </trkpt>
      <trkpt lat="47.702810" lon="7.706299">
        <ele>547.456612</ele>
        <time>2021-11-19T23:54:18.329Z</time>
      </trkpt>
      <trkpt lat="47.702830" lon="7.706119">
        <ele>546.925489</ele>
        <time>2021-11-19T23:54:20.120Z</time>
      </trkpt>
      <trkpt lat="47.702886" lon="7.705990">
        <ele>546.478579</ele>
        <time>2021-11-19T23:54:21.065Z</time>
      </trkpt>
      <trkpt lat="47.702741" lon="7.705867">
        <ele>545.756299</ele>
        <time>2021-11-19T23:54:23.292Z</time>
      </trkpt>
      <trkpt lat="47.702251" lon="7.705127">
        <ele>542.733968</ele>
        <time>2021-11-19T23:54:29.942Z</time>
      </trkpt>
      <trkpt lat="47.702149" lon="7.705078">
        <ele>542.270232</ele>
        <time>2021-11-19T23:54:31.035Z</time>
      </trkpt>
      <trkpt lat="47.701844" lon="7.705188">
        <ele>540.912503</ele>
        <time>2021-11-19T23:54:33.902Z</time>
      </trkpt>
      <trkpt lat="47.701815" lon="7.705198">
        <ele>540.783716</ele>
        <time>2021-11-19T23:54:34.193Z</time>
      </trkpt>
      <trkpt lat="47.701766" lon="7.705214">
        <ele>540.566686</ele>
        <time>2021-11-19T23:54:34.638Z</time>
      </trkpt>
      <trkpt lat="47.701729" lon="7.705263">
        <ele>540.352279</ele>
        <time>2021-11-19T23:54:35.046Z</time>
      </trkpt>
      <trkpt lat="47.701671" lon="7.705550">
        <ele>539.027145</ele>
        <time>2021-11-19T23:54:36.920Z</time>
      </trkpt>
      <trkpt lat="47.701669" lon="7.705747">
        <ele>537.827531</ele>
        <time>2021-11-19T23:54:38.097Z</time>
      </trkpt>
      <trkpt lat="47.701664" lon="7.705991">
        <ele>536.341196</ele>
        <time>2021-11-19T23:54:39.549Z</time>
      </trkpt>
      <trkpt lat="47.701634" lon="7.706675">
        <ele>532.167678</ele>
        <time>2021-11-19T23:54:43.627Z</time>
      </trkpt>
      <trkpt lat="47.701543" lon="7.707149">
        <ele>529.166488</ele>
        <time>2021-11-19T23:54:46.482Z</time>
      </trkpt>
      <trkpt lat="47.701453" lon="7.707428">
        <ele>527.282667</ele>
        <time>2021-11-19T23:54:48.247Z</time>
      </trkpt>
      <trkpt lat="47.700894" lon="7.708521">
        <ele>518.533029</ele>
        <time>2021-11-19T23:54:56.160Z</time>
      </trkpt>
      <trkpt lat="47.700824" lon="7.708874">
        <ele>516.105827</ele>
        <time>2021-11-19T23:54:58.287Z</time>
      </trkpt>
      <trkpt lat="47.700766" lon="7.709160">
        <ele>514.135710</ele>
        <time>2021-11-19T23:55:00.011Z</time>
      </trkpt>
      <trkpt lat="47.700855" lon="7.709567">
        <ele>511.313161</ele>
        <time>2021-11-19T23:55:02.496Z</time>
      </trkpt>
      <trkpt lat="47.701087" lon="7.709941">
        <ele>507.958416</ele>
        <time>2021-11-19T23:55:05.469Z</time>
      </trkpt>
      <trkpt lat="47.701125" lon="7.710130">
        <ele>506.657418</ele>
        <time>2021-11-19T23:55:06.626Z</time>
      </trkpt>
      <trkpt lat="47.701112" lon="7.710324">
        <ele>505.491843</ele>
        <time>2021-11-19T23:55:07.776Z</time>
      </trkpt>
      <trkpt lat="47.700889" lon="7.711038">
        <ele>501.302240</ele>
        <time>2021-11-19T23:55:12.456Z</time>
      </trkpt>
      <trkpt lat="47.700782" lon="7.711609">
        <ele>498.147435</ele>
        <time>2021-11-19T23:55:15.967Z</time>
      </trkpt>
      <trkpt lat="47.700773" lon="7.712553">
        <ele>493.122413</ele>
        <time>2021-11-19T23:55:21.613Z</time>
      </trkpt>
      <trkpt lat="47.700773" lon="7.712812">
        <ele>491.746830</ele>
        <time>2021-11-19T23:55:23.203Z</time>
      </trkpt>
      <trkpt lat="47.700760" lon="7.713140">
        <ele>490.197737</ele>
        <time>2021-11-19T23:55:25.177Z</time>
      </trkpt>
      <trkpt lat="47.700757" lon="7.713174">
        <ele>490.036066</ele>
        <time>2021-11-19T23:55:25.387Z</time>
      </trkpt>
      <trkpt lat="47.700741" lon="7.713327">
        <ele>489.306064</ele>
        <time>2021-11-19T23:55:26.350Z</time>
      </trkpt>
      <trkpt lat="47.700648" lon="7.713594">
        <ele>487.888641</ele>
        <time>2021-11-19T23:55:28.152Z</time>
      </trkpt>
      <trkpt lat="47.700082" lon="7.715024">
        <ele>480.067074</ele>
        <time>2021-11-19T23:55:38.166Z</time>
      </trkpt>
      <trkpt lat="47.699987" lon="7.716032">
        <ele>476.099069</ele>
        <time>2021-11-19T23:55:44.355Z</time>
      </trkpt>
      <trkpt lat="47.699623" lon="7.716555">
        <ele>473.307282</ele>
        <time>2021-11-19T23:55:49.053Z</time>
      </trkpt>
      <trkpt lat="47.699586" lon="7.717231">
        <ele>470.790557</ele>
        <time>2021-11-19T23:55:53.324Z</time>
      </trkpt>
      <trkpt lat="47.698554" lon="7.718962">
        <ele>465.175269</ele>
        <time>2021-11-19T23:56:08.733Z</time>
      </trkpt>
      <trkpt lat="47.698527" lon="7.719311">
        <ele>464.420602</ele>
        <time>2021-11-19T23:56:11.335Z</time>
      </trkpt>
      <trkpt lat="47.698602" lon="7.719531">
        <ele>463.890822</ele>
        <time>2021-11-19T23:56:13.169Z</time>
      </trkpt>
      <trkpt lat="47.698895" lon="7.720013">
        <ele>462.761440</ele>
        <time>2021-11-19T23:56:18.090Z</time>
      </trkpt>
      <trkpt lat="47.698915" lon="7.720419">
        <ele>462.115773</ele>
        <time>2021-11-19T23:56:21.163Z</time>
      </trkpt>
      <trkpt lat="47.698719" lon="7.720634">
        <ele>461.541635</ele>
        <time>2021-11-19T23:56:23.888Z</time>
      </trkpt>
      <trkpt lat="47.698373" lon="7.720791">
        <ele>460.689069</ele>
        <time>2021-11-19T23:56:27.839Z</time>
      </trkpt>
      <trkpt lat="47.698322" lon="7.720917">
        <ele>460.455865</ele>
        <time>2021-11-19T23:56:28.895Z</time>
      </trkpt>
      <trkpt lat="47.698352" lon="7.721277">
        <ele>459.880514</ele>
        <time>2021-11-19T23:56:31.495Z</time>
      </trkpt>
      <trkpt lat="47.698538" lon="7.721642">
        <ele>459.002241</ele>
        <time>2021-11-19T23:56:34.643Z</time>
      </trkpt>
      <trkpt lat="47.698576" lon="7.721872">
        <ele>458.144503</ele>
        <time>2021-11-19T23:56:36.222Z</time>
      </trkpt>
      <trkpt lat="47.698550" lon="7.722049">
        <ele>457.488361</ele>
        <time>2021-11-19T23:56:37.409Z</time>
      </trkpt>
      <trkpt lat="47.698436" lon="7.722264">
        <ele>456.497058</ele>
        <time>2021-11-19T23:56:39.167Z</time>
      </trkpt>
      <trkpt lat="47.698034" lon="7.722637">
        <ele>453.946618</ele>
        <time>2021-11-19T23:56:43.581Z</time>
      </trkpt>
      <trkpt lat="47.697882" lon="7.723002">
        <ele>452.392069</ele>
        <time>2021-11-19T23:56:46.224Z</time>
      </trkpt>
      <trkpt lat="47.697898" lon="7.723278">
        <ele>451.388748</ele>
        <time>2021-11-19T23:56:47.916Z</time>
      </trkpt>
      <trkpt lat="47.698067" lon="7.723848">
        <ele>448.986754</ele>
        <time>2021-11-19T23:56:51.693Z</time>
      </trkpt>
      <trkpt lat="47.698038" lon="7.724068">
        <ele>447.917472</ele>
        <time>2021-11-19T23:56:53.046Z</time>
      </trkpt>
      <trkpt lat="47.697983" lon="7.724178">
        <ele>447.263859</ele>
        <time>2021-11-19T23:56:53.873Z</time>
      </trkpt>
      <trkpt lat="47.697392" lon="7.724648">
        <ele>442.513280</ele>
        <time>2021-11-19T23:56:59.873Z</time>
      </trkpt>
      <trkpt lat="47.697272" lon="7.725045">
        <ele>440.437463</ele>
        <time>2021-11-19T23:57:02.472Z</time>
      </trkpt>
      <trkpt lat="47.697197" lon="7.725491">
        <ele>438.244726</ele>
        <time>2021-11-19T23:57:05.243Z</time>
      </trkpt>
      <trkpt lat="47.697199" lon="7.726673">
        <ele>432.991251</ele>
        <time>2021-11-19T23:57:12.431Z</time>
      </trkpt>
      <trkpt lat="47.697155" lon="7.726954">
        <ele>431.739910</ele>
        <time>2021-11-19T23:57:14.228Z</time>
      </trkpt>
      <trkpt lat="47.697049" lon="7.727109">
        <ele>430.781476</ele>
        <time>2021-11-19T23:57:15.559Z</time>
      </trkpt>
      <trkpt lat="47.696882" lon="7.727201">
        <ele>429.633679</ele>
        <time>2021-11-19T23:57:17.192Z</time>
      </trkpt>
      <trkpt lat="47.696750" lon="7.727287">
        <ele>428.704839</ele>
        <time>2021-11-19T23:57:18.497Z</time>
      </trkpt>
      <trkpt lat="47.696640" lon="7.727461">
        <ele>427.669425</ele>
        <time>2021-11-19T23:57:19.965Z</time>
      </trkpt>
      <trkpt lat="47.696602" lon="7.727678">
        <ele>426.696877</ele>
        <time>2021-11-19T23:57:21.349Z</time>
      </trkpt>
      <trkpt lat="47.696636" lon="7.728107">
        <ele>424.912680</ele>
        <time>2021-11-19T23:57:24.006Z</time>
      </trkpt>
      <trkpt lat="47.696568" lon="7.728354">
        <ele>423.994272</ele>
        <time>2021-11-19T23:57:25.631Z</time>
      </trkpt>
      <trkpt lat="47.696413" lon="7.728504">
        <ele>423.048428</ele>
        <time>2021-11-19T23:57:27.353Z</time>
      </trkpt>
      <trkpt lat="47.695807" lon="7.728706">
        <ele>419.872793</ele>
        <time>2021-11-19T23:57:33.072Z</time>
      </trkpt>
      <trkpt lat="47.694711" lon="7.729402">
        <ele>414.930464</ele>
        <time>2021-11-19T23:57:44.687Z</time>
      </trkpt>
      <trkpt lat="47.694378" lon="7.729421">
        <ele>414.087240</ele>
        <time>2021-11-19T23:57:48.284Z</time>
      </trkpt>
      <trkpt lat="47.693987" lon="7.729271">
        <ele>413.065427</ele>
        <time>2021-11-19T23:57:52.652Z</time>
      </trkpt>
      <trkpt lat="47.693870" lon="7.729281">
        <ele>412.768888</ele>
        <time>2021-11-19T23:57:53.870Z</time>
      </trkpt>
      <trkpt lat="47.693776" lon="7.729311">
        <ele>412.525611</ele>
        <time>2021-11-19T23:57:55.673Z</time>
      </trkpt>
      <trkpt lat="47.693568" lon="7.729472">
        <ele>411.932153</ele>
        <time>2021-11-19T23:57:58.084Z</time>
      </trkpt>
      <trkpt lat="47.693469" lon="7.729648">
        <ele>411.541505</ele>
        <time>2021-11-19T23:58:00.502Z</time>
      </trkpt>
      <trkpt lat="47.692919" lon="7.730904">
        <ele>408.949031</ele>
        <time>2021-11-19T23:58:11.816Z</time>
      </trkpt>
      <trkpt lat="47.692365" lon="7.731840">
        <ele>406.717322</ele>
        <time>2021-11-19T23:58:20.258Z</time>
      </trkpt>
      <trkpt lat="47.692100" lon="7.732458">
        <ele>404.415427</ele>
        <time>2021-11-19T23:58:24.996Z</time>
      </trkpt>
      <trkpt lat="47.691977" lon="7.732859">
        <ele>403.031068</ele>
        <time>2021-11-19T23:58:27.822Z</time>
      </trkpt>
      <trkpt lat="47.691821" lon="7.733370">
        <ele>401.268385</ele>
        <time>2021-11-19T23:58:31.364Z</time>
      </trkpt>
      <trkpt lat="47.691565" lon="7.734601">
        <ele>397.175089</ele>
        <time>2021-11-19T23:58:39.525Z</time>
      </trkpt>
      <trkpt lat="47.691410" lon="7.734953">
        <ele>395.806013</ele>
        <time>2021-11-19T23:58:42.209Z</time>
      </trkpt>
      <trkpt lat="47.691290" lon="7.735124">
        <ele>395.001979</ele>
        <time>2021-11-19T23:58:43.746Z</time>
      </trkpt>
      <trkpt lat="47.691228" lon="7.735244">
        <ele>394.509605</ele>
        <time>2021-11-19T23:58:44.695Z</time>
      </trkpt>
      <trkpt lat="47.691181" lon="7.735378">
        <ele>394.017796</ele>
        <time>2021-11-19T23:58:45.706Z</time>
      </trkpt>
      <trkpt lat="47.691151" lon="7.735638">
        <ele>393.159191</ele>
        <time>2021-11-19T23:58:47.336Z</time>
      </trkpt>
      <trkpt lat="47.691112" lon="7.736029">
        <ele>391.872646</ele>
        <time>2021-11-19T23:58:49.918Z</time>
      </trkpt>
      <trkpt lat="47.691079" lon="7.736139">
        <ele>391.480663</ele>
        <time>2021-11-19T23:58:50.661Z</time>
      </trkpt>
      <trkpt lat="47.691042" lon="7.736262">
        <ele>391.042157</ele>
        <time>2021-11-19T23:58:51.495Z</time>
      </trkpt>
      <trkpt lat="47.690896" lon="7.736599">
        <ele>389.757231</ele>
        <time>2021-11-19T23:58:54.106Z</time>
      </trkpt>
      <trkpt lat="47.690889" lon="7.736615">
        <ele>389.717356</ele>
        <time>2021-11-19T23:58:54.225Z</time>
      </trkpt>
      <trkpt lat="47.690749" lon="7.736943">
        <ele>388.905768</ele>
        <time>2021-11-19T23:58:56.820Z</time>
      </trkpt>
      <trkpt lat="47.690725" lon="7.737033">
        <ele>388.703479</ele>
        <time>2021-11-19T23:58:57.424Z</time>
      </trkpt>
      <trkpt lat="47.690679" lon="7.737208">
        <ele>388.310894</ele>
        <time>2021-11-19T23:58:58.631Z</time>
      </trkpt>
      <trkpt lat="47.690632" lon="7.737490">
        <ele>387.703814</ele>
        <time>2021-11-19T23:59:00.732Z</time>
      </trkpt>
      <trkpt lat="47.690620" lon="7.737763">
        <ele>387.132121</ele>
        <time>2021-11-19T23:59:02.551Z</time>
      </trkpt>
      <trkpt lat="47.690574" lon="7.738144">
        <ele>386.323252</ele>
        <time>2021-11-19T23:59:05.304Z</time>
      </trkpt>
      <trkpt lat="47.690547" lon="7.738192">
        <ele>386.192537</ele>
        <time>2021-11-19T23:59:05.705Z</time>
      </trkpt>
      <trkpt lat="47.690534" lon="7.738217">
        <ele>386.126523</ele>
        <time>2021-11-19T23:59:05.931Z</time>
      </trkpt>
      <trkpt lat="47.690466" lon="7.738254">
        <ele>385.901710</ele>
        <time>2021-11-19T23:59:06.752Z</time>
      </trkpt>
      <trkpt lat="47.690414" lon="7.738257">
        <ele>385.740161</ele>
        <time>2021-11-19T23:59:07.352Z</time>
      </trkpt>
      <trkpt lat="47.690373" lon="7.738251">
        <ele>385.612265</ele>
        <time>2021-11-19T23:59:07.828Z</time>
      </trkpt>
      <trkpt lat="47.690188" lon="7.738141">
        <ele>384.993660</ele>
        <time>2021-11-19T23:59:09.900Z</time>
      </trkpt>
      <trkpt lat="47.689918" lon="7.737992">
        <ele>384.135028</ele>
        <time>2021-11-19T23:59:13.026Z</time>
      </trkpt>
      <trkpt lat="47.689715" lon="7.737879">
        <ele>383.681264</ele>
        <time>2021-11-19T23:59:15.311Z</time>
      </trkpt>
      <trkpt lat="47.689192" lon="7.737735">
        <ele>382.567889</ele>
        <time>2021-11-19T23:59:21.095Z</time>
      </trkpt>
      <trkpt lat="47.688900" lon="7.737742">
        <ele>381.956603</ele>
        <time>2021-11-19T23:59:24.327Z</time>
      </trkpt>
      <trkpt lat="47.688795" lon="7.737743">
        <ele>381.736815</ele>
        <time>2021-11-19T23:59:25.479Z</time>
      </trkpt>
      <trkpt lat="47.688176" lon="7.737850">
        <ele>380.432414</ele>
        <time>2021-11-19T23:59:32.424Z</time>
      </trkpt>
      <trkpt lat="47.688003" lon="7.737904">
        <ele>380.062941</ele>
        <time>2021-11-19T23:59:34.321Z</time>
      </trkpt>
      <trkpt lat="47.686856" lon="7.738288">
        <ele>377.605536</ele>
        <time>2021-11-19T23:59:46.980Z</time>
      </trkpt>
      <trkpt lat="47.685871" lon="7.738439">
        <ele>375.748427</ele>
        <time>2021-11-19T23:59:57.971Z</time>
      </trkpt>
      <trkpt lat="47.685295" lon="7.738591">
        <ele>374.751957</ele>
        <time>2021-11-20T00:00:04.613Z</time>
      </trkpt>
      <trkpt lat="47.684782" lon="7.738700">
        <ele>373.869264</ele>
        <time>2021-11-20T00:00:10.469Z</time>
      </trkpt>
      <trkpt lat="47.684345" lon="7.738781">
        <ele>373.259786</ele>
        <time>2021-11-20T00:00:15.491Z</time>
      </trkpt>
      <trkpt lat="47.683955" lon="7.738770">
        <ele>372.781653</ele>
        <time>2021-11-20T00:00:20.029Z</time>
      </trkpt>
      <trkpt lat="47.683619" lon="7.738743">
        <ele>372.369196</ele>
        <time>2021-11-20T00:00:24.041Z</time>
      </trkpt>
      <trkpt lat="47.683198" lon="7.738684">
        <ele>371.850859</ele>
        <time>2021-11-20T00:00:29.168Z</time>
      </trkpt>
      <trkpt lat="47.681369" lon="7.738489">
        <ele>369.991390</ele>
        <time>2021-11-20T00:00:51.906Z</time>
      </trkpt>
      <trkpt lat="47.680533" lon="7.738227">
        <ele>368.984910</ele>
        <time>2021-11-20T00:01:02.133Z</time>
      </trkpt>
      <trkpt lat="47.680227" lon="7.738094">
        <ele>368.568411</ele>
        <time>2021-11-20T00:01:05.873Z</time>
      </trkpt>
      <trkpt lat="47.679681" lon="7.737780">
        <ele>367.803558</ele>
        <time>2021-11-20T00:01:12.707Z</time>
      </trkpt>
      <trkpt lat="47.679312" lon="7.737558">
        <ele>367.318988</ele>
        <time>2021-11-20T00:01:17.250Z</time>
      </trkpt>
      <trkpt lat="47.679182" lon="7.737480">
        <ele>367.264895</ele>
        <time>2021-11-20T00:01:18.790Z</time>
      </trkpt>
      <trkpt lat="47.678261" lon="7.737149">
        <ele>366.899310</ele>
        <time>2021-11-20T00:01:30.894Z</time>
      </trkpt>
      <trkpt lat="47.677732" lon="7.737060">
        <ele>366.693912</ele>
        <time>2021-11-20T00:01:39.036Z</time>
      </trkpt>
      <trkpt lat="47.676927" lon="7.737026">
        <ele>367.186502</ele>
        <time>2021-11-20T00:01:54.360Z</time>
      </trkpt>
      <trkpt lat="47.674982" lon="7.736550">
        <ele>367.575408</ele>
        <time>2021-11-20T00:02:30.243Z</time>
      </trkpt>
      <trkpt lat="47.674295" lon="7.736409">
        <ele>367.126944</ele>
        <time>2021-11-20T00:02:38.107Z</time>
      </trkpt>
      <trkpt lat="47.673855" lon="7.736387">
        <ele>366.554028</ele>
        <time>2021-11-20T00:02:42.845Z</time>
      </trkpt>
      <trkpt lat="47.673492" lon="7.736461">
        <ele>365.707152</ele>
        <time>2021-11-20T00:02:46.684Z</time>
      </trkpt>
      <trkpt lat="47.673344" lon="7.736511">
        <ele>365.356337</ele>
        <time>2021-11-20T00:02:48.257Z</time>
      </trkpt>
      <trkpt lat="47.673154" lon="7.736575">
        <ele>364.906032</ele>
        <time>2021-11-20T00:02:50.284Z</time>
      </trkpt>
      <trkpt lat="47.672890" lon="7.736693">
        <ele>364.268807</ele>
        <time>2021-11-20T00:02:53.139Z</time>
      </trkpt>
      <trkpt lat="47.671561" lon="7.737762">
        <ele>361.524912</ele>
        <time>2021-11-20T00:03:09.877Z</time>
      </trkpt>
      <trkpt lat="47.671278" lon="7.738030">
        <ele>361.036749</ele>
        <time>2021-11-20T00:03:13.486Z</time>
      </trkpt>
      <trkpt lat="47.671021" lon="7.738380">
        <ele>360.529588</ele>
        <time>2021-11-20T00:03:17.621Z</time>
      </trkpt>
      <trkpt lat="47.670753" lon="7.738859">
        <ele>360.436415</ele>
        <time>2021-11-20T00:03:23.213Z</time>
      </trkpt>
      <trkpt lat="47.670331" lon="7.739901">
        <ele>361.600029</ele>
        <time>2021-11-20T00:03:39.686Z</time>
      </trkpt>
      <trkpt lat="47.670203" lon="7.740193">
        <ele>361.933457</ele>
        <time>2021-11-20T00:03:45.861Z</time>
      </trkpt>
      <trkpt lat="47.669750" lon="7.740792">
        <ele>362.858373</ele>
        <time>2021-11-20T00:03:59.325Z</time>
      </trkpt>
      <trkpt lat="47.669494" lon="7.740943">
        <ele>363.672114</ele>
        <time>2021-11-20T00:04:06.287Z</time>
      </trkpt>
      <trkpt lat="47.669351" lon="7.740999">
        <ele>364.109001</ele>
        <time>2021-11-20T00:04:10.495Z</time>
      </trkpt>
      <trkpt lat="47.669055" lon="7.741049">
        <ele>364.989073</ele>
        <time>2021-11-20T00:04:19.133Z</time>
      </trkpt>
      <trkpt lat="47.668124" lon="7.740949">
        <ele>367.746585</ele>
        <time>2021-11-20T00:04:45.991Z</time>
      </trkpt>
      <trkpt lat="47.667361" lon="7.741151">
        <ele>369.906617</ele>
        <time>2021-11-20T00:05:03.196Z</time>
      </trkpt>
      <trkpt lat="47.666724" lon="7.741022">
        <ele>371.681934</ele>
        <time>2021-11-20T00:05:20.473Z</time>
      </trkpt>
      <trkpt lat="47.665679" lon="7.741103">
        <ele>374.071904</ele>
        <time>2021-11-20T00:05:49.020Z</time>
      </trkpt>
      <trkpt lat="47.665373" lon="7.741092">
        <ele>374.645399</ele>
        <time>2021-11-20T00:05:56.901Z</time>
      </trkpt>
      <trkpt lat="47.664884" lon="7.741112">
        <ele>375.561946</ele>
        <time>2021-11-20T00:06:07.418Z</time>
      </trkpt>
      <trkpt lat="47.664445" lon="7.741223">
        <ele>376.374007</ele>
        <time>2021-11-20T00:06:15.591Z</time>
      </trkpt>
      <trkpt lat="47.663991" lon="7.741248">
        <ele>375.090251</ele>
        <time>2021-11-20T00:06:22.073Z</time>
      </trkpt>
      <trkpt lat="47.663281" lon="7.741134">
        <ele>373.072300</ele>
        <time>2021-11-20T00:06:29.691Z</time>
      </trkpt>
      <trkpt lat="47.662726" lon="7.741265">
        <ele>371.484338</ele>
        <time>2021-11-20T00:06:34.841Z</time>
      </trkpt>
      <trkpt lat="47.661687" lon="7.741310">
        <ele>365.724409</ele>
        <time>2021-11-20T00:06:44.468Z</time>
      </trkpt>
      <trkpt lat="47.661674" lon="7.741304">
        <ele>365.646567</ele>
        <time>2021-11-20T00:06:44.583Z</time>
      </trkpt>
      <trkpt lat="47.661611" lon="7.741276">
        <ele>365.270540</ele>
        <time>2021-11-20T00:06:45.166Z</time>
      </trkpt>
      <trkpt lat="47.661483" lon="7.741188">
        <ele>364.463983</ele>
        <time>2021-11-20T00:06:46.538Z</time>
      </trkpt>
      <trkpt lat="47.661424" lon="7.741131">
        <ele>364.061491</ele>
        <time>2021-11-20T00:06:47.248Z</time>
      </trkpt>
      <trkpt lat="47.661298" lon="7.741035">
        <ele>363.251702</ele>
        <time>2021-11-20T00:06:48.537Z</time>
      </trkpt>
      <trkpt lat="47.660437" lon="7.740780">
        <ele>358.952638</ele>
        <time>2021-11-20T00:06:56.723Z</time>
      </trkpt>
      <trkpt lat="47.660092" lon="7.740956">
        <ele>357.406096</ele>
        <time>2021-11-20T00:07:00.080Z</time>
      </trkpt>
      <trkpt lat="47.659914" lon="7.741102">
        <ele>356.543975</ele>
        <time>2021-11-20T00:07:02.173Z</time>
      </trkpt>
      <trkpt lat="47.659389" lon="7.741651">
        <ele>353.821614</ele>
        <time>2021-11-20T00:07:08.779Z</time>
      </trkpt>
      <trkpt lat="47.658430" lon="7.742636">
        <ele>352.802744</ele>
        <time>2021-11-20T00:07:20.495Z</time>
      </trkpt>
      <trkpt lat="47.657946" lon="7.742967">
        <ele>352.506515</ele>
        <time>2021-11-20T00:07:32.345Z</time>
      </trkpt>
      <trkpt lat="47.657396" lon="7.743356">
        <ele>354.539307</ele>
        <time>2021-11-20T00:07:53.479Z</time>
      </trkpt>
      <trkpt lat="47.656895" lon="7.743736">
        <ele>357.488900</ele>
        <time>2021-11-20T00:08:16.115Z</time>
      </trkpt>
      <trkpt lat="47.656798" lon="7.743812">
        <ele>358.063930</ele>
        <time>2021-11-20T00:08:19.883Z</time>
      </trkpt>
      <trkpt lat="47.656699" lon="7.743927">
        <ele>358.722967</ele>
        <time>2021-11-20T00:08:25.107Z</time>
      </trkpt>
      <trkpt lat="47.656638" lon="7.744059">
        <ele>359.288275</ele>
        <time>2021-11-20T00:08:30.245Z</time>
      </trkpt>
      <trkpt lat="47.656592" lon="7.744040">
        <ele>359.538605</ele>
        <time>2021-11-20T00:08:31.813Z</time>
      </trkpt>
      <trkpt lat="47.656129" lon="7.743833">
        <ele>361.938223</ele>
        <time>2021-11-20T00:08:51.488Z</time>
      </trkpt>
      <trkpt lat="47.654324" lon="7.743075">
        <ele>366.017712</ele>
        <time>2021-11-20T00:09:34.977Z</time>
      </trkpt>
      <trkpt lat="47.653639" lon="7.742914">
        <ele>365.478996</ele>
        <time>2021-11-20T00:09:42.961Z</time>
      </trkpt>
      <trkpt lat="47.653011" lon="7.743041">
        <ele>364.986679</ele>
        <time>2021-11-20T00:09:50.383Z</time>
      </trkpt>
      <trkpt lat="47.652352" lon="7.743329">
        <ele>364.087139</ele>
        <time>2021-11-20T00:09:58.652Z</time>
      </trkpt>
      <trkpt lat="47.651664" lon="7.743365">
        <ele>362.811989</ele>
        <time>2021-11-20T00:10:07.042Z</time>
      </trkpt>
      <trkpt lat="47.650941" lon="7.743251">
        <ele>361.465268</ele>
        <time>2021-11-20T00:10:14.949Z</time>
      </trkpt>
      <trkpt lat="47.650238" lon="7.743181">
        <ele>357.524229</ele>
        <time>2021-11-20T00:10:21.782Z</time>
      </trkpt>
      <trkpt lat="47.649349" lon="7.742957">
        <ele>352.261751</ele>
        <time>2021-11-20T00:10:29.909Z</time>
      </trkpt>
      <trkpt lat="47.648726" lon="7.742773">
        <ele>348.059150</ele>
        <time>2021-11-20T00:10:35.510Z</time>
      </trkpt>
      <trkpt lat="47.648686" lon="7.742761">
        <ele>347.770434</ele>
        <time>2021-11-20T00:10:35.867Z</time>
      </trkpt>
      <trkpt lat="47.648430" lon="7.742708">
        <ele>345.941739</ele>
        <time>2021-11-20T00:10:38.138Z</time>
      </trkpt>
      <trkpt lat="47.647923" lon="7.742761">
        <ele>342.345902</ele>
        <time>2021-11-20T00:10:42.649Z</time>
      </trkpt>
      <trkpt lat="47.647668" lon="7.742782">
        <ele>340.539039</ele>
        <time>2021-11-20T00:10:44.942Z</time>
      </trkpt>
      <trkpt lat="47.647263" lon="7.742628">
        <ele>337.920905</ele>
        <time>2021-11-20T00:10:48.808Z</time>
      </trkpt>
      <trkpt lat="47.647031" lon="7.742584">
        <ele>337.231297</ele>
        <time>2021-11-20T00:10:51.097Z</time>
      </trkpt>
      <trkpt lat="47.646932" lon="7.742608">
        <ele>336.935530</ele>
        <time>2021-11-20T00:10:52.042Z</time>
      </trkpt>
      <trkpt lat="47.646840" lon="7.742630">
        <ele>336.660773</ele>
        <time>2021-11-20T00:10:53.010Z</time>
      </trkpt>
      <trkpt lat="47.646642" lon="7.742762">
        <ele>336.020796</ele>
        <time>2021-11-20T00:10:55.234Z</time>
      </trkpt>
      <trkpt lat="47.646406" lon="7.742933">
        <ele>335.246475</ele>
        <time>2021-11-20T00:10:58.017Z</time>
      </trkpt>
      <trkpt lat="47.646017" lon="7.743245">
        <ele>333.942783</ele>
        <time>2021-11-20T00:11:02.842Z</time>
      </trkpt>
      <trkpt lat="47.645911" lon="7.743330">
        <ele>333.587552</ele>
        <time>2021-11-20T00:11:04.161Z</time>
      </trkpt>
      <trkpt lat="47.645734" lon="7.743440">
        <ele>333.021774</ele>
        <time>2021-11-20T00:11:06.500Z</time>
      </trkpt>
      <trkpt lat="47.645188" lon="7.743513">
        <ele>332.343563</ele>
        <time>2021-11-20T00:11:13.013Z</time>
      </trkpt>
      <trkpt lat="47.645131" lon="7.743484">
        <ele>332.280457</ele>
        <time>2021-11-20T00:11:13.745Z</time>
      </trkpt>
      <trkpt lat="47.645054" lon="7.743433">
        <ele>332.192149</ele>
        <time>2021-11-20T00:11:14.768Z</time>
      </trkpt>
      <trkpt lat="47.644925" lon="7.743203">
        <ele>331.980987</ele>
        <time>2021-11-20T00:11:17.232Z</time>
      </trkpt>
      <trkpt lat="47.644734" lon="7.742487">
        <ele>331.437619</ele>
        <time>2021-11-20T00:11:23.636Z</time>
      </trkpt>
      <trkpt lat="47.644669" lon="7.742280">
        <ele>331.276476</ele>
        <time>2021-11-20T00:11:25.541Z</time>
      </trkpt>
      <trkpt lat="47.644599" lon="7.742155">
        <ele>331.161786</ele>
        <time>2021-11-20T00:11:26.895Z</time>
      </trkpt>
      <trkpt lat="47.644397" lon="7.741849">
        <ele>330.911966</ele>
        <time>2021-11-20T00:11:30.526Z</time>
      </trkpt>
      <trkpt lat="47.644276" lon="7.741683">
        <ele>330.816685</ele>
        <time>2021-11-20T00:11:32.621Z</time>
      </trkpt>
      <trkpt lat="47.644182" lon="7.741417">
        <ele>330.699660</ele>
        <time>2021-11-20T00:11:35.179Z</time>
      </trkpt>
      <trkpt lat="47.644157" lon="7.741340">
        <ele>330.666359</ele>
        <time>2021-11-20T00:11:35.921Z</time>
      </trkpt>
      <trkpt lat="47.644056" lon="7.741009">
        <ele>330.524791</ele>
        <time>2021-11-20T00:11:39.154Z</time>
      </trkpt>
      <trkpt lat="47.644034" lon="7.740945">
        <ele>330.496798</ele>
        <time>2021-11-20T00:11:39.788Z</time>
      </trkpt>
      <trkpt lat="47.643938" lon="7.740664">
        <ele>330.374049</ele>
        <time>2021-11-20T00:11:42.633Z</time>
      </trkpt>
      <trkpt lat="47.643881" lon="7.740570">
        <ele>330.324778</ele>
        <time>2021-11-20T00:11:43.759Z</time>
      </trkpt>
      <trkpt lat="47.643783" lon="7.740468">
        <ele>330.255562</ele>
        <time>2021-11-20T00:11:45.318Z</time>
      </trkpt>
      <trkpt lat="47.643656" lon="7.740319">
        <ele>330.161949</ele>
        <time>2021-11-20T00:11:47.509Z</time>
      </trkpt>
      <trkpt lat="47.643591" lon="7.740215">
        <ele>330.106680</ele>
        <time>2021-11-20T00:11:48.789Z</time>
      </trkpt>
      <trkpt lat="47.643475" lon="7.739785">
        <ele>329.931540</ele>
        <time>2021-11-20T00:11:52.903Z</time>
      </trkpt>
      <trkpt lat="47.643306" lon="7.739930">
        <ele>329.876853</ele>
        <time>2021-11-20T00:11:55.501Z</time>
      </trkpt>
      <trkpt lat="47.643301" lon="7.739935">
        <ele>329.875164</ele>
        <time>2021-11-20T00:11:55.584Z</time>
      </trkpt>
      <trkpt lat="47.643168" lon="7.740007">
        <ele>329.835503</ele>
        <time>2021-11-20T00:11:57.517Z</time>
      </trkpt>
      <trkpt lat="47.643121" lon="7.740032">
        <ele>329.821516</ele>
        <time>2021-11-20T00:11:58.206Z</time>
      </trkpt>
      <trkpt lat="47.642972" lon="7.740117">
        <ele>329.776797</ele>
        <time>2021-11-20T00:12:00.378Z</time>
      </trkpt>
      <trkpt lat="47.642922" lon="7.740181">
        <ele>329.758300</ele>
        <time>2021-11-20T00:12:01.295Z</time>
      </trkpt>
      <trkpt lat="47.642911" lon="7.740194">
        <ele>329.754360</ele>
        <time>2021-11-20T00:12:01.476Z</time>
      </trkpt>
      <trkpt lat="47.642862" lon="7.740256">
        <ele>329.736322</ele>
        <time>2021-11-20T00:12:02.343Z</time>
      </trkpt>
      <trkpt lat="47.642822" lon="7.740329">
        <ele>329.718561</ele>
        <time>2021-11-20T00:12:03.155Z</time>
      </trkpt>
      <trkpt lat="47.642798" lon="7.740374">
        <ele>329.707728</ele>
        <time>2021-11-20T00:12:03.713Z</time>
      </trkpt>
      <trkpt lat="47.642647" lon="7.740709">
        <ele>329.631651</ele>
        <time>2021-11-20T00:12:07.473Z</time>
      </trkpt>
      <trkpt lat="47.642519" lon="7.740966">
        <ele>329.571326</ele>
        <time>2021-11-20T00:12:10.580Z</time>
      </trkpt>
      <trkpt lat="47.642394" lon="7.741202">
        <ele>329.514663</ele>
        <time>2021-11-20T00:12:13.409Z</time>
      </trkpt>
      <trkpt lat="47.642274" lon="7.741453">
        <ele>329.456571</ele>
        <time>2021-11-20T00:12:16.492Z</time>
      </trkpt>
      <trkpt lat="47.642209" lon="7.741595">
        <ele>329.438497</ele>
        <time>2021-11-20T00:12:18.090Z</time>
      </trkpt>
      <trkpt lat="47.642066" lon="7.741908">
        <ele>329.487710</ele>
        <time>2021-11-20T00:12:21.870Z</time>
      </trkpt>
      <trkpt lat="47.641997" lon="7.741966">
        <ele>329.503026</ele>
        <time>2021-11-20T00:12:23.031Z</time>
      </trkpt>
      <trkpt lat="47.641954" lon="7.741976">
        <ele>329.511433</ele>
        <time>2021-11-20T00:12:23.605Z</time>
      </trkpt>
      <trkpt lat="47.641958" lon="7.742061">
        <ele>329.522521</ele>
        <time>2021-11-20T00:12:24.479Z</time>
      </trkpt>
      <trkpt lat="47.641960" lon="7.742153">
        <ele>329.534500</ele>
        <time>2021-11-20T00:12:25.454Z</time>
      </trkpt>
      <trkpt lat="47.641952" lon="7.742244">
        <ele>329.546442</ele>
        <time>2021-11-20T00:12:26.438Z</time>
      </trkpt>
      <trkpt lat="47.641935" lon="7.742324">
        <ele>329.557359</ele>
        <time>2021-11-20T00:12:27.314Z</time>
      </trkpt>
      <trkpt lat="47.641903" lon="7.742471">
        <ele>329.577462</ele>
        <time>2021-11-20T00:12:28.835Z</time>
      </trkpt>
      <trkpt lat="47.641887" lon="7.742564">
        <ele>329.589953</ele>
        <time>2021-11-20T00:12:29.737Z</time>
      </trkpt>
      <trkpt lat="47.641875" lon="7.742622">
        <ele>329.597848</ele>
        <time>2021-11-20T00:12:30.412Z</time>
      </trkpt>
      <trkpt lat="47.641858" lon="7.742708">
        <ele>329.609512</ele>
        <time>2021-11-20T00:12:31.439Z</time>
      </trkpt>
      <trkpt lat="47.641802" lon="7.742982">
        <ele>329.646773</ele>
        <time>2021-11-20T00:12:34.497Z</time>
      </trkpt>
      <trkpt lat="47.641773" lon="7.743087">
        <ele>329.661540</ele>
        <time>2021-11-20T00:12:35.630Z</time>
      </trkpt>
      <trkpt lat="47.641651" lon="7.743319">
        <ele>329.699839</ele>
        <time>2021-11-20T00:12:38.979Z</time>
      </trkpt>
      <trkpt lat="47.641543" lon="7.743498">
        <ele>329.731108</ele>
        <time>2021-11-20T00:12:41.412Z</time>
      </trkpt>
      <trkpt lat="47.641440" lon="7.743669">
        <ele>329.760957</ele>
        <time>2021-11-20T00:12:44.036Z</time>
      </trkpt>
      <trkpt lat="47.641133" lon="7.744182">
        <ele>329.930436</ele>
        <time>2021-11-20T00:12:51.896Z</time>
      </trkpt>
      <trkpt lat="47.641118" lon="7.744203">
        <ele>329.938968</ele>
        <time>2021-11-20T00:12:52.286Z</time>
      </trkpt>
      <trkpt lat="47.641021" lon="7.744322">
        <ele>329.991041</ele>
        <time>2021-11-20T00:12:54.442Z</time>
      </trkpt>
      <trkpt lat="47.641089" lon="7.744504">
        <ele>330.049061</ele>
        <time>2021-11-20T00:12:56.915Z</time>
      </trkpt>
      <trkpt lat="47.641098" lon="7.744530">
        <ele>330.057210</ele>
        <time>2021-11-20T00:12:57.187Z</time>
      </trkpt>
      <trkpt lat="47.641149" lon="7.744754">
        <ele>330.123128</ele>
        <time>2021-11-20T00:12:59.813Z</time>
      </trkpt>
      <trkpt lat="47.641056" lon="7.744855">
        <ele>330.170812</ele>
        <time>2021-11-20T00:13:01.810Z</time>
      </trkpt>
      <trkpt lat="47.640998" lon="7.744824">
        <ele>330.196319</ele>
        <time>2021-11-20T00:13:02.761Z</time>
      </trkpt>
      <trkpt lat="47.640958" lon="7.744746">
        <ele>330.223647</ele>
        <time>2021-11-20T00:13:03.740Z</time>
      </trkpt>
      <trkpt lat="47.640859" lon="7.744671">
        <ele>330.269639</ele>
        <time>2021-11-20T00:13:05.557Z</time>
      </trkpt>
      <trkpt lat="47.640802" lon="7.744697">
        <ele>330.294313</ele>
        <time>2021-11-20T00:13:06.532Z</time>
      </trkpt>
      <trkpt lat="47.640698" lon="7.744798">
        <ele>330.345740</ele>
        <time>2021-11-20T00:13:08.587Z</time>
      </trkpt>
      <trkpt lat="47.640175" lon="7.745392">
        <ele>331.250145</ele>
        <time>2021-11-20T00:13:18.915Z</time>
      </trkpt>
      <trkpt lat="47.640078" lon="7.745242">
        <ele>331.697960</ele>
        <time>2021-11-20T00:13:20.907Z</time>
      </trkpt>
      <trkpt lat="47.639661" lon="7.744599">
        <ele>333.620243</ele>
        <time>2021-11-20T00:13:32.732Z</time>
      </trkpt>
      <trkpt lat="47.639286" lon="7.744230">
        <ele>335.058574</ele>
        <time>2021-11-20T00:13:44.098Z</time>
      </trkpt>
      <trkpt lat="47.639124" lon="7.743936">
        <ele>335.876630</ele>
        <time>2021-11-20T00:13:54.488Z</time>
      </trkpt>
      <trkpt lat="47.639034" lon="7.743640">
        <ele>337.341270</ele>
        <time>2021-11-20T00:14:05.182Z</time>
      </trkpt>
      <trkpt lat="47.638834" lon="7.743716">
        <ele>339.673299</ele>
        <time>2021-11-20T00:14:17.515Z</time>
      </trkpt>
      <trkpt lat="47.638586" lon="7.743801">
        <ele>342.548380</ele>
        <time>2021-11-20T00:14:33.741Z</time>
      </trkpt>
      <trkpt lat="47.638337" lon="7.743810">
        <ele>345.361858</ele>
        <time>2021-11-20T00:14:48.152Z</time>
      </trkpt>
      <trkpt lat="47.638011" lon="7.743662">
        <ele>349.212716</ele>
        <time>2021-11-20T00:15:09.498Z</time>
      </trkpt>
      <trkpt lat="47.637785" lon="7.743491">
        <ele>352.078193</ele>
        <time>2021-11-20T00:15:26.428Z</time>
      </trkpt>
      <trkpt lat="47.637644" lon="7.743238">
        <ele>354.577159</ele>
        <time>2021-11-20T00:15:42.377Z</time>
      </trkpt>
      <trkpt lat="47.637552" lon="7.742900">
        <ele>357.242200</ele>
        <time>2021-11-20T00:15:58.143Z</time>
      </trkpt>
      <trkpt lat="47.637523" lon="7.742385">
        <ele>360.609192</ele>
        <time>2021-11-20T00:16:20.999Z</time>
      </trkpt>
      <trkpt lat="47.637556" lon="7.741902">
        <ele>363.772139</ele>
        <time>2021-11-20T00:16:41.685Z</time>
      </trkpt>
      <trkpt lat="47.637528" lon="7.741566">
        <ele>365.977903</ele>
        <time>2021-11-20T00:16:55.935Z</time>
      </trkpt>
      <trkpt lat="47.637507" lon="7.741319">
        <ele>367.599902</ele>
        <time>2021-11-20T00:17:05.649Z</time>
      </trkpt>
      <trkpt lat="47.637359" lon="7.740737">
        <ele>371.652761</ele>
        <time>2021-11-20T00:17:23.001Z</time>
      </trkpt>
      <trkpt lat="47.637115" lon="7.740401">
        <ele>374.437947</ele>
        <time>2021-11-20T00:17:33.754Z</time>
      </trkpt>
      <trkpt lat="47.636771" lon="7.740116">
        <ele>376.390905</ele>
        <time>2021-11-20T00:17:46.875Z</time>
      </trkpt>
      <trkpt lat="47.636317" lon="7.740109">
        <ele>378.641538</ele>
        <time>2021-11-20T00:18:02.380Z</time>
      </trkpt>
      <trkpt lat="47.636139" lon="7.739987">
        <ele>379.613454</ele>
        <time>2021-11-20T00:18:08.855Z</time>
      </trkpt>
      <trkpt lat="47.635963" lon="7.739717">
        <ele>380.868258</ele>
        <time>2021-11-20T00:18:17.456Z</time>
      </trkpt>
      <trkpt lat="47.635790" lon="7.739028">
        <ele>383.289695</ele>
        <time>2021-11-20T00:18:34.781Z</time>
      </trkpt>
      <trkpt lat="47.635441" lon="7.738683">
        <ele>385.199622</ele>
        <time>2021-11-20T00:18:49.885Z</time>
      </trkpt>
      <trkpt lat="47.634316" lon="7.737920">
        <ele>390.833305</ele>
        <time>2021-11-20T00:19:31.048Z</time>
      </trkpt>
      <trkpt lat="47.632595" lon="7.737266">
        <ele>396.620371</ele>
        <time>2021-11-20T00:20:19.690Z</time>
      </trkpt>
      <trkpt lat="47.632395" lon="7.737249">
        <ele>397.196868</ele>
        <time>2021-11-20T00:20:24.732Z</time>
      </trkpt>
      <trkpt lat="47.632230" lon="7.737357">
        <ele>397.676628</ele>
        <time>2021-11-20T00:20:29.372Z</time>
      </trkpt>
      <trkpt lat="47.631655" lon="7.738144">
        <ele>399.757648</ele>
        <time>2021-11-20T00:20:48.412Z</time>
      </trkpt>
      <trkpt lat="47.631444" lon="7.738356">
        <ele>400.435547</ele>
        <time>2021-11-20T00:20:55.215Z</time>
      </trkpt>
      <trkpt lat="47.631083" lon="7.738808">
        <ele>401.700603</ele>
        <time>2021-11-20T00:21:07.070Z</time>
      </trkpt>
      <trkpt lat="47.630948" lon="7.739058">
        <ele>402.416991</ele>
        <time>2021-11-20T00:21:13.145Z</time>
      </trkpt>
      <trkpt lat="47.630898" lon="7.739304">
        <ele>402.991572</ele>
        <time>2021-11-20T00:21:17.279Z</time>
      </trkpt>
      <trkpt lat="47.630891" lon="7.739335">
        <ele>403.064682</ele>
        <time>2021-11-20T00:21:17.861Z</time>
      </trkpt>
      <trkpt lat="47.630944" lon="7.739673">
        <ele>403.840710</ele>
        <time>2021-11-20T00:21:24.755Z</time>
      </trkpt>
      <trkpt lat="47.630907" lon="7.739873">
        <ele>404.304496</ele>
        <time>2021-11-20T00:21:28.194Z</time>
      </trkpt>
      <trkpt lat="47.630897" lon="7.740046">
        <ele>404.692780</ele>
        <time>2021-11-20T00:21:32.041Z</time>
      </trkpt>
      <trkpt lat="47.630863" lon="7.740423">
        <ele>405.543345</ele>
        <time>2021-11-20T00:21:38.629Z</time>
      </trkpt>
      <trkpt lat="47.630897" lon="7.740602">
        <ele>405.959221</ele>
        <time>2021-11-20T00:21:42.489Z</time>
      </trkpt>
      <trkpt lat="47.631280" lon="7.741275">
        <ele>408.049782</ele>
        <time>2021-11-20T00:21:59.443Z</time>
      </trkpt>
      <trkpt lat="47.631424" lon="7.741490">
        <ele>408.998008</ele>
        <time>2021-11-20T00:22:06.254Z</time>
      </trkpt>
      <trkpt lat="47.631477" lon="7.741795">
        <ele>409.983305</ele>
        <time>2021-11-20T00:22:13.178Z</time>
      </trkpt>
      <trkpt lat="47.631282" lon="7.742608">
        <ele>412.682782</ele>
        <time>2021-11-20T00:22:32.714Z</time>
      </trkpt>
      <trkpt lat="47.631260" lon="7.742819">
        <ele>413.350679</ele>
        <time>2021-11-20T00:22:37.688Z</time>
      </trkpt>
      <trkpt lat="47.631202" lon="7.744011">
        <ele>417.178766</ele>
        <time>2021-11-20T00:23:05.989Z</time>
      </trkpt>
      <trkpt lat="47.631185" lon="7.744218">
        <ele>417.883565</ele>
        <time>2021-11-20T00:23:10.777Z</time>
      </trkpt>
      <trkpt lat="47.631075" lon="7.745596">
        <ele>422.573527</ele>
        <time>2021-11-20T00:23:44.828Z</time>
      </trkpt>
      <trkpt lat="47.631034" lon="7.745824">
        <ele>423.371092</ele>
        <time>2021-11-20T00:23:49.913Z</time>
      </trkpt>
      <trkpt lat="47.630948" lon="7.746031">
        <ele>424.192986</ele>
        <time>2021-11-20T00:23:55.768Z</time>
      </trkpt>
      <trkpt lat="47.630697" lon="7.746375">
        <ele>425.731156</ele>
        <time>2021-11-20T00:24:07.046Z</time>
      </trkpt>
      <trkpt lat="47.629711" lon="7.747557">
        <ele>430.863343</ele>
        <time>2021-11-20T00:24:45.665Z</time>
      </trkpt>
      <trkpt lat="47.629452" lon="7.747871">
        <ele>432.217507</ele>
        <time>2021-11-20T00:24:55.902Z</time>
      </trkpt>
      <trkpt lat="47.629212" lon="7.748211">
        <ele>433.522247</ele>
        <time>2021-11-20T00:25:05.967Z</time>
      </trkpt>
      <trkpt lat="47.628729" lon="7.749001">
        <ele>436.344839</ele>
        <time>2021-11-20T00:25:28.048Z</time>
      </trkpt>
      <trkpt lat="47.628604" lon="7.749202">
        <ele>437.068587</ele>
        <time>2021-11-20T00:25:33.325Z</time>
      </trkpt>
      <trkpt lat="47.628584" lon="7.749233">
        <ele>437.182150</ele>
        <time>2021-11-20T00:25:35.000Z</time>
      </trkpt>
      <trkpt lat="47.627609" lon="7.750299">
        <ele>441.249915</ele>
        <time>2021-11-20T00:26:11.320Z</time>
      </trkpt>
      <trkpt lat="47.625761" lon="7.752304">
        <ele>446.300489</ele>
        <time>2021-11-20T00:27:06.573Z</time>
      </trkpt>
      <trkpt lat="47.624838" lon="7.753339">
        <ele>447.157332</ele>
        <time>2021-11-20T00:27:24.663Z</time>
      </trkpt>
      <trkpt lat="47.624277" lon="7.754101">
        <ele>446.955658</ele>
        <time>2021-11-20T00:27:34.540Z</time>
      </trkpt>
      <trkpt lat="47.622712" lon="7.756863">
        <ele>445.889785</ele>
        <time>2021-11-20T00:28:07.576Z</time>
      </trkpt>
      <trkpt lat="47.622511" lon="7.757074">
        <ele>445.622770</ele>
        <time>2021-11-20T00:28:10.656Z</time>
      </trkpt>
      <trkpt lat="47.622401" lon="7.757191">
        <ele>445.475995</ele>
        <time>2021-11-20T00:28:12.188Z</time>
      </trkpt>
      <trkpt lat="47.621775" lon="7.757496">
        <ele>444.761471</ele>
        <time>2021-11-20T00:28:19.783Z</time>
      </trkpt>
      <trkpt lat="47.621392" lon="7.757689">
        <ele>444.322828</ele>
        <time>2021-11-20T00:28:24.477Z</time>
      </trkpt>
      <trkpt lat="47.621012" lon="7.757974">
        <ele>444.181704</ele>
        <time>2021-11-20T00:28:29.791Z</time>
      </trkpt>
      <trkpt lat="47.620828" lon="7.758215">
        <ele>444.358407</ele>
        <time>2021-11-20T00:28:33.125Z</time>
      </trkpt>
      <trkpt lat="47.620566" lon="7.758657">
        <ele>444.644031</ele>
        <time>2021-11-20T00:28:38.831Z</time>
      </trkpt>
      <trkpt lat="47.620058" lon="7.759513">
        <ele>445.197472</ele>
        <time>2021-11-20T00:28:53.068Z</time>
      </trkpt>
      <trkpt lat="47.619245" lon="7.761370">
        <ele>448.897111</ele>
        <time>2021-11-20T00:29:35.555Z</time>
      </trkpt>
      <trkpt lat="47.618940" lon="7.761783">
        <ele>450.039613</ele>
        <time>2021-11-20T00:29:46.100Z</time>
      </trkpt>
      <trkpt lat="47.618742" lon="7.761992">
        <ele>450.281828</ele>
        <time>2021-11-20T00:29:51.365Z</time>
      </trkpt>
      <trkpt lat="47.618586" lon="7.762088">
        <ele>450.229673</ele>
        <time>2021-11-20T00:29:54.776Z</time>
      </trkpt>
      <trkpt lat="47.618125" lon="7.762615">
        <ele>450.049948</ele>
        <time>2021-11-20T00:30:04.134Z</time>
      </trkpt>
      <trkpt lat="47.617894" lon="7.763136">
        <ele>449.920139</ele>
        <time>2021-11-20T00:30:09.384Z</time>
      </trkpt>
      <trkpt lat="47.617858" lon="7.763622">
        <ele>449.818364</ele>
        <time>2021-11-20T00:30:13.139Z</time>
      </trkpt>
      <trkpt lat="47.617849" lon="7.763863">
        <ele>449.758369</ele>
        <time>2021-11-20T00:30:14.889Z</time>
      </trkpt>
      <trkpt lat="47.617934" lon="7.764271">
        <ele>449.073132</ele>
        <time>2021-11-20T00:30:17.825Z</time>
      </trkpt>
      <trkpt lat="47.618136" lon="7.764529">
        <ele>448.438617</ele>
        <time>2021-11-20T00:30:20.508Z</time>
      </trkpt>
      <trkpt lat="47.617927" lon="7.765048">
        <ele>447.468531</ele>
        <time>2021-11-20T00:30:24.711Z</time>
      </trkpt>
      <trkpt lat="47.617756" lon="7.765839">
        <ele>446.135604</ele>
        <time>2021-11-20T00:30:30.683Z</time>
      </trkpt>
      <trkpt lat="47.617587" lon="7.766558">
        <ele>445.169774</ele>
        <time>2021-11-20T00:30:36.473Z</time>
      </trkpt>
      <trkpt lat="47.617431" lon="7.767002">
        <ele>444.724579</ele>
        <time>2021-11-20T00:30:40.605Z</time>
      </trkpt>
      <trkpt lat="47.617229" lon="7.767356">
        <ele>444.312181</ele>
        <time>2021-11-20T00:30:44.465Z</time>
      </trkpt>
      <trkpt lat="47.616591" lon="7.768154">
        <ele>443.211407</ele>
        <time>2021-11-20T00:30:54.464Z</time>
      </trkpt>
      <trkpt lat="47.616428" lon="7.768317">
        <ele>442.813170</ele>
        <time>2021-11-20T00:30:56.890Z</time>
      </trkpt>
      <trkpt lat="47.616270" lon="7.768392">
        <ele>442.408163</ele>
        <time>2021-11-20T00:30:58.710Z</time>
      </trkpt>
      <trkpt lat="47.615847" lon="7.768379">
        <ele>441.375230</ele>
        <time>2021-11-20T00:31:03.402Z</time>
      </trkpt>
      <trkpt lat="47.615686" lon="7.768286">
        <ele>440.953417</ele>
        <time>2021-11-20T00:31:05.276Z</time>
      </trkpt>
      <trkpt lat="47.615034" lon="7.767629">
        <ele>439.029118</ele>
        <time>2021-11-20T00:31:13.358Z</time>
      </trkpt>
      <trkpt lat="47.614847" lon="7.767530">
        <ele>438.472530</ele>
        <time>2021-11-20T00:31:15.333Z</time>
      </trkpt>
      <trkpt lat="47.614663" lon="7.767520">
        <ele>437.843421</ele>
        <time>2021-11-20T00:31:17.193Z</time>
      </trkpt>
      <trkpt lat="47.614123" lon="7.767665">
        <ele>435.968377</ele>
        <time>2021-11-20T00:31:22.555Z</time>
      </trkpt>
      <trkpt lat="47.613763" lon="7.767578">
        <ele>434.722120</ele>
        <time>2021-11-20T00:31:26.188Z</time>
      </trkpt>
      <trkpt lat="47.613205" lon="7.767665">
        <ele>432.805056</ele>
        <time>2021-11-20T00:31:31.939Z</time>
      </trkpt>
      <trkpt lat="47.613003" lon="7.767758">
        <ele>432.153424</ele>
        <time>2021-11-20T00:31:34.058Z</time>
      </trkpt>
      <trkpt lat="47.612771" lon="7.767909">
        <ele>431.411695</ele>
        <time>2021-11-20T00:31:36.657Z</time>
      </trkpt>
      <trkpt lat="47.612502" lon="7.768119">
        <ele>430.521743</ele>
        <time>2021-11-20T00:31:39.786Z</time>
      </trkpt>
      <trkpt lat="47.611960" lon="7.768717">
        <ele>428.544126</ele>
        <time>2021-11-20T00:31:46.819Z</time>
      </trkpt>
      <trkpt lat="47.611843" lon="7.768871">
        <ele>428.086177</ele>
        <time>2021-11-20T00:31:48.423Z</time>
      </trkpt>
      <trkpt lat="47.611735" lon="7.769126">
        <ele>427.491803</ele>
        <time>2021-11-20T00:31:50.485Z</time>
      </trkpt>
      <trkpt lat="47.611495" lon="7.770538">
        <ele>424.582745</ele>
        <time>2021-11-20T00:32:00.593Z</time>
      </trkpt>
      <trkpt lat="47.611349" lon="7.770818">
        <ele>423.875025</ele>
        <time>2021-11-20T00:32:02.933Z</time>
      </trkpt>
      <trkpt lat="47.610490" lon="7.771899">
        <ele>420.762688</ele>
        <time>2021-11-20T00:32:14.660Z</time>
      </trkpt>
      <trkpt lat="47.610258" lon="7.772352">
        <ele>419.805192</ele>
        <time>2021-11-20T00:32:18.794Z</time>
      </trkpt>
      <trkpt lat="47.610187" lon="7.772679">
        <ele>419.226976</ele>
        <time>2021-11-20T00:32:21.398Z</time>
      </trkpt>
      <trkpt lat="47.610132" lon="7.773138">
        <ele>418.442321</ele>
        <time>2021-11-20T00:32:24.737Z</time>
      </trkpt>
      <trkpt lat="47.610139" lon="7.773592">
        <ele>417.677989</ele>
        <time>2021-11-20T00:32:27.941Z</time>
      </trkpt>
      <trkpt lat="47.610312" lon="7.774653">
        <ele>414.838133</ele>
        <time>2021-11-20T00:32:35.571Z</time>
      </trkpt>
      <trkpt lat="47.610473" lon="7.775477">
        <ele>412.515435</ele>
        <time>2021-11-20T00:32:41.276Z</time>
      </trkpt>
      <trkpt lat="47.610502" lon="7.776042">
        <ele>410.981332</ele>
        <time>2021-11-20T00:32:44.872Z</time>
      </trkpt>
      <trkpt lat="47.610448" lon="7.776605">
        <ele>408.801079</ele>
        <time>2021-11-20T00:32:48.399Z</time>
      </trkpt>
      <trkpt lat="47.610341" lon="7.777059">
        <ele>406.485717</ele>
        <time>2021-11-20T00:32:51.345Z</time>
      </trkpt>
      <trkpt lat="47.610133" lon="7.777501">
        <ele>403.890705</ele>
        <time>2021-11-20T00:32:54.606Z</time>
      </trkpt>
      <trkpt lat="47.609368" lon="7.778574">
        <ele>396.250125</ele>
        <time>2021-11-20T00:33:03.919Z</time>
      </trkpt>
      <trkpt lat="47.608894" lon="7.779407">
        <ele>390.391172</ele>
        <time>2021-11-20T00:33:10.376Z</time>
      </trkpt>
      <trkpt lat="47.608573" lon="7.780374">
        <ele>384.597660</ele>
        <time>2021-11-20T00:33:16.780Z</time>
      </trkpt>
      <trkpt lat="47.608399" lon="7.780950">
        <ele>381.844574</ele>
        <time>2021-11-20T00:33:20.561Z</time>
      </trkpt>
      <trkpt lat="47.608295" lon="7.781364">
        <ele>380.279319</ele>
        <time>2021-11-20T00:33:23.274Z</time>
      </trkpt>
      <trkpt lat="47.608309" lon="7.781587">
        <ele>379.485842</ele>
        <time>2021-11-20T00:33:24.677Z</time>
      </trkpt>
      <trkpt lat="47.608437" lon="7.781938">
        <ele>378.072038</ele>
        <time>2021-11-20T00:33:27.180Z</time>
      </trkpt>
      <trkpt lat="47.608448" lon="7.782041">
        <ele>377.702574</ele>
        <time>2021-11-20T00:33:27.849Z</time>
      </trkpt>
      <trkpt lat="47.608319" lon="7.782746">
        <ele>375.114500</ele>
        <time>2021-11-20T00:33:32.590Z</time>
      </trkpt>
      <trkpt lat="47.608293" lon="7.782840">
        <ele>374.754533</ele>
        <time>2021-11-20T00:33:33.247Z</time>
      </trkpt>
      <trkpt lat="47.608067" lon="7.783679">
        <ele>372.911530</ele>
        <time>2021-11-20T00:33:39.426Z</time>
      </trkpt>
      <trkpt lat="47.608000" lon="7.783873">
        <ele>372.644468</ele>
        <time>2021-11-20T00:33:40.983Z</time>
      </trkpt>
      <trkpt lat="47.607811" lon="7.784422">
        <ele>371.889205</ele>
        <time>2021-11-20T00:33:45.726Z</time>
      </trkpt>
      <trkpt lat="47.607784" lon="7.784501">
        <ele>371.780686</ele>
        <time>2021-11-20T00:33:46.405Z</time>
      </trkpt>
      <trkpt lat="47.607357" lon="7.785276">
        <ele>370.554392</ele>
        <time>2021-11-20T00:33:55.235Z</time>
      </trkpt>
      <trkpt lat="47.607244" lon="7.785405">
        <ele>370.290629</ele>
        <time>2021-11-20T00:33:56.887Z</time>
      </trkpt>
      <trkpt lat="47.607090" lon="7.785536">
        <ele>369.945213</ele>
        <time>2021-11-20T00:33:59.119Z</time>
      </trkpt>
      <trkpt lat="47.606894" lon="7.785802">
        <ele>369.428307</ele>
        <time>2021-11-20T00:34:02.224Z</time>
      </trkpt>
      <trkpt lat="47.606482" lon="7.786756">
        <ele>367.942111</ele>
        <time>2021-11-20T00:34:10.915Z</time>
      </trkpt>
      <trkpt lat="47.606236" lon="7.787573">
        <ele>366.678656</ele>
        <time>2021-11-20T00:34:17.150Z</time>
      </trkpt>
      <trkpt lat="47.606058" lon="7.787870">
        <ele>365.653673</ele>
        <time>2021-11-20T00:34:19.868Z</time>
      </trkpt>
      <trkpt lat="47.605245" lon="7.789093">
        <ele>361.223620</ele>
        <time>2021-11-20T00:34:31.019Z</time>
      </trkpt>
      <trkpt lat="47.604933" lon="7.789879">
        <ele>359.226938</ele>
        <time>2021-11-20T00:34:37.122Z</time>
      </trkpt>
      <trkpt lat="47.604861" lon="7.790465">
        <ele>358.183658</ele>
        <time>2021-11-20T00:34:41.247Z</time>
      </trkpt>
      <trkpt lat="47.604776" lon="7.790738">
        <ele>357.656977</ele>
        <time>2021-11-20T00:34:43.376Z</time>
      </trkpt>
      <trkpt lat="47.604673" lon="7.790747">
        <ele>357.388946</ele>
        <time>2021-11-20T00:34:44.472Z</time>
      </trkpt>
      <trkpt lat="47.604312" lon="7.790667">
        <ele>356.440752</ele>
        <time>2021-11-20T00:34:48.445Z</time>
      </trkpt>
      <trkpt lat="47.604020" lon="7.790669">
        <ele>355.682204</ele>
        <time>2021-11-20T00:34:51.691Z</time>
      </trkpt>
      <trkpt lat="47.603500" lon="7.790696">
        <ele>354.829867</ele>
        <time>2021-11-20T00:34:57.537Z</time>
      </trkpt>
      <trkpt lat="47.603379" lon="7.790683">
        <ele>354.675759</ele>
        <time>2021-11-20T00:34:58.885Z</time>
      </trkpt>
      <trkpt lat="47.603218" lon="7.790665">
        <ele>354.470663</ele>
        <time>2021-11-20T00:35:00.732Z</time>
      </trkpt>
      <trkpt lat="47.602292" lon="7.790564">
        <ele>353.291199</ele>
        <time>2021-11-20T00:35:12.009Z</time>
      </trkpt>
      <trkpt lat="47.601954" lon="7.790533">
        <ele>352.884539</ele>
        <time>2021-11-20T00:35:16.222Z</time>
      </trkpt>
      <trkpt lat="47.601768" lon="7.790511">
        <ele>352.681952</ele>
        <time>2021-11-20T00:35:18.600Z</time>
      </trkpt>
      <trkpt lat="47.601359" lon="7.790478">
        <ele>352.237232</ele>
        <time>2021-11-20T00:35:23.711Z</time>
      </trkpt>
      <trkpt lat="47.601073" lon="7.790573">
        <ele>351.919019</ele>
        <time>2021-11-20T00:35:27.348Z</time>
      </trkpt>
      <trkpt lat="47.600304" lon="7.790832">
        <ele>351.055150</ele>
        <time>2021-11-20T00:35:36.737Z</time>
      </trkpt>
      <trkpt lat="47.600211" lon="7.790869">
        <ele>350.839231</ele>
        <time>2021-11-20T00:35:37.858Z</time>
      </trkpt>
      <trkpt lat="47.600151" lon="7.790895">
        <ele>350.699060</ele>
        <time>2021-11-20T00:35:38.576Z</time>
      </trkpt>
      <trkpt lat="47.599667" lon="7.791105">
        <ele>349.568232</ele>
        <time>2021-11-20T00:35:44.281Z</time>
      </trkpt>
      <trkpt lat="47.598592" lon="7.791580">
        <ele>347.052905</ele>
        <time>2021-11-20T00:35:56.039Z</time>
      </trkpt>
      <trkpt lat="47.598252" lon="7.791731">
        <ele>346.146218</ele>
        <time>2021-11-20T00:35:59.665Z</time>
      </trkpt>
      <trkpt lat="47.598017" lon="7.791913">
        <ele>345.467227</ele>
        <time>2021-11-20T00:36:02.375Z</time>
      </trkpt>
      <trkpt lat="47.597848" lon="7.792115">
        <ele>344.911313</ele>
        <time>2021-11-20T00:36:04.638Z</time>
      </trkpt>
      <trkpt lat="47.597646" lon="7.792396">
        <ele>344.201979</ele>
        <time>2021-11-20T00:36:07.533Z</time>
      </trkpt>
      <trkpt lat="47.596504" lon="7.792669">
        <ele>341.494358</ele>
        <time>2021-11-20T00:36:20.058Z</time>
      </trkpt>
      <trkpt lat="47.595750" lon="7.792802">
        <ele>339.965979</ele>
        <time>2021-11-20T00:36:28.447Z</time>
      </trkpt>
      <trkpt lat="47.595245" lon="7.792802">
        <ele>338.949497</ele>
        <time>2021-11-20T00:36:33.976Z</time>
      </trkpt>
      <trkpt lat="47.595133" lon="7.792800">
        <ele>338.736731</ele>
        <time>2021-11-20T00:36:35.217Z</time>
      </trkpt>
      <trkpt lat="47.594154" lon="7.792816">
        <ele>337.057462</ele>
        <time>2021-11-20T00:36:46.031Z</time>
      </trkpt>
      <trkpt lat="47.594082" lon="7.792808">
        <ele>336.933622</ele>
        <time>2021-11-20T00:36:46.841Z</time>
      </trkpt>
      <trkpt lat="47.593971" lon="7.792763">
        <ele>336.736250</ele>
        <time>2021-11-20T00:36:48.615Z</time>
      </trkpt>
      <trkpt lat="47.593728" lon="7.792495">
        <ele>336.216817</ele>
        <time>2021-11-20T00:36:53.507Z</time>
      </trkpt>
      <trkpt lat="47.593198" lon="7.791524">
        <ele>335.850319</ele>
        <time>2021-11-20T00:37:08.029Z</time>
      </trkpt>
      <trkpt lat="47.592913" lon="7.791301">
        <ele>335.923095</ele>
        <time>2021-11-20T00:37:15.389Z</time>
      </trkpt>
      <trkpt lat="47.592574" lon="7.791231">
        <ele>336.000393</ele>
        <time>2021-11-20T00:37:24.249Z</time>
      </trkpt>
      <trkpt lat="47.592294" lon="7.791165">
        <ele>336.064422</ele>
        <time>2021-11-20T00:37:31.092Z</time>
      </trkpt>
      <trkpt lat="47.592223" lon="7.791117">
        <ele>336.082044</ele>
        <time>2021-11-20T00:37:32.918Z</time>
      </trkpt>
      <trkpt lat="47.592139" lon="7.791043">
        <ele>336.104110</ele>
        <time>2021-11-20T00:37:34.336Z</time>
      </trkpt>
      <trkpt lat="47.592020" lon="7.790907">
        <ele>336.140975</ele>
        <time>2021-11-20T00:37:37.528Z</time>
      </trkpt>
      <trkpt lat="47.591651" lon="7.790400">
        <ele>336.302229</ele>
        <time>2021-11-20T00:37:45.724Z</time>
      </trkpt>
      <trkpt lat="47.591450" lon="7.790091">
        <ele>336.395036</ele>
        <time>2021-11-20T00:37:50.489Z</time>
      </trkpt>
      <trkpt lat="47.591284" lon="7.789842">
        <ele>336.470725</ele>
        <time>2021-11-20T00:37:53.942Z</time>
      </trkpt>
      <trkpt lat="47.590789" lon="7.789356">
        <ele>336.661025</ele>
        <time>2021-11-20T00:38:04.577Z</time>
      </trkpt>
      <trkpt lat="47.590653" lon="7.789281">
        <ele>336.707536</ele>
        <time>2021-11-20T00:38:06.328Z</time>
      </trkpt>
      <trkpt lat="47.590583" lon="7.789238">
        <ele>336.615255</ele>
        <time>2021-11-20T00:38:07.670Z</time>
      </trkpt>
      <trkpt lat="47.590436" lon="7.789150">
        <ele>336.421649</ele>
        <time>2021-11-20T00:38:09.764Z</time>
      </trkpt>
      <trkpt lat="47.590142" lon="7.788907">
        <ele>336.010582</ele>
        <time>2021-11-20T00:38:14.013Z</time>
      </trkpt>
      <trkpt lat="47.590060" lon="7.788799">
        <ele>335.876635</ele>
        <time>2021-11-20T00:38:15.221Z</time>
      </trkpt>
      <trkpt lat="47.590023" lon="7.788867">
        <ele>335.804671</ele>
        <time>2021-11-20T00:38:16.000Z</time>
      </trkpt>
      <trkpt lat="47.589889" lon="7.789013">
        <ele>335.601589</ele>
        <time>2021-11-20T00:38:17.808Z</time>
      </trkpt>
      <trkpt lat="47.589648" lon="7.789139">
        <ele>335.289504</ele>
        <time>2021-11-20T00:38:20.728Z</time>
      </trkpt>
      <trkpt lat="47.588924" lon="7.789149">
        <ele>334.340439</ele>
        <time>2021-11-20T00:38:28.939Z</time>
      </trkpt>
      <trkpt lat="47.588623" lon="7.789048">
        <ele>333.732371</ele>
        <time>2021-11-20T00:38:32.557Z</time>
      </trkpt>
      <trkpt lat="47.588438" lon="7.788977">
        <ele>333.355846</ele>
        <time>2021-11-20T00:38:34.528Z</time>
      </trkpt>
      <trkpt lat="47.587697" lon="7.788612">
        <ele>331.817366</ele>
        <time>2021-11-20T00:38:43.082Z</time>
      </trkpt>
      <trkpt lat="47.587461" lon="7.788566">
        <ele>331.348367</ele>
        <time>2021-11-20T00:38:45.634Z</time>
      </trkpt>
      <trkpt lat="47.586929" lon="7.788594">
        <ele>330.716286</ele>
        <time>2021-11-20T00:38:51.351Z</time>
      </trkpt>
      <trkpt lat="47.586660" lon="7.788693">
        <ele>330.511146</ele>
        <time>2021-11-20T00:38:54.662Z</time>
      </trkpt>
      <trkpt lat="47.586591" lon="7.788719">
        <ele>330.458453</ele>
        <time>2021-11-20T00:38:55.560Z</time>
      </trkpt>
      <trkpt lat="47.586523" lon="7.788744">
        <ele>330.406599</ele>
        <time>2021-11-20T00:38:56.374Z</time>
      </trkpt>
      <trkpt lat="47.585521" lon="7.789426">
        <ele>329.597066</ele>
        <time>2021-11-20T00:39:12.866Z</time>
      </trkpt>
      <trkpt lat="47.584464" lon="7.789827">
        <ele>328.905607</ele>
        <time>2021-11-20T00:39:29.688Z</time>
      </trkpt>
      <trkpt lat="47.584293" lon="7.789957">
        <ele>328.783818</ele>
        <time>2021-11-20T00:39:32.337Z</time>
      </trkpt>
      <trkpt lat="47.584135" lon="7.790107">
        <ele>328.664915</ele>
        <time>2021-11-20T00:39:34.437Z</time>
      </trkpt>
      <trkpt lat="47.583511" lon="7.790796">
        <ele>326.583295</ele>
        <time>2021-11-20T00:39:42.658Z</time>
      </trkpt>
      <trkpt lat="47.583202" lon="7.791051">
        <ele>325.260599</ele>
        <time>2021-11-20T00:39:46.067Z</time>
      </trkpt>
      <trkpt lat="47.582779" lon="7.791262">
        <ele>323.591357</ele>
        <time>2021-11-20T00:39:50.297Z</time>
      </trkpt>
      <trkpt lat="47.582261" lon="7.791284">
        <ele>321.685073</ele>
        <time>2021-11-20T00:39:55.246Z</time>
      </trkpt>
      <trkpt lat="47.582071" lon="7.791263">
        <ele>321.169338</ele>
        <time>2021-11-20T00:39:57.127Z</time>
      </trkpt>
      <trkpt lat="47.582013" lon="7.791256">
        <ele>321.011820</ele>
        <time>2021-11-20T00:39:57.641Z</time>
      </trkpt>
      <trkpt lat="47.582013" lon="7.791256">
        <ele>321.011820</ele>
        <time>2021-11-20T00:39:57.699Z</time>
      </trkpt>
      <trkpt lat="47.581708" lon="7.791259">
        <ele>320.186204</ele>
        <time>2021-11-20T00:40:00.870Z</time>
      </trkpt>
      <trkpt lat="47.581189" lon="7.791372">
        <ele>318.766263</ele>
        <time>2021-11-20T00:40:06.431Z</time>
      </trkpt>
      <trkpt lat="47.580737" lon="7.791705">
        <ele>317.399999</ele>
        <time>2021-11-20T00:40:12.270Z</time>
      </trkpt>
      <trkpt lat="47.580645" lon="7.791792">
        <ele>317.104614</ele>
        <time>2021-11-20T00:40:13.384Z</time>
      </trkpt>
      <trkpt lat="47.579608" lon="7.792763">
        <ele>313.408533</ele>
        <time>2021-11-20T00:40:26.845Z</time>
      </trkpt>
      <trkpt lat="47.579133" lon="7.793208">
        <ele>311.703963</ele>
        <time>2021-11-20T00:40:32.304Z</time>
      </trkpt>
      <trkpt lat="47.578861" lon="7.793502">
        <ele>309.922249</ele>
        <time>2021-11-20T00:40:35.448Z</time>
      </trkpt>
      <trkpt lat="47.578748" lon="7.793671">
        <ele>308.948590</ele>
        <time>2021-11-20T00:40:36.889Z</time>
      </trkpt>
      <trkpt lat="47.578632" lon="7.793843">
        <ele>307.953391</ele>
        <time>2021-11-20T00:40:38.428Z</time>
      </trkpt>
      <trkpt lat="47.578556" lon="7.793956">
        <ele>307.300465</ele>
        <time>2021-11-20T00:40:39.389Z</time>
      </trkpt>
      <trkpt lat="47.578357" lon="7.794270">
        <ele>305.537549</ele>
        <time>2021-11-20T00:40:42.025Z</time>
      </trkpt>
      <trkpt lat="47.578242" lon="7.794472">
        <ele>304.455981</ele>
        <time>2021-11-20T00:40:43.597Z</time>
      </trkpt>
      <trkpt lat="47.578016" lon="7.794883">
        <ele>302.286286</ele>
        <time>2021-11-20T00:40:46.839Z</time>
      </trkpt>
      <trkpt lat="47.577836" lon="7.795235">
        <ele>300.497795</ele>
        <time>2021-11-20T00:40:49.551Z</time>
      </trkpt>
      <trkpt lat="47.577627" lon="7.795646">
        <ele>299.120754</ele>
        <time>2021-11-20T00:40:52.793Z</time>
      </trkpt>
      <trkpt lat="47.577551" lon="7.795780">
        <ele>298.652367</ele>
        <time>2021-11-20T00:40:53.939Z</time>
      </trkpt>
      <trkpt lat="47.577456" lon="7.795967">
        <ele>298.026050</ele>
        <time>2021-11-20T00:40:55.438Z</time>
      </trkpt>
      <trkpt lat="47.577380" lon="7.796116">
        <ele>297.526276</ele>
        <time>2021-11-20T00:40:56.666Z</time>
      </trkpt>
      <trkpt lat="47.577291" lon="7.796229">
        <ele>297.061520</ele>
        <time>2021-11-20T00:40:57.812Z</time>
      </trkpt>
      <trkpt lat="47.577222" lon="7.796219">
        <ele>296.786557</ele>
        <time>2021-11-20T00:40:58.475Z</time>
      </trkpt>
      <trkpt lat="47.577124" lon="7.796239">
        <ele>296.394217</ele>
        <time>2021-11-20T00:40:59.447Z</time>
      </trkpt>
      <trkpt lat="47.576960" lon="7.796396">
        <ele>295.619937</ele>
        <time>2021-11-20T00:41:01.450Z</time>
      </trkpt>
      <trkpt lat="47.576906" lon="7.796519">
        <ele>295.227297</ele>
        <time>2021-11-20T00:41:02.415Z</time>
      </trkpt>
      <trkpt lat="47.576884" lon="7.796617">
        <ele>294.950961</ele>
        <time>2021-11-20T00:41:03.156Z</time>
      </trkpt>
      <trkpt lat="47.576845" lon="7.796669">
        <ele>294.742920</ele>
        <time>2021-11-20T00:41:03.710Z</time>
      </trkpt>
      <trkpt lat="47.576565" lon="7.796902">
        <ele>293.469411</ele>
        <time>2021-11-20T00:41:07.083Z</time>
      </trkpt>
      <trkpt lat="47.576087" lon="7.797118">
        <ele>292.749140</ele>
        <time>2021-11-20T00:41:12.602Z</time>
      </trkpt>
      <trkpt lat="47.575978" lon="7.797131">
        <ele>292.601546</ele>
        <time>2021-11-20T00:41:13.776Z</time>
      </trkpt>
      <trkpt lat="47.575955" lon="7.797114">
        <ele>292.566858</ele>
        <time>2021-11-20T00:41:14.054Z</time>
      </trkpt>
      <trkpt lat="47.575928" lon="7.797105">
        <ele>292.529506</ele>
        <time>2021-11-20T00:41:14.367Z</time>
      </trkpt>
      <trkpt lat="47.575913" lon="7.797101">
        <ele>292.508935</ele>
        <time>2021-11-20T00:41:14.554Z</time>
      </trkpt>
      <trkpt lat="47.575798" lon="7.797141">
        <ele>292.349503</ele>
        <time>2021-11-20T00:41:15.929Z</time>
      </trkpt>
      <trkpt lat="47.575766" lon="7.797180">
        <ele>292.293588</ele>
        <time>2021-11-20T00:41:16.496Z</time>
      </trkpt>
      <trkpt lat="47.575752" lon="7.797206">
        <ele>292.263298</ele>
        <time>2021-11-20T00:41:16.789Z</time>
      </trkpt>
      <trkpt lat="47.575736" lon="7.797256">
        <ele>292.212909</ele>
        <time>2021-11-20T00:41:17.250Z</time>
      </trkpt>
      <trkpt lat="47.575731" lon="7.797285">
        <ele>292.185655</ele>
        <time>2021-11-20T00:41:17.471Z</time>
      </trkpt>
      <trkpt lat="47.575703" lon="7.797314">
        <ele>292.139552</ele>
        <time>2021-11-20T00:41:17.851Z</time>
      </trkpt>
      <trkpt lat="47.575578" lon="7.797427">
        <ele>291.941940</ele>
        <time>2021-11-20T00:41:19.581Z</time>
      </trkpt>
      <trkpt lat="47.575499" lon="7.797497">
        <ele>291.817715</ele>
        <time>2021-11-20T00:41:20.735Z</time>
      </trkpt>
      <trkpt lat="47.575391" lon="7.797551">
        <ele>291.663877</ele>
        <time>2021-11-20T00:41:22.136Z</time>
      </trkpt>
      <trkpt lat="47.575240" lon="7.797626">
        <ele>291.448935</ele>
        <time>2021-11-20T00:41:24.198Z</time>
      </trkpt>
      <trkpt lat="47.575068" lon="7.797710">
        <ele>291.204510</ele>
        <time>2021-11-20T00:41:26.561Z</time>
      </trkpt>
      <trkpt lat="47.574910" lon="7.797787">
        <ele>290.980026</ele>
        <time>2021-11-20T00:41:28.764Z</time>
      </trkpt>
      <trkpt lat="47.574296" lon="7.798050">
        <ele>290.631985</ele>
        <time>2021-11-20T00:41:37.559Z</time>
      </trkpt>
      <trkpt lat="47.573813" lon="7.798212">
        <ele>290.365895</ele>
        <time>2021-11-20T00:41:44.042Z</time>
      </trkpt>
      <trkpt lat="47.573410" lon="7.798344">
        <ele>290.144129</ele>
        <time>2021-11-20T00:41:49.422Z</time>
      </trkpt>
      <trkpt lat="47.573055" lon="7.798459">
        <ele>289.921931</ele>
        <time>2021-11-20T00:41:54.094Z</time>
      </trkpt>
      <trkpt lat="47.572628" lon="7.798599">
        <ele>289.575883</ele>
        <time>2021-11-20T00:41:59.750Z</time>
      </trkpt>
      <trkpt lat="47.572527" lon="7.798632">
        <ele>289.494044</ele>
        <time>2021-11-20T00:42:01.059Z</time>
      </trkpt>
      <trkpt lat="47.572308" lon="7.798703">
        <ele>289.316654</ele>
        <time>2021-11-20T00:42:04.006Z</time>
      </trkpt>
      <trkpt lat="47.571985" lon="7.798809">
        <ele>289.054878</ele>
        <time>2021-11-20T00:42:08.248Z</time>
      </trkpt>
      <trkpt lat="47.571921" lon="7.798830">
        <ele>289.003009</ele>
        <time>2021-11-20T00:42:09.026Z</time>
      </trkpt>
      <trkpt lat="47.571202" lon="7.799089">
        <ele>288.404014</ele>
        <time>2021-11-20T00:42:17.867Z</time>
      </trkpt>
      <trkpt lat="47.569912" lon="7.799564">
        <ele>287.266257</ele>
        <time>2021-11-20T00:42:34.636Z</time>
      </trkpt>
      <trkpt lat="47.569327" lon="7.799762">
        <ele>286.912220</ele>
        <time>2021-11-20T00:42:42.087Z</time>
      </trkpt>
      <trkpt lat="47.569185" lon="7.799810">
        <ele>286.856056</ele>
        <time>2021-11-20T00:42:44.098Z</time>
      </trkpt>
      <trkpt lat="47.568384" lon="7.800059">
        <ele>286.540457</ele>
        <time>2021-11-20T00:42:55.658Z</time>
      </trkpt>
      <trkpt lat="47.568315" lon="7.800179">
        <ele>286.499436</ele>
        <time>2021-11-20T00:42:57.081Z</time>
      </trkpt>
      <trkpt lat="47.568185" lon="7.800003">
        <ele>286.431540</ele>
        <time>2021-11-20T00:42:59.915Z</time>
      </trkpt>
      <trkpt lat="47.568112" lon="7.799909">
        <ele>286.394249</ele>
        <time>2021-11-20T00:43:01.332Z</time>
      </trkpt>
      <trkpt lat="47.567987" lon="7.799745">
        <ele>286.310966</ele>
        <time>2021-11-20T00:43:03.590Z</time>
      </trkpt>
      <trkpt lat="47.567788" lon="7.799488">
        <ele>286.110997</ele>
        <time>2021-11-20T00:43:07.121Z</time>
      </trkpt>
      <trkpt lat="47.567386" lon="7.798946">
        <ele>285.699276</ele>
        <time>2021-11-20T00:43:14.026Z</time>
      </trkpt>
      <trkpt lat="47.567213" lon="7.798707">
        <ele>285.520101</ele>
        <time>2021-11-20T00:43:16.916Z</time>
      </trkpt>
      <trkpt lat="47.567200" lon="7.798690">
        <ele>285.506967</ele>
        <time>2021-11-20T00:43:17.114Z</time>
      </trkpt>
      <trkpt lat="47.567008" lon="7.798425">
        <ele>285.308200</ele>
        <time>2021-11-20T00:43:20.432Z</time>
      </trkpt>
      <trkpt lat="47.566478" lon="7.797694">
        <ele>284.641850</ele>
        <time>2021-11-20T00:43:29.222Z</time>
      </trkpt>
      <trkpt lat="47.566034" lon="7.797091">
        <ele>283.948869</ele>
        <time>2021-11-20T00:43:36.243Z</time>
      </trkpt>
      <trkpt lat="47.565783" lon="7.796749">
        <ele>283.556530</ele>
        <time>2021-11-20T00:43:40.244Z</time>
      </trkpt>
      <trkpt lat="47.565062" lon="7.795783">
        <ele>282.569884</ele>
        <time>2021-11-20T00:43:52.257Z</time>
      </trkpt>
      <trkpt lat="47.564953" lon="7.795641">
        <ele>282.448829</ele>
        <time>2021-11-20T00:43:54.119Z</time>
      </trkpt>
      <trkpt lat="47.564352" lon="7.794822">
        <ele>281.767794</ele>
        <time>2021-11-20T00:44:04.450Z</time>
      </trkpt>
      <trkpt lat="47.563816" lon="7.794115">
        <ele>281.259658</ele>
        <time>2021-11-20T00:44:13.364Z</time>
      </trkpt>
      <trkpt lat="47.563536" lon="7.793741">
        <ele>281.060058</ele>
        <time>2021-11-20T00:44:18.168Z</time>
      </trkpt>
      <trkpt lat="47.563214" lon="7.793312">
        <ele>280.830780</ele>
        <time>2021-11-20T00:44:23.676Z</time>
      </trkpt>
      <trkpt lat="47.562862" lon="7.792861">
        <ele>280.584386</ele>
        <time>2021-11-20T00:44:29.876Z</time>
      </trkpt>
      <trkpt lat="47.562390" lon="7.792229">
        <ele>280.603748</ele>
        <time>2021-11-20T00:44:39.677Z</time>
      </trkpt>
      <trkpt lat="47.562130" lon="7.791878">
        <ele>280.723440</ele>
        <time>2021-11-20T00:44:45.484Z</time>
      </trkpt>
      <trkpt lat="47.561593" lon="7.791131">
        <ele>280.974089</ele>
        <time>2021-11-20T00:44:58.176Z</time>
      </trkpt>
      <trkpt lat="47.561363" lon="7.790838">
        <ele>281.076236</ele>
        <time>2021-11-20T00:45:03.194Z</time>
      </trkpt>
      <trkpt lat="47.561126" lon="7.790525">
        <ele>281.041837</ele>
        <time>2021-11-20T00:45:08.204Z</time>
      </trkpt>
      <trkpt lat="47.560580" lon="7.789953">
        <ele>280.969383</ele>
        <time>2021-11-20T00:45:18.261Z</time>
      </trkpt>
      <trkpt lat="47.560493" lon="7.789865">
        <ele>280.957970</ele>
        <time>2021-11-20T00:45:19.727Z</time>
      </trkpt>
      <trkpt lat="47.559770" lon="7.789125">
        <ele>280.702082</ele>
        <time>2021-11-20T00:45:31.655Z</time>
      </trkpt>
      <trkpt lat="47.559689" lon="7.789033">
        <ele>280.596720</ele>
        <time>2021-11-20T00:45:32.986Z</time>
      </trkpt>
      <trkpt lat="47.559136" lon="7.788426">
        <ele>279.886241</ele>
        <time>2021-11-20T00:45:41.455Z</time>
      </trkpt>
      <trkpt lat="47.559038" lon="7.788318">
        <ele>279.760154</ele>
        <time>2021-11-20T00:45:42.863Z</time>
      </trkpt>
      <trkpt lat="47.558938" lon="7.788209">
        <ele>279.631993</ele>
        <time>2021-11-20T00:45:44.429Z</time>
      </trkpt>
      <trkpt lat="47.558870" lon="7.788106">
        <ele>279.531604</ele>
        <time>2021-11-20T00:45:45.703Z</time>
      </trkpt>
      <trkpt lat="47.558737" lon="7.787923">
        <ele>279.344231</ele>
        <time>2021-11-20T00:45:47.785Z</time>
      </trkpt>
      <trkpt lat="47.558569" lon="7.787725">
        <ele>279.122620</ele>
        <time>2021-11-20T00:45:50.440Z</time>
      </trkpt>
      <trkpt lat="47.558519" lon="7.787666">
        <ele>279.056633</ele>
        <time>2021-11-20T00:45:51.129Z</time>
      </trkpt>
      <trkpt lat="47.558139" lon="7.787200">
        <ele>277.510966</ele>
        <time>2021-11-20T00:45:56.665Z</time>
      </trkpt>
      <trkpt lat="47.558113" lon="7.787162">
        <ele>277.391393</ele>
        <time>2021-11-20T00:45:57.066Z</time>
      </trkpt>
      <trkpt lat="47.558016" lon="7.786910">
        <ele>276.750354</ele>
        <time>2021-11-20T00:45:59.123Z</time>
      </trkpt>
      <trkpt lat="47.557963" lon="7.786759">
        <ele>276.374267</ele>
        <time>2021-11-20T00:46:00.290Z</time>
      </trkpt>
      <trkpt lat="47.557910" lon="7.786611">
        <ele>276.004049</ele>
        <time>2021-11-20T00:46:01.460Z</time>
      </trkpt>
      <trkpt lat="47.557893" lon="7.786568">
        <ele>275.893930</ele>
        <time>2021-11-20T00:46:01.806Z</time>
      </trkpt>
      <trkpt lat="47.557859" lon="7.786519">
        <ele>275.738635</ele>
        <time>2021-11-20T00:46:02.272Z</time>
      </trkpt>
      <trkpt lat="47.557823" lon="7.786486">
        <ele>275.600029</ele>
        <time>2021-11-20T00:46:02.679Z</time>
      </trkpt>
      <trkpt lat="47.557711" lon="7.786536">
        <ele>275.217027</ele>
        <time>2021-11-20T00:46:03.817Z</time>
      </trkpt>
      <trkpt lat="47.557562" lon="7.786575">
        <ele>274.721604</ele>
        <time>2021-11-20T00:46:05.281Z</time>
      </trkpt>
      <trkpt lat="47.557490" lon="7.786586">
        <ele>274.484605</ele>
        <time>2021-11-20T00:46:05.973Z</time>
      </trkpt>
      <trkpt lat="47.557180" lon="7.786638">
        <ele>273.463090</ele>
        <time>2021-11-20T00:46:08.917Z</time>
      </trkpt>
      <trkpt lat="47.557118" lon="7.786638">
        <ele>273.260084</ele>
        <time>2021-11-20T00:46:09.497Z</time>
      </trkpt>
      <trkpt lat="47.557035" lon="7.786628">
        <ele>272.977406</ele>
        <time>2021-11-20T00:46:10.274Z</time>
      </trkpt>
      <trkpt lat="47.556958" lon="7.786609">
        <ele>272.704517</ele>
        <time>2021-11-20T00:46:11.015Z</time>
      </trkpt>
      <trkpt lat="47.556914" lon="7.786662">
        <ele>272.506287</ele>
        <time>2021-11-20T00:46:11.553Z</time>
      </trkpt>
      <trkpt lat="47.556883" lon="7.786718">
        <ele>272.335409</ele>
        <time>2021-11-20T00:46:12.008Z</time>
      </trkpt>
      <trkpt lat="47.556812" lon="7.787001">
        <ele>271.623104</ele>
        <time>2021-11-20T00:46:13.954Z</time>
      </trkpt>
      <trkpt lat="47.556783" lon="7.787207">
        <ele>271.126641</ele>
        <time>2021-11-20T00:46:15.317Z</time>
      </trkpt>
      <trkpt lat="47.556658" lon="7.787468">
        <ele>270.371580</ele>
        <time>2021-11-20T00:46:17.401Z</time>
      </trkpt>
      <trkpt lat="47.556539" lon="7.787710">
        <ele>269.665158</ele>
        <time>2021-11-20T00:46:19.370Z</time>
      </trkpt>
      <trkpt lat="47.556357" lon="7.788058">
        <ele>268.626464</ele>
        <time>2021-11-20T00:46:22.337Z</time>
      </trkpt>
      <trkpt lat="47.556249" lon="7.788270">
        <ele>267.999799</ele>
        <time>2021-11-20T00:46:24.157Z</time>
      </trkpt>
      <trkpt lat="47.556137" lon="7.788488">
        <ele>267.353405</ele>
        <time>2021-11-20T00:46:26.064Z</time>
      </trkpt>
      <trkpt lat="47.556111" lon="7.788537">
        <ele>267.206348</ele>
        <time>2021-11-20T00:46:26.489Z</time>
      </trkpt>
      <trkpt lat="47.556069" lon="7.788614">
        <ele>266.972767</ele>
        <time>2021-11-20T00:46:27.233Z</time>
      </trkpt>
      <trkpt lat="47.555936" lon="7.788828">
        <ele>267.037129</ele>
        <time>2021-11-20T00:46:29.477Z</time>
      </trkpt>
      <trkpt lat="47.555085" lon="7.789685">
        <ele>268.252426</ele>
        <time>2021-11-20T00:47:11.809Z</time>
      </trkpt>
      <trkpt lat="47.555062" lon="7.789726">
        <ele>268.294924</ele>
        <time>2021-11-20T00:47:13.533Z</time>
      </trkpt>
      <trkpt lat="47.555052" lon="7.789771">
        <ele>268.332689</ele>
        <time>2021-11-20T00:47:14.986Z</time>
      </trkpt>
      <trkpt lat="47.555031" lon="7.789894">
        <ele>268.433822</ele>
        <time>2021-11-20T00:47:19.217Z</time>
      </trkpt>
      <trkpt lat="47.554999" lon="7.790090">
        <ele>268.594564</ele>
        <time>2021-11-20T00:47:26.369Z</time>
      </trkpt>
      <trkpt lat="47.554865" lon="7.790678">
        <ele>269.213004</ele>
        <time>2021-11-20T00:47:47.525Z</time>
      </trkpt>
      <trkpt lat="47.554858" lon="7.790696">
        <ele>269.247030</ele>
        <time>2021-11-20T00:47:48.523Z</time>
      </trkpt>
      <trkpt lat="47.554788" lon="7.790844">
        <ele>269.543035</ele>
        <time>2021-11-20T00:47:54.088Z</time>
      </trkpt>
      <trkpt lat="47.554756" lon="7.790897">
        <ele>269.659511</ele>
        <time>2021-11-20T00:47:56.654Z</time>
      </trkpt>
      <trkpt lat="47.554911" lon="7.791459">
        <ele>270.653886</ele>
        <time>2021-11-20T00:48:16.488Z</time>
      </trkpt>
      <trkpt lat="47.555027" lon="7.791948">
        <ele>271.502835</ele>
        <time>2021-11-20T00:48:32.728Z</time>
      </trkpt>
      <trkpt lat="47.555085" lon="7.792163">
        <ele>271.882065</ele>
        <time>2021-11-20T00:48:40.008Z</time>
      </trkpt>
      <trkpt lat="47.555127" lon="7.792307">
        <ele>272.138999</ele>
        <time>2021-11-20T00:48:44.407Z</time>
      </trkpt>
      <trkpt lat="47.555237" lon="7.792734">
        <ele>272.887581</ele>
        <time>2021-11-20T00:48:58.537Z</time>
      </trkpt>
      <trkpt lat="47.555277" lon="7.793131">
        <ele>273.500464</ele>
        <time>2021-11-20T00:49:10.677Z</time>
      </trkpt>
      <trkpt lat="47.555274" lon="7.793423">
        <ele>273.876310</ele>
        <time>2021-11-20T00:49:19.336Z</time>
      </trkpt>
      <trkpt lat="47.555281" lon="7.793955">
        <ele>274.561122</ele>
        <time>2021-11-20T00:49:34.859Z</time>
      </trkpt>
      <trkpt lat="47.555282" lon="7.794033">
        <ele>274.661526</ele>
        <time>2021-11-20T00:49:37.141Z</time>
      </trkpt>
      <trkpt lat="47.555288" lon="7.794318">
        <ele>275.028498</ele>
        <time>2021-11-20T00:49:45.654Z</time>
      </trkpt>
      <trkpt lat="47.555288" lon="7.794496">
        <ele>275.257583</ele>
        <time>2021-11-20T00:49:50.706Z</time>
      </trkpt>
      <trkpt lat="47.555141" lon="7.794516">
        <ele>275.539092</ele>
        <time>2021-11-20T00:49:57.105Z</time>
      </trkpt>
      <trkpt lat="47.555010" lon="7.794553">
        <ele>275.793408</ele>
        <time>2021-11-20T00:50:02.957Z</time>
      </trkpt>
      <trkpt lat="47.555010" lon="7.794553">
        <ele>275.793408</ele>
        <time>2021-11-20T00:50:03.020Z</time>
      </trkpt>
      <trkpt lat="47.554864" lon="7.794599">
        <ele>276.078055</ele>
        <time>2021-11-20T00:50:09.376Z</time>
      </trkpt>
      <trkpt lat="47.554495" lon="7.794723">
        <ele>276.825330</ele>
        <time>2021-11-20T00:50:26.779Z</time>
      </trkpt>
      <trkpt lat="47.554352" lon="7.794791">
        <ele>277.338099</ele>
        <time>2021-11-20T00:50:34.029Z</time>
      </trkpt>
      <trkpt lat="47.554254" lon="7.794823">
        <ele>277.680727</ele>
        <time>2021-11-20T00:50:38.768Z</time>
      </trkpt>
      <trkpt lat="47.554004" lon="7.794824">
        <ele>278.534301</ele>
        <time>2021-11-20T00:50:50.966Z</time>
      </trkpt>
      <trkpt lat="47.553930" lon="7.794811">
        <ele>278.788727</ele>
        <time>2021-11-20T00:50:54.823Z</time>
      </trkpt>
      <trkpt lat="47.553883" lon="7.794947">
        <ele>279.140806</ele>
        <time>2021-11-20T00:50:58.240Z</time>
      </trkpt>
      <trkpt lat="47.553854" lon="7.795042">
        <ele>279.381065</ele>
        <time>2021-11-20T00:51:00.590Z</time>
      </trkpt>
      <trkpt lat="47.553847" lon="7.795063">
        <ele>279.435035</ele>
        <time>2021-11-20T00:51:01.146Z</time>
      </trkpt>
      <trkpt lat="47.553724" lon="7.795281">
        <ele>280.089790</ele>
        <time>2021-11-20T00:51:08.195Z</time>
      </trkpt>
      <trkpt lat="47.553702" lon="7.795313">
        <ele>280.195048</ele>
        <time>2021-11-20T00:51:09.362Z</time>
      </trkpt>
      <trkpt lat="47.553628" lon="7.795414">
        <ele>280.538560</ele>
        <time>2021-11-20T00:51:12.780Z</time>
      </trkpt>
      <trkpt lat="47.553580" lon="7.795460">
        <ele>280.733737</ele>
        <time>2021-11-20T00:51:14.849Z</time>
      </trkpt>
      <trkpt lat="47.553379" lon="7.795607">
        <ele>281.499052</ele>
        <time>2021-11-20T00:51:22.991Z</time>
      </trkpt>
      <trkpt lat="47.553256" lon="7.795697">
        <ele>281.967425</ele>
        <time>2021-11-20T00:51:27.819Z</time>
      </trkpt>
      <trkpt lat="47.553218" lon="7.795662">
        <ele>282.120192</ele>
        <time>2021-11-20T00:51:29.007Z</time>
      </trkpt>
      <trkpt lat="47.553188" lon="7.795642">
        <ele>282.232511</ele>
        <time>2021-11-20T00:51:29.941Z</time>
      </trkpt>
      <trkpt lat="47.553162" lon="7.795633">
        <ele>282.323672</ele>
        <time>2021-11-20T00:51:30.875Z</time>
      </trkpt>
      <trkpt lat="47.553139" lon="7.795630">
        <ele>282.402505</ele>
        <time>2021-11-20T00:51:31.558Z</time>
      </trkpt>
      <trkpt lat="47.552930" lon="7.795600">
        <ele>283.182081</ele>
        <time>2021-11-20T00:51:37.829Z</time>
      </trkpt>
      <trkpt lat="47.552898" lon="7.795870">
        <ele>284.001076</ele>
        <time>2021-11-20T00:51:43.255Z</time>
      </trkpt>
      <trkpt lat="47.552886" lon="7.795976">
        <ele>284.322186</ele>
        <time>2021-11-20T00:51:45.572Z</time>
      </trkpt>
      <trkpt lat="47.552817" lon="7.796239">
        <ele>285.165205</ele>
        <time>2021-11-20T00:51:51.640Z</time>
      </trkpt>
      <trkpt lat="47.552762" lon="7.796425">
        <ele>285.771895</ele>
        <time>2021-11-20T00:51:56.323Z</time>
      </trkpt>
      <trkpt lat="47.552493" lon="7.797048">
        <ele>287.981493</ele>
        <time>2021-11-20T00:52:13.208Z</time>
      </trkpt>
      <trkpt lat="47.552152" lon="7.797876">
        <ele>290.877160</ele>
        <time>2021-11-20T00:52:35.275Z</time>
      </trkpt>
      <trkpt lat="47.552084" lon="7.798083">
        <ele>291.396660</ele>
        <time>2021-11-20T00:52:40.815Z</time>
      </trkpt>
      <trkpt lat="47.551948" lon="7.798607">
        <ele>292.663517</ele>
        <time>2021-11-20T00:52:52.625Z</time>
      </trkpt>
      <trkpt lat="47.551805" lon="7.799326">
        <ele>294.354973</ele>
        <time>2021-11-20T00:53:06.512Z</time>
      </trkpt>
      <trkpt lat="47.551793" lon="7.799434">
        <ele>294.601963</ele>
        <time>2021-11-20T00:53:08.796Z</time>
      </trkpt>
      <trkpt lat="47.551754" lon="7.799766">
        <ele>295.362410</ele>
        <time>2021-11-20T00:53:15.146Z</time>
      </trkpt>
      <trkpt lat="47.551712" lon="7.800249">
        <ele>296.461346</ele>
        <time>2021-11-20T00:53:24.066Z</time>
      </trkpt>
      <trkpt lat="47.551704" lon="7.800451">
        <ele>296.895490</ele>
        <time>2021-11-20T00:53:27.252Z</time>
      </trkpt>
      <trkpt lat="47.551672" lon="7.801147">
        <ele>297.433595</ele>
        <time>2021-11-20T00:53:36.275Z</time>
      </trkpt>
      <trkpt lat="47.551669" lon="7.801438">
        <ele>297.658085</ele>
        <time>2021-11-20T00:53:40.854Z</time>
      </trkpt>
      <trkpt lat="47.551666" lon="7.801632">
        <ele>297.807767</ele>
        <time>2021-11-20T00:53:42.866Z</time>
      </trkpt>
      <trkpt lat="47.551669" lon="7.801853">
        <ele>297.978270</ele>
        <time>2021-11-20T00:53:46.124Z</time>
      </trkpt>
      <trkpt lat="47.551671" lon="7.802077">
        <ele>298.151068</ele>
        <time>2021-11-20T00:53:48.441Z</time>
      </trkpt>
      <trkpt lat="47.551679" lon="7.802228">
        <ele>298.267901</ele>
        <time>2021-11-20T00:53:49.561Z</time>
      </trkpt>
      <trkpt lat="47.551688" lon="7.802394">
        <ele>298.396358</ele>
        <time>2021-11-20T00:53:52.518Z</time>
      </trkpt>
      <trkpt lat="47.551700" lon="7.802648">
        <ele>298.592760</ele>
        <time>2021-11-20T00:53:54.797Z</time>
      </trkpt>
      <trkpt lat="47.551732" lon="7.803125">
        <ele>298.958878</ele>
        <time>2021-11-20T00:54:00.948Z</time>
      </trkpt>
      <trkpt lat="47.551744" lon="7.803277">
        <ele>299.058350</ele>
        <time>2021-11-20T00:54:02.156Z</time>
      </trkpt>
      <trkpt lat="47.551751" lon="7.803369">
        <ele>299.118528</ele>
        <time>2021-11-20T00:54:03.830Z</time>
      </trkpt>
      <trkpt lat="47.551692" lon="7.803510">
        <ele>299.226361</ele>
        <time>2021-11-20T00:54:07.417Z</time>
      </trkpt>
      <trkpt lat="47.551741" lon="7.804294">
        <ele>299.738132</ele>
        <time>2021-11-20T00:54:20.015Z</time>
      </trkpt>
      <trkpt lat="47.551744" lon="7.804473">
        <ele>299.854516</ele>
        <time>2021-11-20T00:54:23.050Z</time>
      </trkpt>
      <trkpt lat="47.551731" lon="7.804667">
        <ele>299.981233</ele>
        <time>2021-11-20T00:54:27.151Z</time>
      </trkpt>
      <trkpt lat="47.551709" lon="7.805000">
        <ele>300.198714</ele>
        <time>2021-11-20T00:54:31.691Z</time>
      </trkpt>
      <trkpt lat="47.551681" lon="7.805477">
        <ele>300.509929</ele>
        <time>2021-11-20T00:54:39.437Z</time>
      </trkpt>
      <trkpt lat="47.551671" lon="7.806117">
        <ele>300.695360</ele>
        <time>2021-11-20T00:54:49.527Z</time>
      </trkpt>
      <trkpt lat="47.551651" lon="7.806246">
        <ele>300.703386</ele>
        <time>2021-11-20T00:54:52.429Z</time>
      </trkpt>
      <trkpt lat="47.551895" lon="7.806278">
        <ele>300.725393</ele>
        <time>2021-11-20T00:54:55.955Z</time>
      </trkpt>
      <trkpt lat="47.552015" lon="7.806307">
        <ele>300.736316</ele>
        <time>2021-11-20T00:54:58.825Z</time>
      </trkpt>
      <trkpt lat="47.552068" lon="7.806445">
        <ele>300.745944</ele>
        <time>2021-11-20T00:55:00.282Z</time>
      </trkpt>
      <trkpt lat="47.552398" lon="7.808880">
        <ele>300.384386</ele>
        <time>2021-11-20T00:55:22.425Z</time>
      </trkpt>
      <trkpt lat="47.552566" lon="7.810386">
        <ele>299.728311</ele>
        <time>2021-11-20T00:55:35.436Z</time>
      </trkpt>
      <trkpt lat="47.552711" lon="7.812955">
        <ele>298.600294</ele>
        <time>2021-11-20T00:55:58.045Z</time>
      </trkpt>
      <trkpt lat="47.552844" lon="7.816432">
        <ele>297.435823</ele>
        <time>2021-11-20T00:56:28.537Z</time>
      </trkpt>
      <trkpt lat="47.552948" lon="7.819358">
        <ele>297.817092</ele>
        <time>2021-11-20T00:56:59.768Z</time>
      </trkpt>
      <trkpt lat="47.552896" lon="7.820699">
        <ele>298.351622</ele>
        <time>2021-11-20T00:57:15.851Z</time>
      </trkpt>
      <trkpt lat="47.552567" lon="7.824508">
        <ele>300.239168</ele>
        <time>2021-11-20T00:58:02.336Z</time>
      </trkpt>
      <trkpt lat="47.552491" lon="7.827227">
        <ele>301.775592</ele>
        <time>2021-11-20T00:58:34.076Z</time>
      </trkpt>
      <trkpt lat="47.552515" lon="7.828094">
        <ele>302.499987</ele>
        <time>2021-11-20T00:58:45.786Z</time>
      </trkpt>
      <trkpt lat="47.552477" lon="7.828294">
        <ele>302.673441</ele>
        <time>2021-11-20T00:58:48.403Z</time>
      </trkpt>
      <trkpt lat="47.552421" lon="7.828481">
        <ele>302.844229</ele>
        <time>2021-11-20T00:58:51.334Z</time>
      </trkpt>
      <trkpt lat="47.552404" lon="7.828582">
        <ele>302.931128</ele>
        <time>2021-11-20T00:58:53.019Z</time>
      </trkpt>
      <trkpt lat="47.552416" lon="7.828822">
        <ele>303.132034</ele>
        <time>2021-11-20T00:58:56.253Z</time>
      </trkpt>
      <trkpt lat="47.552554" lon="7.829266">
        <ele>303.768810</ele>
        <time>2021-11-20T00:59:03.604Z</time>
      </trkpt>
      <trkpt lat="47.552645" lon="7.830686">
        <ele>306.216540</ele>
        <time>2021-11-20T00:59:26.910Z</time>
      </trkpt>
      <trkpt lat="47.552690" lon="7.832598">
        <ele>309.759395</ele>
        <time>2021-11-20T01:00:02.387Z</time>
      </trkpt>
      <trkpt lat="47.552616" lon="7.832891">
        <ele>310.383259</ele>
        <time>2021-11-20T01:00:07.751Z</time>
      </trkpt>
      <trkpt lat="47.552556" lon="7.832977">
        <ele>310.629919</ele>
        <time>2021-11-20T01:00:10.482Z</time>
      </trkpt>
      <trkpt lat="47.552511" lon="7.833072">
        <ele>310.861370</ele>
        <time>2021-11-20T01:00:12.508Z</time>
      </trkpt>
      <trkpt lat="47.552467" lon="7.833198">
        <ele>311.144278</ele>
        <time>2021-11-20T01:00:14.910Z</time>
      </trkpt>
      <trkpt lat="47.552452" lon="7.833284">
        <ele>311.321412</ele>
        <time>2021-11-20T01:00:16.521Z</time>
      </trkpt>
      <trkpt lat="47.552696" lon="7.833789">
        <ele>312.559935</ele>
        <time>2021-11-20T01:00:27.552Z</time>
      </trkpt>
      <trkpt lat="47.552700" lon="7.833938">
        <ele>312.857302</ele>
        <time>2021-11-20T01:00:30.496Z</time>
      </trkpt>
      <trkpt lat="47.552714" lon="7.835010">
        <ele>314.398402</ele>
        <time>2021-11-20T01:00:48.973Z</time>
      </trkpt>
      <trkpt lat="47.552719" lon="7.836790">
        <ele>316.757124</ele>
        <time>2021-11-20T01:01:14.257Z</time>
      </trkpt>
      <trkpt lat="47.552697" lon="7.838068">
        <ele>318.039549</ele>
        <time>2021-11-20T01:01:31.977Z</time>
      </trkpt>
      <trkpt lat="47.552736" lon="7.838578">
        <ele>318.554422</ele>
        <time>2021-11-20T01:01:39.107Z</time>
      </trkpt>
      <trkpt lat="47.552802" lon="7.839009">
        <ele>318.997762</ele>
        <time>2021-11-20T01:01:45.249Z</time>
      </trkpt>
      <trkpt lat="47.552808" lon="7.839033">
        <ele>319.023436</ele>
        <time>2021-11-20T01:01:45.676Z</time>
      </trkpt>
      <trkpt lat="47.552939" lon="7.839526">
        <ele>319.565798</ele>
        <time>2021-11-20T01:01:53.118Z</time>
      </trkpt>
      <trkpt lat="47.553231" lon="7.841529">
        <ele>321.787831</ele>
        <time>2021-11-20T01:02:23.179Z</time>
      </trkpt>
      <trkpt lat="47.553216" lon="7.841849">
        <ele>322.135656</ele>
        <time>2021-11-20T01:02:27.688Z</time>
      </trkpt>
      <trkpt lat="47.553123" lon="7.842222">
        <ele>322.467013</ele>
        <time>2021-11-20T01:02:32.918Z</time>
      </trkpt>
      <trkpt lat="47.553133" lon="7.842431">
        <ele>322.605735</ele>
        <time>2021-11-20T01:02:36.047Z</time>
      </trkpt>
      <trkpt lat="47.552833" lon="7.842495">
        <ele>322.903068</ele>
        <time>2021-11-20T01:02:43.356Z</time>
      </trkpt>
      <trkpt lat="47.552380" lon="7.842592">
        <ele>323.352075</ele>
        <time>2021-11-20T01:02:54.405Z</time>
      </trkpt>
      <trkpt lat="47.551922" lon="7.842704">
        <ele>323.807449</ele>
        <time>2021-11-20T01:03:04.971Z</time>
      </trkpt>
      <trkpt lat="47.551668" lon="7.842770">
        <ele>324.060425</ele>
        <time>2021-11-20T01:03:10.930Z</time>
      </trkpt>
      <trkpt lat="47.551454" lon="7.842815">
        <ele>324.269832</ele>
        <time>2021-11-20T01:03:15.663Z</time>
      </trkpt>
      <trkpt lat="47.551344" lon="7.844621">
        <ele>325.454461</ele>
        <time>2021-11-20T01:03:38.366Z</time>
      </trkpt>
      <trkpt lat="47.551285" lon="7.845498">
        <ele>326.125568</ele>
        <time>2021-11-20T01:03:50.285Z</time>
      </trkpt>
      <trkpt lat="47.551205" lon="7.846694">
        <ele>327.260009</ele>
        <time>2021-11-20T01:04:06.357Z</time>
      </trkpt>
      <trkpt lat="47.551184" lon="7.847206">
        <ele>327.744181</ele>
        <time>2021-11-20T01:04:13.746Z</time>
      </trkpt>
      <trkpt lat="47.551196" lon="7.847517">
        <ele>328.038215</ele>
        <time>2021-11-20T01:04:18.287Z</time>
      </trkpt>
      <trkpt lat="47.551669" lon="7.848083">
        <ele>328.924583</ele>
        <time>2021-11-20T01:04:31.196Z</time>
      </trkpt>
      <trkpt lat="47.551242" lon="7.848702">
        <ele>329.814130</ele>
        <time>2021-11-20T01:04:43.737Z</time>
      </trkpt>
      <trkpt lat="47.550975" lon="7.849066">
        <ele>330.354408</ele>
        <time>2021-11-20T01:04:51.053Z</time>
      </trkpt>
      <trkpt lat="47.550810" lon="7.849346">
        <ele>330.727980</ele>
        <time>2021-11-20T01:04:57.446Z</time>
      </trkpt>
      <trkpt lat="47.550488" lon="7.850081">
        <ele>331.380132</ele>
        <time>2021-11-20T01:05:12.944Z</time>
      </trkpt>
      <trkpt lat="47.550333" lon="7.850434">
        <ele>331.641907</ele>
        <time>2021-11-20T01:05:20.270Z</time>
      </trkpt>
      <trkpt lat="47.550009" lon="7.851173">
        <ele>332.189683</ele>
        <time>2021-11-20T01:05:34.857Z</time>
      </trkpt>
      <trkpt lat="47.549886" lon="7.851448">
        <ele>332.394753</ele>
        <time>2021-11-20T01:05:39.993Z</time>
      </trkpt>
      <trkpt lat="47.549652" lon="7.851969">
        <ele>332.634609</ele>
        <time>2021-11-20T01:05:48.739Z</time>
      </trkpt>
      <trkpt lat="47.549535" lon="7.852225">
        <ele>332.583013</ele>
        <time>2021-11-20T01:05:52.799Z</time>
      </trkpt>
      <trkpt lat="47.549285" lon="7.852784">
        <ele>332.471101</ele>
        <time>2021-11-20T01:06:01.437Z</time>
      </trkpt>
      <trkpt lat="47.549708" lon="7.853279">
        <ele>332.337822</ele>
        <time>2021-11-20T01:06:11.823Z</time>
      </trkpt>
      <trkpt lat="47.550221" lon="7.853833">
        <ele>332.131185</ele>
        <time>2021-11-20T01:06:23.732Z</time>
      </trkpt>
      <trkpt lat="47.549883" lon="7.854434">
        <ele>331.840855</ele>
        <time>2021-11-20T01:06:30.410Z</time>
      </trkpt>
      <trkpt lat="47.549566" lon="7.855225">
        <ele>331.499443</ele>
        <time>2021-11-20T01:06:41.555Z</time>
      </trkpt>
      <trkpt lat="47.549362" lon="7.855774">
        <ele>331.266855</ele>
        <time>2021-11-20T01:06:49.476Z</time>
      </trkpt>
      <trkpt lat="47.548887" lon="7.857308">
        <ele>331.191968</ele>
        <time>2021-11-20T01:07:11.584Z</time>
      </trkpt>
      <trkpt lat="47.548743" lon="7.857692">
        <ele>331.180820</ele>
        <time>2021-11-20T01:07:17.556Z</time>
      </trkpt>
      <trkpt lat="47.548701" lon="7.857893">
        <ele>331.175481</ele>
        <time>2021-11-20T01:07:20.527Z</time>
      </trkpt>
      <trkpt lat="47.548686" lon="7.857973">
        <ele>331.173374</ele>
        <time>2021-11-20T01:07:21.651Z</time>
      </trkpt>
      <trkpt lat="47.548611" lon="7.858381">
        <ele>331.220877</ele>
        <time>2021-11-20T01:07:27.865Z</time>
      </trkpt>
      <trkpt lat="47.548334" lon="7.859801">
        <ele>332.186898</ele>
        <time>2021-11-20T01:07:50.902Z</time>
      </trkpt>
      <trkpt lat="47.548049" lon="7.860929">
        <ele>333.025042</ele>
        <time>2021-11-20T01:08:11.921Z</time>
      </trkpt>
      <trkpt lat="47.547930" lon="7.861711">
        <ele>333.943638</ele>
        <time>2021-11-20T01:08:26.684Z</time>
      </trkpt>
      <trkpt lat="47.547568" lon="7.863151">
        <ele>335.704494</ele>
        <time>2021-11-20T01:08:55.812Z</time>
      </trkpt>
      <trkpt lat="47.547320" lon="7.863864">
        <ele>336.087791</ele>
        <time>2021-11-20T01:09:09.752Z</time>
      </trkpt>
      <trkpt lat="47.546974" lon="7.864423">
        <ele>336.255166</ele>
        <time>2021-11-20T01:09:20.575Z</time>
      </trkpt>
      <trkpt lat="47.546885" lon="7.864500">
        <ele>336.288862</ele>
        <time>2021-11-20T01:09:23.660Z</time>
      </trkpt>
      <trkpt lat="47.546894" lon="7.864837">
        <ele>336.363290</ele>
        <time>2021-11-20T01:09:27.544Z</time>
      </trkpt>
      <trkpt lat="47.546889" lon="7.865225">
        <ele>336.448929</ele>
        <time>2021-11-20T01:09:32.969Z</time>
      </trkpt>
      <trkpt lat="47.546819" lon="7.865489">
        <ele>336.511523</ele>
        <time>2021-11-20T01:09:36.914Z</time>
      </trkpt>
      <trkpt lat="47.546510" lon="7.865766">
        <ele>336.334719</ele>
        <time>2021-11-20T01:09:43.548Z</time>
      </trkpt>
      <trkpt lat="47.546327" lon="7.865959">
        <ele>336.142645</ele>
        <time>2021-11-20T01:09:47.063Z</time>
      </trkpt>
      <trkpt lat="47.546096" lon="7.866147">
        <ele>335.917286</ele>
        <time>2021-11-20T01:09:51.619Z</time>
      </trkpt>
      <trkpt lat="47.545240" lon="7.866887">
        <ele>335.069860</ele>
        <time>2021-11-20T01:10:08.292Z</time>
      </trkpt>
      <trkpt lat="47.545160" lon="7.866985">
        <ele>335.010101</ele>
        <time>2021-11-20T01:10:10.248Z</time>
      </trkpt>
      <trkpt lat="47.545003" lon="7.867278">
        <ele>335.010101</ele>
        <time>2021-11-20T01:10:15.916Z</time>
      </trkpt>
      <trkpt lat="47.544568" lon="7.867693">
        <ele>335.010101</ele>
        <time>2021-11-20T01:10:28.506Z</time>
      </trkpt>
      <trkpt lat="47.544469" lon="7.867776">
        <ele>335.010101</ele>
        <time>2021-11-20T01:10:31.127Z</time>
      </trkpt>
      <trkpt lat="47.544410" lon="7.867825">
        <ele>335.010101</ele>
        <time>2021-11-20T01:10:32.917Z</time>
      </trkpt>
      <trkpt lat="47.544246" lon="7.867967">
        <ele>335.010101</ele>
        <time>2021-11-20T01:10:37.529Z</time>
      </trkpt>
      <trkpt lat="47.544214" lon="7.867988">
        <ele>335.010101</ele>
        <time>2021-11-20T01:10:38.343Z</time>
      </trkpt>
      <trkpt lat="47.543801" lon="7.868269">
        <ele>335.010101</ele>
        <time>2021-11-20T01:10:49.410Z</time>
      </trkpt>
      <trkpt lat="47.543657" lon="7.868359">
        <ele>335.010101</ele>
        <time>2021-11-20T01:10:53.611Z</time>
      </trkpt>
      <trkpt lat="47.543450" lon="7.868494">
        <ele>335.010101</ele>
        <time>2021-11-20T01:10:58.237Z</time>
      </trkpt>
    </trkseg>
  </trk>
</gpx>